[[{"header":{"parameterUnit":"m.s-1","parameterCategory":1,"la1":30.6,"la2":28.766,"lo1":-90.7593,"lo2":-88.6598,"dy":0.0162,"dx":0.0183,"nx":116,"ny":114,"refTime":"2023-05-05T00:00:00:Z","depth":0,"parameterNumber":2,"parameterNumberName":"U-component_of_WINDS"},"data":[0.0,0.0,0.0,0.0,0.0,0.0,0.0,0.0,0.0,0.0,0.0,0.0,0.0,0.0,0.0,0.0,0.0,0.0,0.0,0.0,0.0,0.0,0.0,0.0,0.0,0.0,0.0,0.0,0.0,0.0,0.0,0.0,0.0,0.0,0.0,0.0,0.0,0.0,0.0,0.0,0.0,0.0,0.0,0.0,0.0,0.0,0.0,0.0,0.0,0.0,0.0,0.0,0.0,0.0,0.0,0.0,0.0,0.0,0.0,0.0,0.0,0.0,0.0,0.0,0.0,0.0,0.0,0.0,0.0,0.0,0.0,0.0,0.0,0.0,0.0,0.0,0.0,0.0,0.0,0.0,0.0,0.0,0.0,0.0,0.0,0.0,0.0,0.0,0.0,0.0,0.0,0.0,0.0,0.0,0.0,0.0,0.0,0.0,0.0,0.0,0.0,0.0,0.0,0.0,0.0,0.0,0.0,0.0,0.0,0.0,0.0,0.0,0.0,0.0,0.0,0.0,0.0,0.0,0.0,0.0,0.0,0.0,0.0,0.0,0.0,0.0,0.0,0.0,0.0,0.0,0.0,0.0,0.0,0.0,0.0,0.0,0.0,0.0,0.0,0.0,0.0,0.0,0.0,0.0,0.0,0.0,0.0,0.0,0.0,0.0,0.0,0.0,0.0,0.0,0.0,0.0,0.0,0.0,0.0,0.0,0.0,0.0,0.0,0.0,0.0,0.0,0.0,0.0,0.0,0.0,0.0,0.0,0.0,0.0,0.0,0.0,0.0,0.0,0.0,0.0,0.0,0.0,0.0,0.0,0.0,0.0,0.0,0.0,0.0,0.0,0.0,0.0,0.0,0.0,0.0,0.0,0.0,0.0,0.0,0.0,0.0,0.0,0.0,0.0,0.0,0.0,0.0,0.0,0.0,0.0,0.0,0.0,0.0,0.0,0.0,0.0,0.0,0.0,0.0,0.0,0.0,0.0,0.0,0.0,0.0,0.0,0.0,0.0,0.0,0.0,0.0,0.0,0.0,0.0,0.0,0.0,0.0,0.0,0.0,0.0,0.0,0.0,0.0,0.0,0.0,0.0,0.0,0.0,0.0,0.0,0.0,0.0,0.0,0.0,0.0,0.0,0.0,0.0,0.0,0.0,0.0,0.0,0.0,0.0,0.0,0.0,0.0,0.0,0.0,0.0,0.0,0.0,0.0,0.0,0.0,0.0,0.0,0.0,0.0,0.0,0.0,0.0,0.0,0.0,0.0,0.0,0.0,0.0,0.0,0.0,0.0,0.0,0.0,0.0,0.0,0.0,0.0,0.0,0.0,0.0,0.0,0.0,0.0,0.0,0.0,0.0,0.0,0.0,0.0,0.0,0.0,0.0,0.0,0.0,0.0,0.0,0.0,0.0,0.0,0.0,0.0,0.0,0.0,0.0,0.0,0.0,0.0,0.0,0.0,0.0,0.0,0.0,0.0,0.0,0.0,0.0,0.0,0.0,0.0,0.0,0.0,0.0,0.0,0.0,0.0,0.0,0.0,0.0,0.0,0.0,0.0,0.0,0.0,0.0,0.0,0.0,0.0,0.0,0.0,0.0,0.0,0.0,0.0,0.0,0.0,0.0,0.0,0.0,0.0,0.0,0.0,0.0,0.0,0.0,0.0,0.0,0.0,0.0,0.0,0.0,0.0,0.0,0.0,0.0,0.0,0.0,0.0,0.0,0.0,0.0,0.0,0.0,0.0,0.0,0.0,0.0,0.0,0.0,0.0,0.0,0.0,0.0,0.0,0.0,0.0,0.0,0.0,0.0,0.0,0.0,0.0,0.0,0.0,0.0,0.0,0.0,0.0,0.0,0.0,0.0,0.0,0.0,0.0,0.0,0.0,0.0,0.0,0.0,0.0,0.0,0.0,0.0,0.0,0.0,0.0,0.0,0.0,0.0,0.0,0.0,0.0,0.0,0.0,0.0,0.0,0.0,0.0,0.0,0.0,0.0,0.0,0.0,0.0,0.0,0.0,0.0,0.0,0.0,0.0,0.0,0.0,0.0,0.0,0.0,0.0,0.0,0.0,0.0,0.0,0.0,0.0,0.0,0.0,0.0,0.0,0.0,0.0,0.0,0.0,0.0,0.0,0.0,0.0,0.0,0.0,0.0,0.0,0.0,0.0,0.0,0.0,0.0,0.0,0.0,0.0,0.0,0.0,0.0,0.0,0.0,0.0,0.0,0.0,0.0,0.0,0.0,0.0,0.0,0.0,0.0,0.0,0.0,0.0,0.0,0.0,0.0,0.0,0.0,0.0,0.0,0.0,0.0,0.0,0.0,0.0,0.0,0.0,0.0,0.0,0.0,0.0,0.0,0.0,0.0,0.0,0.0,0.0,0.0,0.0,0.0,0.0,0.0,0.0,0.0,0.0,0.0,0.0,0.0,0.0,0.0,0.0,0.0,0.0,0.0,0.0,0.0,0.0,0.0,0.0,0.0,0.0,0.0,0.0,0.0,0.0,0.0,0.0,0.0,0.0,0.0,0.0,0.0,0.0,0.0,0.0,0.0,0.0,0.0,0.0,0.0,0.0,0.0,0.0,0.0,0.0,0.0,0.0,0.0,0.0,0.0,0.0,0.0,0.0,0.0,0.0,0.0,0.0,0.0,0.0,0.0,0.0,0.0,0.0,0.0,0.0,0.0,0.0,0.0,0.0,0.0,0.0,0.0,0.0,0.0,0.0,0.0,0.0,0.0,0.0,0.0,0.0,0.0,0.0,0.0,0.0,0.0,0.0,0.0,0.0,0.0,0.0,0.0,0.0,0.0,0.0,0.0,0.0,0.0,0.0,0.0,0.0,0.0,0.0,0.0,0.0,0.0,0.0,0.0,0.0,0.0,0.0,0.0,0.0,0.0,0.0,0.0,0.0,0.0,0.0,0.0,0.0,0.0,0.0,0.0,0.0,0.0,0.0,0.0,0.0,0.0,0.0,0.0,0.0,0.0,0.0,0.0,0.0,0.0,0.0,0.0,0.0,0.0,0.0,0.0,0.0,0.0,0.0,0.0,0.0,0.0,0.0,0.0,0.0,0.0,0.0,0.0,0.0,0.0,0.0,0.0,0.0,0.0,0.0,0.0,0.0,0.0,0.0,0.0,0.0,0.0,0.0,0.0,0.0,0.0,0.0,0.0,0.0,0.0,0.0,0.0,0.0,0.0,0.0,0.0,0.0,0.0,0.0,0.0,0.0,0.0,0.0,0.0,0.0,0.0,0.0,0.0,0.0,0.0,0.0,0.0,0.0,0.0,0.0,0.0,0.0,0.0,0.0,0.0,0.0,0.0,0.0,0.0,0.0,0.0,0.0,0.0,0.0,0.0,0.0,0.0,0.0,0.0,0.0,0.0,0.0,0.0,0.0,0.0,0.0,0.0,0.0,0.0,0.0,0.0,0.0,0.0,0.0,0.0,0.0,0.0,0.0,0.0,0.0,0.0,0.0,0.0,0.0,0.0,0.0,0.0,0.0,0.0,0.0,0.0,0.0,0.0,0.0,0.0,0.0,0.0,0.0,0.0,0.0,0.0,0.0,0.0,0.0,0.0,0.0,0.0,0.0,0.0,0.0,0.0,0.0,0.0,0.0,0.0,0.0,0.0,0.0,0.0,0.0,0.0,0.0,0.0,0.0,0.0,0.0,0.0,0.0,0.0,0.0,0.0,0.0,0.0,0.0,0.0,0.0,0.0,0.0,0.0,0.0,0.0,0.0,0.0,0.0,0.0,0.0,0.0,0.0,0.0,0.0,0.0,0.0,0.0,0.0,0.0,0.0,0.0,0.0,0.0,0.0,0.0,0.0,0.0,0.0,0.0,0.0,0.0,0.0,0.0,0.0,0.0,0.0,0.0,0.0,0.0,0.0,0.0,0.0,0.0,0.0,0.0,0.0,0.0,0.0,0.0,0.0,0.0,0.0,0.0,0.0,0.0,0.0,0.0,0.0,0.0,0.0,0.0,0.0,0.0,0.0,0.0,0.0,0.0,0.0,0.0,0.0,0.0,0.0,0.0,0.0,0.0,0.0,0.0,0.0,0.0,0.0,0.0,0.0,0.0,0.0,0.0,0.0,0.0,0.0,0.0,0.0,0.0,0.0,0.0,0.0,0.0,0.0,0.0,0.0,0.0,0.0,0.0,0.0,0.0,0.0,0.0,0.0,0.0,0.0,0.0,0.0,0.0,0.0,0.0,0.0,0.0,0.0,0.0,0.0,0.0,0.0,0.0,0.0,0.0,0.0,0.0,0.0,0.0,0.0,0.0,0.0,0.0,0.0,0.0,0.0,0.0,0.0,0.0,0.0,0.0,0.0,0.0,0.0,0.0,0.0,0.0,0.0,0.0,0.0,0.0,0.0,0.0,0.0,0.0,0.0,0.0,0.0,0.0,0.0,0.0,0.0,0.0,0.0,0.0,0.0,0.0,0.0,0.0,0.0,0.0,0.0,0.0,0.0,0.0,0.0,0.0,0.0,0.0,0.0,0.0,0.0,0.0,0.0,0.0,0.0,0.0,0.0,0.0,0.0,0.0,0.0,0.0,0.0,0.0,0.0,0.0,0.0,0.0,0.0,0.0,0.0,0.0,0.0,0.0,0.0,0.0,0.0,0.0,0.0,0.0,0.0,0.0,0.0,0.0,0.0,0.0,0.0,0.0,0.0,0.0,0.0,0.0,0.0,0.0,0.0,0.0,0.0,0.0,0.0,0.0,0.0,0.0,0.0,0.0,0.0,0.0,0.0,0.0,0.0,0.0,0.0,0.0,0.0,0.0,0.0,0.0,0.0,0.0,0.0,0.0,0.0,0.0,0.0,0.0,0.0,0.0,0.0,0.0,0.0,0.0,0.0,0.0,0.0,0.0,0.0,0.0,0.0,0.0,0.0,0.0,0.0,0.0,0.0,0.0,0.0,0.0,0.0,0.0,0.0,0.0,0.0,0.0,0.0,0.0,0.0,0.0,0.0,0.0,0.0,0.0,0.0,0.0,0.0,0.0,0.0,0.0,0.0,0.0,0.0,0.0,0.0,0.0,0.0,0.0,0.0,0.0,0.0,0.0,0.0,0.0,0.0,0.0,0.0,0.0,0.0,0.0,0.0,0.0,0.0,0.0,0.0,0.0,0.0,0.0,0.0,0.0,0.0,0.0,0.0,0.0,0.0,0.0,0.0,0.0,0.0,0.0,0.0,0.0,0.0,0.0,0.0,0.0,0.0,0.0,0.0,0.0,0.0,0.0,0.0,0.0,0.0,0.0,0.0,0.0,0.0,0.0,0.0,0.0,0.0,0.0,0.0,0.0,0.0,0.0,0.0,0.0,0.0,0.0,0.0,0.0,0.0,0.0,0.0,0.0,0.0,0.0,0.0,0.0,0.0,0.0,0.0,0.0,0.0,0.0,0.0,0.0,0.0,0.0,0.0,0.0,0.0,0.0,0.0,0.0,0.0,0.0,0.0,0.0,0.0,0.0,0.0,0.0,0.0,0.0,0.0,0.0,0.0,0.0,0.0,0.0,0.0,0.0,0.0,0.0,0.0,0.0,0.0,0.0,0.0,0.0,0.0,0.0,0.0,0.0,0.0,0.0,0.0,0.0,0.0,0.0,0.0,0.0,0.0,0.0,0.0,0.0,0.0,0.0,0.0,0.0,0.0,0.0,0.0,0.0,0.0,0.0,0.0,0.0,0.0,0.0,0.0,0.0,0.0,0.0,0.0,0.0,0.0,0.0,0.0,0.0,0.0,0.0,0.0,0.0,0.0,0.0,0.0,0.0,0.0,0.0,0.0,0.0,0.0,0.0,0.0,0.0,0.0,0.0,0.0,0.0,0.0,0.0,0.0,0.0,0.0,0.0,0.0,0.0,0.0,0.0,0.0,0.0,0.0,0.0,0.0,0.0,0.0,0.0,0.0,0.0,0.0,0.0,0.0,0.0,0.0,0.0,0.0,0.0,0.0,0.0,0.0,0.0,0.0,0.0,0.0,0.0,0.0,0.0,0.0,0.0,0.0,0.0,0.0,0.0,0.0,0.0,0.0,0.0,0.0,0.0,0.0,0.0,0.0,0.0,0.0,0.0,0.0,0.0,0.0,0.0,0.0,0.0,-2.5476,0.0,0.0,0.0,0.0,0.0,0.0,0.0,0.0,0.0,0.0,0.0,0.0,0.0,0.0,0.0,0.0,0.0,0.0,0.0,0.0,0.0,0.0,0.0,0.0,0.0,0.0,0.0,0.0,0.0,0.0,0.0,0.0,0.0,0.0,0.0,0.0,0.0,0.0,0.0,-2.547,-2.5467,-2.5391,-2.5395,-2.5365,-2.5308,0.0,0.0,0.0,0.0,0.0,0.0,0.0,0.0,0.0,0.0,0.0,0.0,0.0,0.0,0.0,0.0,0.0,0.0,0.0,0.0,0.0,0.0,0.0,0.0,0.0,0.0,0.0,0.0,0.0,0.0,0.0,0.0,0.0,0.0,0.0,0.0,0.0,0.0,0.0,0.0,0.0,0.0,0.0,0.0,0.0,0.0,0.0,0.0,0.0,0.0,0.0,0.0,0.0,0.0,0.0,0.0,0.0,0.0,0.0,0.0,0.0,0.0,0.0,0.0,0.0,0.0,0.0,0.0,0.0,0.0,0.0,-2.5954,0.0,0.0,0.0,0.0,0.0,0.0,0.0,0.0,0.0,0.0,0.0,0.0,0.0,0.0,0.0,0.0,0.0,0.0,0.0,0.0,0.0,0.0,0.0,-2.5696,-2.5661,-2.5595,-2.5598,-2.5529,0.0,0.0,0.0,0.0,0.0,0.0,0.0,-2.545,-2.5418,-2.5308,-2.5403,-2.5436,-2.5386,-2.5327,-2.5308,-2.5308,-2.5308,0.0,0.0,0.0,0.0,0.0,0.0,0.0,0.0,0.0,0.0,0.0,0.0,0.0,0.0,0.0,0.0,0.0,0.0,0.0,0.0,0.0,0.0,0.0,0.0,0.0,0.0,0.0,0.0,0.0,0.0,0.0,0.0,0.0,0.0,0.0,0.0,0.0,0.0,0.0,0.0,0.0,0.0,0.0,0.0,0.0,0.0,0.0,0.0,0.0,0.0,0.0,0.0,0.0,0.0,0.0,0.0,0.0,0.0,0.0,0.0,0.0,0.0,0.0,-2.7135,-2.7135,-2.7135,-2.7119,-2.7168,-2.7266,-2.7137,-2.7039,-2.704,-2.7294,0.0,0.0,0.0,0.0,0.0,0.0,0.0,0.0,0.0,0.0,0.0,0.0,0.0,0.0,0.0,0.0,0.0,0.0,0.0,0.0,0.0,-2.5658,-2.5616,-2.5603,-2.5544,-2.5483,-2.5399,0.0,0.0,0.0,0.0,0.0,-2.5308,-2.5382,-2.5378,-2.5308,-2.5313,-2.5322,-2.5308,-2.5293,-2.5308,-2.5308,-2.5308,-2.5308,-2.5308,0.0,0.0,0.0,0.0,0.0,0.0,0.0,0.0,0.0,0.0,0.0,0.0,0.0,0.0,0.0,0.0,0.0,0.0,0.0,0.0,0.0,0.0,0.0,0.0,0.0,0.0,0.0,0.0,0.0,0.0,0.0,0.0,0.0,0.0,0.0,0.0,0.0,0.0,0.0,0.0,0.0,-2.7622,-2.7282,0.0,0.0,0.0,0.0,0.0,0.0,0.0,0.0,0.0,0.0,0.0,0.0,0.0,-2.7299,-2.7299,-2.7299,-2.7282,-2.7266,-2.7266,-2.7266,-2.7266,-2.7152,-2.7119,-2.7135,-2.7289,0.0,-2.7086,-2.7071,0.0,0.0,0.0,0.0,0.0,0.0,0.0,0.0,0.0,0.0,0.0,0.0,0.0,0.0,0.0,0.0,0.0,0.0,0.0,0.0,0.0,-2.5619,-2.5565,-2.5498,-2.5463,-2.543,-2.5359,-2.5335,0.0,0.0,0.0,-2.5331,-2.5308,-2.5331,-2.5331,-2.5308,-2.5308,-2.5308,-2.5308,-2.5308,-2.5308,-2.5308,-2.5308,-2.5308,-2.5308,-2.5308,0.0,0.0,0.0,0.0,0.0,0.0,0.0,0.0,0.0,0.0,0.0,0.0,0.0,0.0,0.0,0.0,0.0,0.0,0.0,0.0,0.0,0.0,0.0,0.0,0.0,0.0,0.0,0.0,0.0,0.0,0.0,0.0,0.0,0.0,0.0,0.0,0.0,0.0,0.0,-2.7886,-2.76,-2.7329,-2.7436,-2.7509,0.0,0.0,0.0,0.0,0.0,0.0,0.0,0.0,0.0,-2.7297,-2.7299,-2.7299,-2.7299,-2.7299,-2.7266,-2.7184,-2.7184,-2.7184,-2.7184,-2.7087,-2.7054,-2.7103,-2.7101,-2.7149,-2.7243,-2.7547,-2.7651,-2.7654,0.0,0.0,0.0,0.0,-2.8694,-2.8785,0.0,0.0,0.0,0.0,0.0,0.0,0.0,0.0,0.0,0.0,0.0,0.0,-2.5614,-2.5565,-2.551,-2.5403,-2.5371,-2.5348,-2.5293,-2.5308,-2.5308,-2.5308,-2.5308,-2.5308,-2.5308,-2.5308,-2.5308,-2.5308,-2.5308,-2.5308,-2.5308,-2.5308,-2.5308,-2.5308,-2.5308,-2.5308,-2.5308,-2.5308,-2.5308,-2.5308,0.0,0.0,0.0,0.0,0.0,0.0,0.0,0.0,0.0,0.0,0.0,0.0,0.0,0.0,0.0,0.0,0.0,0.0,0.0,0.0,0.0,0.0,0.0,0.0,0.0,0.0,0.0,0.0,0.0,0.0,0.0,0.0,0.0,0.0,0.0,0.0,0.0,-2.7786,-2.7672,-2.7345,-2.7542,-2.7672,0.0,0.0,0.0,0.0,0.0,0.0,-2.7526,-2.7554,-2.7511,-2.7315,-2.7376,-2.7509,-2.7716,-2.7776,-2.7861,-2.7971,-2.7971,-2.7971,-2.7971,-2.791,-2.7925,-2.7971,-2.7943,-2.8035,-2.821,-2.801,-2.7954,-2.7986,-2.8233,-2.8396,-2.8466,-2.8479,-2.8569,-2.8682,0.0,0.0,0.0,0.0,0.0,0.0,0.0,0.0,0.0,0.0,0.0,-2.5593,-2.5603,-2.5489,-2.5418,-2.5391,-2.533,-2.5293,-2.5308,-2.5308,-2.5308,-2.5308,-2.5308,-2.5308,-2.5308,-2.5308,-2.5308,-2.5308,-2.5308,-2.5308,-2.5308,-2.5308,-2.5308,-2.5308,-2.5308,-2.5308,-2.5308,-2.5308,-2.5308,-2.5308,-2.5308,0.0,0.0,0.0,0.0,0.0,0.0,0.0,0.0,0.0,0.0,0.0,0.0,0.0,0.0,0.0,0.0,0.0,0.0,0.0,0.0,0.0,0.0,0.0,0.0,0.0,0.0,0.0,0.0,0.0,0.0,0.0,0.0,0.0,0.0,0.0,0.0,0.0,0.0,-2.736,-2.7542,0.0,0.0,0.0,0.0,-2.8088,-2.8088,-2.8075,-2.8061,-2.7585,-2.7297,-2.7299,-2.7539,-2.8052,-2.88,-2.9068,-2.9587,-3.0329,-3.0329,-3.0329,-3.0329,-3.0329,-3.0329,-3.0344,-3.0585,-3.072,-3.0552,-2.8205,-2.7459,-2.7847,-2.8106,-2.8299,-2.8427,-2.8619,-2.8682,-2.8682,0.0,0.0,0.0,0.0,0.0,0.0,0.0,0.0,-2.5692,-2.571,-2.5648,-2.5574,-2.5539,-2.5457,-2.5386,-2.5345,-2.5308,-2.5308,-2.5308,-2.5308,-2.5308,-2.5308,-2.5308,-2.5308,-2.5308,-2.5308,-2.5308,-2.5308,-2.5308,-2.5596,-2.6135,-2.6135,-2.6135,-2.6135,-2.6135,-2.5827,-2.5308,-2.5308,-2.5308,-2.5308,-2.5308,-2.5308,0.0,0.0,0.0,0.0,0.0,0.0,0.0,0.0,0.0,0.0,0.0,0.0,0.0,0.0,0.0,0.0,0.0,0.0,0.0,0.0,0.0,0.0,0.0,0.0,0.0,0.0,0.0,0.0,0.0,0.0,0.0,0.0,0.0,0.0,0.0,0.0,0.0,-2.76,-2.7986,0.0,-2.76,-2.8083,-2.8334,-2.8116,-2.8308,-2.8537,-2.8862,-2.8905,-2.9052,-2.9354,-2.9444,-2.9642,-2.9941,-3.0011,-3.023,-3.0513,-3.0513,-3.0513,-3.0513,-3.0469,-3.0454,-3.0454,-3.0487,-3.0639,-3.076,-2.9869,-2.9408,-2.9165,-2.8693,-2.8551,-2.8607,-2.8669,-2.8669,-2.8637,0.0,0.0,0.0,0.0,0.0,0.0,0.0,0.0,-2.5684,-2.5676,-2.5605,-2.5537,-2.5476,-2.5418,-2.5359,-2.5293,-2.5308,-2.5308,-2.5308,-2.5308,-2.5308,-2.5308,-2.5308,-2.5308,-2.5308,-2.5308,-2.5442,-2.5731,-2.5731,-2.6173,-2.7044,-2.7044,-2.7044,-2.7044,-2.7044,-2.6544,-2.5731,-2.5731,-2.5577,-2.5308,-2.5308,-2.5308,-2.5308,0.0,0.0,0.0,0.0,0.0,0.0,0.0,0.0,0.0,0.0,0.0,0.0,0.0,0.0,0.0,0.0,0.0,0.0,0.0,0.0,0.0,0.0,0.0,0.0,0.0,0.0,0.0,0.0,0.0,0.0,0.0,0.0,0.0,0.0,0.0,-2.8268,-2.7869,-2.8286,-2.8499,-2.8255,-2.8694,-2.9032,-2.908,-2.9276,-2.9556,-2.9871,-2.9989,-3.0182,-3.0495,-3.06,-3.0801,-3.1071,-3.1156,-3.1339,-3.1624,-3.1624,-3.1624,-3.1624,-3.1564,-3.1549,-3.1535,-3.148,-3.1571,-3.1759,-3.146,-3.1138,-3.0724,-2.9884,-2.9544,-2.9544,-2.9544,-2.9524,-2.9473,0.0,0.0,0.0,0.0,0.0,0.0,0.0,-2.5694,-2.5679,-2.5607,-2.5539,-2.5476,-2.5418,-2.535,-2.5308,-2.5308,-2.5308,-2.5308,-2.5308,-2.5308,-2.5308,-2.5308,-2.5308,-2.5308,-2.5308,-2.5327,-2.575,-2.6601,-2.664,-2.7082,-2.7934,-2.7934,-2.7934,-2.7934,-2.7934,-2.7448,-2.664,-2.664,-2.6135,-2.5346,-2.5308,-2.5308,-2.5308,0.0,0.0,0.0,0.0,0.0,0.0,0.0,0.0,0.0,0.0,0.0,0.0,0.0,0.0,0.0,0.0,0.0,0.0,0.0,0.0,0.0,0.0,0.0,0.0,0.0,0.0,0.0,0.0,0.0,0.0,0.0,0.0,0.0,-2.8183,-2.862,-2.8779,-2.8219,-2.8453,-2.8843,-2.9301,-2.9656,-3.0173,-3.0948,-3.1003,-3.1021,-3.1039,-3.074,-3.0581,-3.0599,-3.092,-3.1456,-3.2254,-3.2519,-3.3041,-3.3844,-3.3844,-3.3844,-3.388,-3.3844,-3.3844,-3.3844,-3.3739,-3.3698,-3.3643,-3.2789,-3.2434,-3.2374,-3.1535,-3.1206,-3.1206,-3.1206,-3.1206,-3.1193,0.0,0.0,0.0,0.0,0.0,0.0,0.0,-2.5696,-2.5683,-2.5607,-2.5539,-2.5476,-2.5418,-2.535,-2.5308,-2.5308,-2.5308,-2.5308,-2.5308,-2.5308,-2.5308,-2.5308,-2.5308,-2.5308,-2.5308,-2.5923,-2.6365,-2.6601,-2.7236,-2.7953,-2.878,-2.878,-2.878,-2.878,-2.878,-2.8319,-2.7544,-2.7544,-2.7044,-2.6192,-2.5558,-2.5308,-2.5308,0.0,0.0,0.0,0.0,0.0,0.0,0.0,0.0,0.0,0.0,0.0,0.0,0.0,0.0,0.0,0.0,0.0,0.0,0.0,0.0,0.0,0.0,0.0,0.0,0.0,0.0,0.0,0.0,0.0,0.0,0.0,0.0,-2.8881,-2.8779,-2.8731,-2.8856,-2.9295,-2.9586,-2.9958,-3.0478,-3.0782,-3.1045,-3.1278,-3.1296,-3.1539,-3.2125,-3.2077,-3.2292,-3.2858,-3.2976,-3.3131,-3.3351,-3.3418,-3.3867,-3.4674,-3.4674,-3.5,-3.5587,-3.4949,-3.4674,-3.4637,-3.4018,-3.378,-3.3762,-3.351,-3.3423,-3.3263,-3.1775,-3.1206,-3.1206,-3.1206,-3.1167,-3.1114,0.0,0.0,0.0,0.0,0.0,0.0,0.0,-2.5697,-2.5661,-2.5563,-2.5524,-2.5467,-2.537,-2.5322,-2.5308,-2.5308,-2.5308,-2.5308,-2.5308,-2.5308,-2.5308,-2.5308,-2.5654,-2.5846,-2.5846,-2.6697,-2.7313,-2.764,-2.8145,-2.8838,-2.964,-2.964,-2.964,-2.964,-2.964,-2.9179,-2.8396,-2.8396,-2.7915,-2.7101,-2.6601,-2.5942,-2.5308,-2.5308,-2.6385,-2.7895,-2.7895,-2.8986,-3.0404,-3.0373,0.0,0.0,0.0,0.0,0.0,0.0,0.0,0.0,0.0,0.0,0.0,0.0,0.0,0.0,0.0,0.0,0.0,0.0,0.0,0.0,0.0,0.0,0.0,0.0,-2.921,-2.95,-2.95,-2.9375,-2.9581,-3.0383,-3.0601,-3.0968,-3.1599,-3.1809,-3.2045,-3.2375,-3.2412,-3.2761,-3.3555,-3.361,-3.3977,-3.4816,-3.4853,-3.4853,-3.4853,-3.4853,-3.5073,-3.5536,-3.5536,-3.5807,-3.6266,-3.5789,-3.5536,-3.5518,-3.5055,-3.4853,-3.4853,-3.4853,-3.4853,-3.4688,0.0,0.0,0.0,0.0,-3.225,-3.2188,0.0,0.0,0.0,0.0,0.0,0.0,0.0,-2.5697,-2.5658,-2.5521,-2.5501,-2.545,-2.5308,-2.5308,-2.5308,-2.5308,-2.5308,-2.5308,-2.5308,-2.5308,-2.5308,-2.5308,-2.6135,-2.6601,-2.6601,-2.7544,-2.8396,-2.9107,-2.9204,-2.964,-3.0404,-3.0404,-3.0404,-3.0404,-3.0404,-2.9967,-2.9242,-2.9242,-2.878,-2.8049,-2.8049,-2.7005,-2.5442,-2.5442,-2.6467,-2.7895,-2.7895,-2.8986,-3.0398,-3.0316,0.0,0.0,0.0,0.0,0.0,0.0,0.0,0.0,0.0,0.0,0.0,0.0,0.0,0.0,0.0,0.0,0.0,0.0,0.0,0.0,0.0,0.0,0.0,0.0,-2.9721,-3.0265,-3.0448,-3.0467,-3.0742,-3.1439,-3.1544,-3.1843,-3.2656,-3.2821,-3.317,-3.388,-3.4027,-3.4394,-3.5114,0.0,0.0,0.0,0.0,-3.6303,-3.6303,-3.6303,-3.634,-3.6431,-3.6431,-3.6468,-3.656,-3.6468,-3.6431,-3.6431,-3.634,-3.6303,-3.6303,-3.6303,-3.6303,-3.6138,-3.4559,-3.388,-3.3807,-3.3793,-3.3753,-3.3671,0.0,0.0,0.0,0.0,0.0,0.0,0.0,-2.57,-2.5644,-2.5521,-2.5501,-2.545,-2.5308,-2.5308,-2.5308,-2.5308,-2.5308,-2.5308,-2.5308,-2.5308,-2.5308,-2.5308,-2.6135,-2.6601,-2.6601,-2.8088,-2.8934,-2.9107,-2.9794,-3.0231,-3.0404,-3.0404,-3.0404,-3.0404,-3.0404,-3.0308,-3.0154,-3.0154,-2.966,-2.8876,-2.8876,-2.7852,-2.6351,-2.6351,-2.6986,-2.7895,-2.7895,-2.8986,-3.0398,-3.0316,-3.0304,-3.0298,-3.0305,-3.0292,0.0,0.0,0.0,0.0,0.0,0.0,0.0,0.0,0.0,0.0,0.0,0.0,0.0,0.0,0.0,0.0,0.0,0.0,0.0,-2.9861,-3.0099,-3.065,-3.194,-3.2142,-3.2179,-3.2344,-3.2375,-3.2687,-3.3495,-3.4142,-3.4601,-3.4766,-3.5422,-3.5881,-3.6046,-3.6046,-3.6138,-3.6285,-3.6303,-3.6303,-3.6303,-3.6303,-3.6615,-3.7272,0.0,0.0,-3.8212,-3.7551,-3.7272,-3.7235,-3.6593,-3.6303,-3.6303,-3.6303,-3.6303,-3.6193,-3.5169,-3.4362,-3.3775,-3.3739,-3.3671,-3.3619,0.0,0.0,0.0,0.0,0.0,0.0,0.0,-2.57,-2.5647,-2.5512,-2.5507,-2.545,-2.5308,-2.5308,-2.5308,-2.5308,-2.5308,-2.5308,-2.5308,-2.5308,-2.55,-2.5923,-2.6794,-2.7448,-2.7832,-2.9102,-2.9756,-2.9756,-3.0615,-3.1058,-3.1058,-3.1462,-3.1442,-3.1058,-3.1058,-3.0808,-3.0404,-3.0404,-3.0154,-2.9756,-2.9756,-2.8986,-2.7755,-2.6928,-2.714,-2.7895,-2.7895,-2.8698,-2.9808,-3.0183,-3.0299,-3.0292,-3.026,-3.0246,-3.0266,0.0,0.0,0.0,0.0,0.0,0.0,0.0,0.0,0.0,0.0,0.0,0.0,0.0,0.0,-2.9173,0.0,0.0,-2.9849,-3.0668,-3.1146,-3.1684,-3.2491,-3.3298,-3.3647,-3.3256,-3.3555,-3.3959,-3.4362,-3.5151,-3.5646,-3.5646,-3.6046,-3.6468,-3.6886,-3.6905,-3.7092,-3.7496,-3.7496,-3.7496,-3.7496,-3.7496,-3.7698,-3.8102,-3.8102,-3.8303,-3.8689,-3.8285,-3.8102,-3.8065,-3.7679,-3.7496,-3.7496,-3.7496,-3.7257,-3.6868,-3.6413,-3.5752,-3.5055,-3.5013,-3.4938,-3.4794,0.0,0.0,0.0,0.0,0.0,0.0,0.0,-2.5701,-2.5669,-2.5535,-2.5529,-2.547,-2.534,-2.5317,-2.5308,-2.5308,-2.5308,-2.5308,-2.5308,-2.5308,-2.5615,-2.6327,-2.7332,-2.8203,-2.8857,-2.9865,-3.0404,-3.0404,-3.1096,-3.1448,-3.1468,-3.2102,-3.2064,-3.1448,-3.1448,-3.1058,-3.0404,-3.0404,-3.0404,-3.0404,-3.0404,-2.9987,-2.9159,-2.7486,-2.7294,-2.7895,-2.7895,-2.8415,-2.9212,-3.0024,-3.0292,-3.0299,-3.0213,-3.0206,-3.0221,-3.0279,-3.0214,0.0,0.0,0.0,0.0,0.0,0.0,0.0,0.0,0.0,-2.9189,-2.923,-2.9225,-2.9482,-3.0283,-3.043,-3.0705,-3.1494,-3.2173,-3.2711,-3.3023,-3.4179,-3.4821,-3.4339,-3.4857,-3.5261,-3.5261,-3.6028,-3.6523,-3.6523,-3.667,-3.7037,-3.7713,-3.7731,-3.8028,-3.8689,-3.8707,-3.8707,-3.8707,-3.8707,-3.8707,-3.8707,-3.8707,-3.8707,-3.8707,-3.8707,-3.8707,-3.8707,-3.8707,-3.8707,-3.8707,-3.8707,-3.8322,-3.7731,-3.7731,-3.7331,-3.6725,-3.6413,-3.6223,-3.6003,0.0,0.0,0.0,0.0,0.0,0.0,0.0,0.0,-2.5674,-2.5595,-2.56,-2.5537,-2.5395,-2.5394,-2.5365,-2.5313,-2.5308,-2.5308,-2.5308,-2.5308,-2.5346,-2.5442,-2.7024,-2.7934,-2.803,-2.9596,-3.0404,-3.0404,-3.05,-3.0558,-3.0558,-3.0635,-3.0635,-3.0558,-3.0558,-3.05,-3.0404,-3.0404,-3.0404,-3.0404,-3.0404,-3.0346,-3.0077,-2.839,-2.7818,-2.7895,-2.7895,-2.8415,-2.9212,-3.0024,-3.0292,-3.0299,-3.0213,-3.0206,-3.0221,-3.0279,0.0,-3.0292,-3.0355,-3.003,0.0,-2.9289,-2.9175,-2.9089,0.0,0.0,-2.928,-2.9928,-3.0081,-3.032,-3.1109,-3.1268,-3.1531,-3.2326,-3.2546,-3.3096,-3.4527,-3.4894,-3.5243,-3.5936,-3.6101,-3.6156,-3.6156,-3.6905,-3.7364,-3.7364,-3.8028,-3.8469,-3.856,-3.8579,-3.8615,-3.8707,-3.8707,-3.8707,-3.8707,-3.8707,-3.8707,-3.8707,-3.8707,-3.8707,-3.8707,-3.8707,-3.8707,-3.8707,-3.8707,-3.8707,-3.8707,-3.8707,-3.8652,-3.8579,-3.8579,-3.8505,-3.8267,-3.6835,-3.6223,-3.6095,0.0,0.0,0.0,0.0,0.0,0.0,0.0,0.0,0.0,-2.5611,-2.5597,-2.5563,-2.547,-2.5418,-2.5374,-2.5317,-2.5308,-2.5308,-2.5308,-2.5308,-2.5538,-2.6038,-2.6755,-2.7601,-2.8588,-2.9275,-2.989,-3.0404,-3.0904,-3.1154,-3.1173,-3.1641,-3.1621,-3.1154,-3.1154,-3.0865,-3.0404,-3.0404,-3.0404,-3.0365,-2.9852,-2.964,-2.9467,-2.7775,-2.714,-2.714,-2.714,-2.7351,0.0,-2.9122,-2.9538,-2.9621,-3.0054,-3.02,-3.0202,-3.0286,-3.0235,0.0,-2.9869,0.0,0.0,0.0,-2.9462,-2.9789,-2.9754,-3.0134,-3.0575,-3.0846,-3.0889,-3.1146,-3.1953,-3.21,-3.2357,0.0,-3.3311,-3.3702,-3.4839,-3.5445,-3.6064,-3.6905,-3.7404,-3.7514,-3.7052,-3.7716,-3.8193,-3.8193,-3.8505,-3.8707,-3.8707,-3.8707,-3.8707,-3.8707,-3.8707,-3.8707,-3.8707,-3.8707,-3.8707,-3.8707,-3.8707,-3.8707,-3.8707,-3.8707,-3.8707,-3.8707,-3.8707,-3.8707,-3.8707,-3.8707,-3.8707,-3.8707,-3.8707,-3.8707,-3.8615,-3.7936,-3.7649,-3.7561,0.0,0.0,0.0,0.0,0.0,0.0,0.0,0.0,0.0,0.0,-2.5636,-2.5593,-2.5534,-2.545,-2.5386,-2.5336,-2.5303,-2.5308,-2.5308,-2.5308,-2.5577,-2.6212,-2.6467,-2.7178,-2.8376,-2.8646,-2.9083,-2.9712,-3.0564,-3.0987,-3.1006,-3.1833,-3.191,-3.1346,-3.1346,-3.0981,-3.0385,-3.0135,-3.0038,-2.9967,-2.9102,-2.878,-2.8607,-2.7159,-2.6601,-2.6601,-2.6601,-2.6601,-2.6841,-2.8476,-2.9033,-2.918,-2.9972,-3.0234,-3.0235,-3.0292,-3.0241,-3.009,-2.9624,0.0,0.0,-2.9492,-3.0017,-3.0606,-3.0606,-3.1054,-3.1526,-3.1709,-3.1733,-3.1971,-3.2779,-3.2931,-3.3128,-3.3715,-3.3807,-3.4156,-3.5206,-3.5899,-3.667,-3.7713,-3.834,-3.8469,-3.7896,-3.8358,-3.8707,-3.8707,-3.8707,-3.8707,-3.8707,-3.8707,-3.8707,-3.8707,-3.8707,-3.8707,-3.8707,-3.8707,-3.8707,-3.8707,-3.8707,-3.8707,-3.8707,-3.8707,-3.8707,-3.8707,-3.8707,-3.8707,-3.8707,-3.8707,-3.8707,-3.8707,-3.8707,-3.8707,-3.8707,-3.8707,-3.8707,-3.8615,0.0,0.0,0.0,0.0,0.0,0.0,0.0,0.0,0.0,0.0,0.0,0.0,0.0,-2.5483,-2.541,-2.5406,-2.5345,-2.5308,-2.5308,-2.5308,-2.5308,-2.5346,-2.6154,-2.6621,-2.6678,-2.7505,-2.7953,-2.7992,-2.878,-2.9184,-2.9204,-3.0063,-3.0462,-3.0442,-3.0442,-3.0423,-3.0346,-2.9506,-2.9146,-2.9069,-2.8261,-2.7934,-2.7838,-2.6948,-2.6601,-2.6601,-2.6601,-2.6601,-2.6865,-2.8524,-2.9094,-2.9242,-3.003,-3.0292,0.0,-3.0304,-3.0342,-3.0292,0.0,0.0,-3.0762,-3.0368,-3.0821,-3.1378,-3.1378,-3.1397,-3.1623,-3.2399,-3.2564,-3.2803,-3.3623,-3.3752,-3.377,-3.3807,-3.3807,-3.4376,-3.6028,-3.6266,-3.689,-3.8487,-3.8689,-3.8689,0.0,-3.8689,-3.8707,-3.8707,-3.8707,-3.8707,-3.8707,-3.8707,-3.8707,-3.8707,-3.8707,-3.8707,-3.8707,-3.8707,-3.8707,-3.8707,-3.8707,-3.8707,-3.8707,-3.8707,-3.8707,-3.8707,-3.8707,-3.8707,-3.8707,-3.8707,-3.8707,-3.8707,-3.8707,-3.8707,-3.8707,-3.8707,-3.8707,-3.8707,0.0,0.0,0.0,0.0,0.0,0.0,0.0,0.0,0.0,0.0,0.0,0.0,0.0,0.0,0.0,0.0,-2.5453,-2.5406,-2.537,-2.5365,-2.5359,-2.5308,-2.5577,-2.6,-2.6582,-2.689,-2.7313,-2.7895,-2.8165,-2.8299,-2.8319,-2.8602,-2.8736,-2.8736,-2.8736,-2.8736,-2.8717,-2.8434,-2.8299,-2.8222,-2.7371,-2.7044,-2.6948,-2.6077,-2.5731,-2.5731,0.0,-2.5731,-2.5995,-2.7679,-2.8244,-2.8474,-2.987,-3.0298,-3.031,-3.0348,-3.026,-3.0195,-3.0461,0.0,-3.08,-3.0978,-3.1654,-3.2243,-3.2223,-3.2614,-3.3073,-3.3348,-3.3443,-3.3542,-3.3831,-3.3855,-3.3855,-3.3855,-3.3815,-3.4394,-3.6064,-3.6303,-3.689,-3.8505,-3.8707,0.0,0.0,0.0,0.0,-3.8707,-3.8707,-3.8707,-3.8707,-3.8707,-3.8707,-3.8707,-3.8707,-3.8707,-3.8707,-3.8707,-3.8707,-3.8707,-3.8707,-3.8707,-3.8707,-3.8707,-3.8707,-3.8707,-3.8707,-3.8707,-3.8707,-3.8707,-3.8707,-3.8707,-3.8707,-3.8707,-3.8707,-3.8707,-3.8707,-3.8707,0.0,0.0,0.0,0.0,0.0,0.0,0.0,0.0,0.0,0.0,0.0,0.0,0.0,0.0,0.0,0.0,0.0,-2.5485,-2.5441,-2.5406,-2.5379,-2.5335,-2.5313,-2.5558,-2.6115,-2.6135,-2.6409,-2.6967,-2.7274,-2.7448,-2.7448,-2.7755,-2.7895,-2.7895,-2.7895,-2.7895,-2.7876,-2.7563,-2.7449,-2.7407,-2.6521,-2.6169,-2.6116,-2.5573,-2.533,0.0,-2.5327,-2.551,-2.5976,-2.7363,-2.7838,-2.8126,-2.9804,-3.0342,-3.0329,-3.0273,-3.0366,-3.0529,-3.0762,-3.118,-3.16,-3.1802,-3.2494,-3.3114,-3.3049,-3.322,-3.3366,-3.3366,-3.3257,-3.3155,-3.3155,-3.3377,-3.358,-3.358,-3.371,-3.4394,-3.6064,-3.6303,-3.689,-3.8505,-3.8707,-3.8707,0.0,0.0,0.0,-3.8707,-3.8707,-3.8707,-3.8707,-3.8707,-3.8707,-3.8707,-3.8707,-3.8707,-3.8707,-3.8707,-3.8707,-3.8707,-3.8707,-3.8707,-3.8707,-3.8707,-3.8707,-3.8707,-3.8707,-3.8707,-3.8707,-3.8707,-3.8707,-3.8707,-3.8707,-3.8707,-3.8707,-3.8707,-3.8707,-3.8707,0.0,0.0,0.0,0.0,0.0,0.0,0.0,0.0,0.0,0.0,0.0,0.0,0.0,0.0,0.0,0.0,0.0,0.0,-2.5515,-2.545,-2.542,-2.5406,-2.5348,-2.5303,-2.5303,-2.5303,-2.5303,-2.5303,-2.6135,-2.654,-2.6559,-2.7386,-2.7776,-2.7776,-2.7776,-2.7776,-2.7713,-2.6886,-2.6573,-2.6575,-2.5743,-2.5418,-2.5406,-2.5476,-2.5414,-2.5308,-2.5382,-2.5912,-2.6736,-2.7601,-2.7953,-2.8313,-2.9904,-3.0404,-3.0349,-3.0133,-3.0632,-3.1222,-3.091,-3.1926,-3.3048,-3.2828,-3.3342,-3.3876,-3.3773,-3.3159,-3.2596,-3.2585,-3.2156,-3.1804,0.0,0.0,-3.2962,-3.2999,-3.3413,-3.4339,-3.6064,-3.6303,-3.689,0.0,0.0,0.0,0.0,0.0,0.0,-3.8707,0.0,-3.8707,-3.8707,-3.8707,-3.8707,-3.8707,-3.8707,-3.8707,-3.8707,-3.8707,-3.8707,-3.8707,-3.8707,-3.8707,-3.8707,-3.8707,-3.8707,-3.8707,-3.8707,-3.8707,-3.8707,-3.8707,-3.8707,-3.8707,-3.8707,-3.8707,-3.8707,-3.8707,-3.8707,-3.8707,0.0,0.0,0.0,0.0,0.0,0.0,0.0,0.0,0.0,0.0,0.0,0.0,0.0,0.0,0.0,0.0,0.0,0.0,-2.558,-2.5568,-2.5526,-2.5485,-2.547,-2.5447,-2.5447,-2.5457,-2.545,-2.545,-2.5663,-2.5776,-2.5795,-2.6008,-2.6105,-2.6105,-2.6105,-2.6105,-2.6105,-2.5873,-2.579,-2.5787,-2.5554,-2.5476,-2.548,-2.5495,-2.5446,-2.5378,-2.5383,-2.5912,-2.6736,0.0,0.0,0.0,0.0,-3.0373,-3.0401,-3.0844,-3.1016,-3.1288,-3.2224,-3.2713,-3.3079,-3.3549,-3.3863,-3.3895,-3.3339,-3.2927,-3.2588,-3.2295,-3.204,-3.1923,0.0,0.0,0.0,-3.2982,-3.2988,0.0,-3.5973,-3.6303,0.0,-3.8505,0.0,-3.8707,-3.8707,-3.8707,0.0,0.0,-3.8707,-3.8707,-3.8707,-3.8707,-3.8707,-3.8707,-3.8707,-3.8707,-3.8707,-3.8707,-3.8707,-3.8707,-3.8707,-3.8707,-3.8707,-3.8707,-3.8707,-3.8707,-3.8707,-3.8707,-3.8707,-3.8707,-3.8707,-3.8707,-3.8707,-3.8707,-3.8707,-3.8707,-3.8707,-3.8707,0.0,0.0,0.0,0.0,0.0,0.0,0.0,0.0,0.0,0.0,0.0,0.0,0.0,0.0,0.0,0.0,0.0,0.0,0.0,-2.5624,-2.5588,-2.5549,-2.5515,-2.5493,-2.5502,-2.5496,-2.5507,-2.5501,-2.5501,-2.5501,-2.5501,-2.5501,-2.5501,-2.5501,-2.5501,-2.5501,-2.5501,-2.5501,-2.5518,0.0,0.0,-2.5539,-2.5544,-2.5585,-2.5526,-2.5482,-2.5889,-2.6739,0.0,0.0,0.0,-3.0404,-3.0404,-3.0617,-3.0925,-3.123,0.0,-3.2297,-3.3373,-3.3824,-3.4099,-3.4505,-3.4427,-3.4015,-3.322,-3.2463,-3.1848,-3.1617,-3.1299,0.0,0.0,0.0,0.0,0.0,0.0,0.0,-3.4963,-3.5844,-3.6762,0.0,-3.8487,0.0,-3.8707,-3.8707,-3.8707,0.0,-3.8707,-3.8707,-3.8707,-3.8707,-3.8707,-3.8707,-3.8707,-3.8707,-3.8707,-3.8707,-3.8707,-3.8707,-3.8707,-3.8707,-3.8707,-3.8707,-3.8707,-3.8707,-3.8707,-3.8707,-3.8707,-3.8707,-3.8707,-3.8707,-3.8707,-3.8707,-3.8707,-3.8707,-3.8707,-3.8707,0.0,0.0,0.0,0.0,0.0,0.0,0.0,0.0,0.0,0.0,0.0,0.0,0.0,0.0,0.0,0.0,0.0,0.0,0.0,0.0,-2.5607,-2.5607,-2.5556,-2.5526,-2.5532,-2.553,-2.5522,-2.5529,-2.5529,-2.5529,-2.5526,-2.5526,-2.5526,-2.5526,-2.5526,-2.5526,-2.5526,-2.5526,-2.5554,-2.5609,-2.5609,-2.5609,-2.5613,0.0,-2.5692,-2.5804,-2.6773,0.0,0.0,0.0,-3.0404,-3.0404,-3.0404,-3.0956,-3.1571,-3.1489,-3.2405,-3.3627,-3.4371,-3.4926,-3.5311,-3.5397,-3.489,-3.4124,-3.3201,-3.198,-3.0997,-3.0852,0.0,-3.0013,-3.0054,0.0,-3.0817,-3.0894,0.0,-3.28,-3.3678,-3.5238,-3.6597,-3.7401,-3.8212,-3.8707,-3.8707,-3.8707,-3.8707,-3.8707,-3.8707,-3.8707,-3.8707,-3.8707,-3.8707,-3.8707,-3.8707,-3.8707,-3.8707,-3.8707,-3.8707,-3.8707,-3.8707,-3.8707,-3.8707,-3.8707,-3.8707,-3.8707,-3.8707,-3.8707,-3.8707,-3.8707,-3.8707,-3.8707,-3.8707,-3.8707,-3.8707,-3.8707,-3.8707,-3.8707,0.0,0.0,0.0,0.0,0.0,0.0,0.0,0.0,0.0,0.0,-2.5703,-2.5703,0.0,0.0,0.0,0.0,0.0,0.0,0.0,0.0,0.0,-2.5683,-2.5661,-2.5677,-2.5677,-2.5674,-2.5669,-2.5663,-2.5663,-2.568,-2.5675,-2.5675,-2.5675,-2.5675,-2.5675,-2.5675,-2.5675,-2.5675,-2.5677,-2.5681,-2.5681,-2.5681,-2.5682,-2.5705,0.0,0.0,0.0,0.0,0.0,0.0,-3.0404,-3.0404,-3.0404,-3.0943,-3.168,-3.2161,-3.2959,-3.3986,-3.5165,-3.5113,-3.4854,-3.5361,-3.4853,-3.3925,-3.271,-3.2107,0.0,0.0,0.0,-3.0068,-3.0299,-3.023,0.0,-3.0827,0.0,0.0,0.0,0.0,-3.6597,0.0,0.0,0.0,0.0,0.0,0.0,0.0,0.0,-3.8707,-3.8707,-3.8707,-3.8707,-3.8707,-3.8707,-3.8707,-3.8707,-3.8707,-3.8707,-3.8707,-3.8707,-3.8707,-3.8707,-3.8707,-3.8707,-3.8707,-3.8707,0.0,-3.8707,-3.8707,-3.8707,-3.8707,-3.8707,-3.8707,-3.8707,-3.8707,-3.8707,-3.8707,0.0,0.0,0.0,0.0,0.0,0.0,0.0,-2.5703,-2.5703,-2.5703,-2.5703,-2.5703,-2.5703,-2.5703,0.0,0.0,0.0,0.0,0.0,0.0,0.0,0.0,0.0,0.0,-2.5702,-2.5702,-2.57,-2.5698,0.0,-2.5693,-2.5691,-2.5708,-2.5707,-2.5707,-2.5707,-2.5707,-2.5707,-2.5707,-2.5707,-2.5707,-2.5707,-2.5707,-2.5707,0.0,0.0,0.0,0.0,0.0,0.0,0.0,-3.0404,-3.0404,-3.0404,-3.1251,-3.2327,-3.2615,-3.3547,-3.47,-3.5731,-3.5698,-3.5455,-3.5743,-3.4883,-3.3723,-3.2686,0.0,0.0,0.0,-3.0273,-3.0254,-3.0386,0.0,0.0,0.0,0.0,0.0,0.0,0.0,0.0,0.0,0.0,0.0,0.0,0.0,0.0,0.0,0.0,-3.8707,-3.8707,-3.8707,-3.8707,-3.8707,-3.8707,-3.8707,-3.8707,-3.8707,-3.8707,-3.8707,-3.8707,-3.8707,-3.8707,-3.8707,-3.8707,-3.8707,-3.8707,-3.8707,-3.8707,-3.8707,-3.8707,-3.8707,-3.8707,-3.8707,-3.8723,-3.8851,-3.8925,-3.8921,0.0,0.0,0.0,0.0,0.0,0.0,0.0,-2.5703,-2.5703,-2.5703,-2.5703,-2.5703,-2.5703,-2.5703,-2.5703,0.0,0.0,0.0,0.0,0.0,0.0,0.0,0.0,0.0,0.0,0.0,0.0,0.0,-2.5698,0.0,0.0,0.0,0.0,0.0,-2.5707,-2.5707,-2.5707,-2.5707,-2.5707,0.0,0.0,-2.5707,0.0,0.0,0.0,0.0,0.0,0.0,0.0,0.0,-3.0404,-3.0404,-3.0404,-3.1424,-3.2679,-3.2852,-3.3856,-3.5106,-3.6058,-3.6121,-3.5884,-3.5836,-3.4774,-3.3506,-3.2562,-3.1447,0.0,0.0,-3.0404,-3.0404,-3.0404,0.0,0.0,0.0,0.0,0.0,0.0,0.0,0.0,0.0,0.0,0.0,0.0,0.0,0.0,0.0,0.0,-3.8719,-3.8719,-3.8719,-3.8719,-3.8735,-3.8735,-3.8735,-3.8735,-3.8735,-3.8735,-3.8735,-3.8735,-3.8735,-3.8735,-3.8735,-3.8735,-3.8735,-3.8738,-3.8719,-3.8719,-3.8707,-3.8719,-3.8795,-3.8795,-3.8807,-3.891,-3.9115,-3.9197,-3.9219,0.0,0.0,0.0,0.0,0.0,0.0,0.0,-2.5703,-2.5703,-2.5703,-2.5703,-2.5703,-2.5703,-2.5703,-2.5703,0.0,0.0,0.0,0.0,0.0,0.0,0.0,0.0,0.0,0.0,0.0,0.0,0.0,0.0,0.0,0.0,0.0,0.0,0.0,0.0,0.0,-2.5707,-2.5707,0.0,0.0,0.0,0.0,0.0,0.0,0.0,0.0,0.0,0.0,0.0,0.0,0.0,-3.0404,-3.0404,-3.1058,-3.1942,-3.2692,0.0,0.0,-3.6001,-3.5844,-3.523,-3.4984,-3.4254,-3.3238,-3.1825,0.0,0.0,-3.0528,-3.0404,-3.0404,-3.0404,-3.0373,-3.0273,0.0,0.0,-3.1367,0.0,0.0,0.0,0.0,0.0,0.0,0.0,0.0,0.0,0.0,-3.8765,-3.8792,-3.8792,-3.8792,-3.8822,-3.8881,-3.8881,-3.8881,-3.8881,-3.8881,-3.8881,-3.8881,-3.8881,-3.8881,-3.8881,-3.8881,-3.8881,-3.8881,-3.8822,-3.8792,0.0,-3.8738,-3.8837,-3.9059,-3.9059,-3.9205,-3.9439,-3.9446,-3.9458,-3.9477,0.0,0.0,0.0,0.0,0.0,0.0,-2.5703,-2.5703,-2.5703,-2.5703,-2.5703,-2.5703,-2.5703,-2.5703,-2.5703,-2.5703,0.0,0.0,0.0,0.0,0.0,0.0,0.0,0.0,0.0,0.0,-2.5703,-2.5703,-2.5703,0.0,0.0,0.0,0.0,0.0,0.0,0.0,0.0,0.0,0.0,0.0,0.0,0.0,0.0,0.0,0.0,0.0,0.0,0.0,0.0,0.0,0.0,0.0,-3.041,-3.0635,0.0,0.0,-3.2776,-3.3667,-3.4769,-3.4467,-3.3916,-3.4328,-3.3444,-3.2292,-3.1711,0.0,-3.0714,-3.0469,-3.0404,-3.0404,-3.0404,-3.0404,-3.0361,-3.026,-3.0395,0.0,0.0,0.0,0.0,0.0,0.0,0.0,0.0,0.0,0.0,0.0,-3.8822,-3.8881,-3.8925,-3.8877,-3.8862,-3.891,-3.891,-3.891,-3.891,-3.891,-3.891,-3.891,-3.891,-3.891,-3.891,-3.891,-3.891,-3.891,-3.8862,-3.8837,0.0,-3.8762,-3.8892,-3.9101,-3.9101,-3.9259,-3.9526,-3.9682,-3.9739,-3.9762,0.0,0.0,0.0,0.0,0.0,-2.5703,-2.5703,-2.5703,-2.5703,-2.5703,-2.5703,-2.5703,-2.5703,-2.5703,-2.5703,-2.5703,-2.5703,0.0,0.0,0.0,0.0,0.0,0.0,0.0,0.0,0.0,-2.5703,-2.5703,-2.5703,-2.5703,0.0,0.0,0.0,0.0,0.0,0.0,0.0,0.0,0.0,0.0,0.0,0.0,0.0,0.0,0.0,0.0,0.0,0.0,0.0,0.0,0.0,0.0,0.0,0.0,0.0,0.0,-3.2102,-3.2737,-3.3583,-3.3372,-3.2987,-3.3372,-3.2564,-3.1641,0.0,0.0,-3.0404,-3.0404,-3.0404,-3.0404,-3.0404,-3.0404,-3.0404,-3.0404,-3.0248,-3.0388,0.0,0.0,0.0,0.0,0.0,0.0,0.0,0.0,0.0,0.0,-3.8892,-3.895,-3.9021,-3.8979,-3.8964,-3.8964,-3.8964,-3.8964,-3.8964,-3.8964,-3.8964,-3.8964,-3.8964,-3.8964,-3.8964,-3.8964,-3.8989,-3.9073,-3.9045,-3.9041,0.0,-3.9036,-3.9173,-3.9364,-3.9364,-3.9525,-3.9788,-3.9988,-4.0039,-4.0049,0.0,0.0,0.0,0.0,0.0,0.0,-2.5703,-2.5703,-2.5703,-2.5703,-2.5703,-2.5703,-2.5703,-2.5703,-2.5703,-2.5703,-2.5703,0.0,0.0,0.0,0.0,0.0,0.0,0.0,0.0,0.0,-2.5703,-2.5703,-2.5703,-2.5703,-2.5702,-2.5701,-2.57,0.0,0.0,0.0,0.0,0.0,0.0,0.0,0.0,0.0,0.0,0.0,0.0,0.0,0.0,0.0,0.0,0.0,0.0,0.0,0.0,0.0,0.0,0.0,-3.1718,-3.1891,-3.2699,-3.291,-3.2718,-3.1929,-3.1718,-3.1468,0.0,0.0,-3.0404,-3.0404,-3.0404,-3.0404,-3.0404,-3.0404,-3.0404,-3.0404,-3.0404,0.0,0.0,0.0,0.0,0.0,0.0,0.0,0.0,0.0,0.0,0.0,-3.8993,0.0,-3.9101,-3.9101,-3.9101,-3.9101,-3.9101,-3.9101,-3.9101,-3.9101,-3.9101,-3.9101,-3.9101,-3.9101,-3.9101,-3.9101,-3.9245,-3.9502,-3.9427,-3.9501,0.0,-3.9611,-3.9754,-3.9983,-3.9983,-4.0139,-4.0379,-4.0379,-4.0362,-4.0307,0.0,0.0,0.0,0.0,0.0,0.0,0.0,-2.5703,-2.5703,-2.5703,-2.5703,-2.5703,-2.5703,-2.5703,-2.5703,-2.5703,-2.5703,0.0,0.0,0.0,0.0,0.0,0.0,0.0,0.0,0.0,-2.5703,-2.5703,-2.6309,-2.6582,-2.6601,-2.7206,-2.7479,-2.7479,-2.7477,0.0,0.0,0.0,0.0,0.0,0.0,0.0,0.0,0.0,0.0,0.0,0.0,0.0,0.0,0.0,0.0,0.0,0.0,0.0,0.0,-3.0727,-3.0806,0.0,-3.1852,-3.166,-3.1269,-3.1621,-3.125,-3.0731,-3.0462,0.0,-3.0404,-3.0404,-3.0404,-3.0404,-3.0404,-3.0404,-3.0404,-3.0404,-3.0404,0.0,0.0,0.0,0.0,0.0,0.0,0.0,0.0,0.0,0.0,-3.9264,-3.9311,-3.9421,-3.9559,-3.9571,-3.9433,-3.9115,-3.9101,-3.9101,-3.9101,-3.9101,-3.9101,-3.9101,-3.9285,-3.9357,-3.9389,-3.9507,-3.9618,-3.9705,-3.9683,-3.9675,-3.9698,-3.9687,-3.9797,-3.9993,-3.9993,-4.0167,-4.0407,-4.0407,-4.0398,-4.0362,0.0,0.0,0.0,0.0,0.0,0.0,0.0,-2.5703,-2.5703,-2.5703,-2.5703,-2.5703,-2.5703,-2.5703,-2.5703,-2.5703,-2.5703,0.0,0.0,0.0,0.0,0.0,0.0,0.0,-2.6172,-2.6191,-2.6348,-2.668,-2.7226,-2.748,-2.75,-2.8047,-2.83,-2.83,-2.8299,-2.8297,0.0,0.0,0.0,0.0,0.0,0.0,-2.969,0.0,0.0,0.0,0.0,0.0,0.0,0.0,0.0,0.0,0.0,0.0,0.0,0.0,-3.0389,-3.0519,0.0,-3.0808,-3.0538,-3.1077,-3.0808,0.0,0.0,0.0,-3.0404,-3.0404,-3.0404,-3.0404,-3.0404,-3.0404,-3.0404,-3.0404,-3.0404,0.0,0.0,0.0,0.0,0.0,0.0,0.0,0.0,0.0,0.0,-3.9272,-3.9427,-3.9537,-3.9683,-3.9754,-3.9664,-3.9377,-3.9279,-3.9245,-3.9245,-3.9137,-3.9137,-3.9259,-3.9427,-3.9544,-3.9621,-3.9731,-3.9851,-3.9953,-3.9953,-3.9973,0.0,-3.9994,-4.0072,-4.0185,-4.0185,-4.0295,-4.0447,-4.0447,-4.043,-4.0432,0.0,0.0,0.0,0.0,0.0,0.0,0.0,-2.5703,-2.5703,-2.5703,-2.5703,-2.5703,-2.5703,-2.5703,-2.5703,-2.5703,0.0,0.0,0.0,0.0,0.0,0.0,0.0,0.0,-2.707,-2.709,-2.748,-2.8301,-2.8359,-2.8398,-2.8398,-2.8457,-2.8476,-2.8476,-2.8476,-2.8475,-2.8433,-2.7626,-2.7742,-2.8487,-2.8482,-2.8968,0.0,0.0,0.0,0.0,0.0,0.0,0.0,0.0,0.0,0.0,0.0,0.0,0.0,0.0,0.0,0.0,0.0,-3.0404,0.0,0.0,0.0,0.0,0.0,0.0,0.0,-3.0404,-3.0404,-3.0404,-3.0404,-3.0404,-3.0404,-3.0404,0.0,0.0,0.0,0.0,0.0,0.0,0.0,0.0,0.0,0.0,-3.9115,-3.9129,-3.937,-3.9532,-3.9544,-3.9739,-3.9851,-3.9851,-3.9656,-3.9532,-3.952,-3.9266,-3.9266,-3.952,-3.9532,-3.9656,-3.9829,-3.984,-3.9983,0.0,-4.0223,-4.033,-4.0496,-4.0496,-4.0496,-4.0496,-4.0496,-4.0496,-4.0496,-4.0496,-4.0503,-4.0482,0.0,0.0,0.0,0.0,0.0,0.0,0.0,0.0,0.0,0.0,-2.5703,-2.5703,-2.5703,-2.5703,-2.5703,0.0,0.0,0.0,0.0,0.0,0.0,0.0,0.0,0.0,-2.7988,-2.7988,-2.8086,-2.8301,-2.8965,-2.9297,-2.9316,-2.998,-3.0293,-3.0293,-3.0293,-3.0292,-3.0271,-3.007,-3.0106,-3.0283,-3.0282,-3.0376,0.0,0.0,0.0,0.0,-3.0895,-3.0895,0.0,0.0,0.0,0.0,0.0,0.0,0.0,0.0,-3.0444,-3.0406,-3.0406,0.0,-3.0404,-3.0404,-3.0404,-3.0404,0.0,0.0,0.0,0.0,0.0,0.0,0.0,0.0,0.0,0.0,0.0,0.0,0.0,0.0,0.0,0.0,0.0,0.0,0.0,0.0,-3.9197,-3.9401,-3.9621,-3.9816,-4.0012,-4.0232,-4.0336,-4.0336,-4.0148,-3.9941,-3.972,-3.9664,-3.9664,-3.972,-3.9941,-4.0061,-4.012,-4.0267,-4.0381,-4.0433,-4.0433,-4.0457,-4.0496,-4.0496,-4.0496,-4.0496,-4.0496,-4.0496,-4.0496,-4.0496,-4.0508,-4.0492,0.0,0.0,0.0,0.0,0.0,0.0,0.0,0.0,0.0,0.0,0.0,0.0,0.0,0.0,0.0,0.0,0.0,0.0,0.0,0.0,0.0,0.0,0.0,-2.8008,-2.8887,-2.8906,-2.9082,-2.9492,-2.9961,-3.0195,-3.0215,-3.0684,-3.0898,-3.0898,-3.0898,-3.0898,-3.0877,-3.0463,-3.0539,-3.0868,-3.0458,0.0,0.0,0.0,0.0,0.0,-3.0896,-3.0897,0.0,-3.0898,-3.0855,-3.0796,0.0,0.0,0.0,0.0,-3.0471,-3.0458,-3.0458,-3.0419,-3.0404,-3.0404,-3.0404,-3.0404,0.0,0.0,0.0,0.0,0.0,0.0,0.0,0.0,0.0,0.0,0.0,0.0,0.0,0.0,0.0,0.0,0.0,0.0,0.0,0.0,-3.9298,-3.9311,-3.9728,-3.9983,-4.0022,-4.0319,-4.0496,-4.0496,-4.0389,-4.0223,-4.0002,-3.9851,-3.9861,-4.0002,-4.0129,-4.0251,-4.0339,-4.0457,-4.0496,-4.0496,-4.0496,-4.0496,-4.0496,-4.0496,-4.0496,-4.0496,-4.0496,-4.0496,-4.0496,-4.0496,-4.0496,-4.0508,0.0,0.0,0.0,0.0,0.0,0.0,0.0,0.0,0.0,0.0,0.0,0.0,0.0,0.0,0.0,0.0,0.0,0.0,0.0,0.0,0.0,0.0,-2.8105,-2.8906,-2.9785,-2.9805,-3.0156,-3.0898,-3.0898,-3.0898,-3.0898,-3.0898,-3.0898,-3.0898,-3.0897,-3.0896,-3.0857,-3.0114,-3.0228,-3.0849,-3.0108,0.0,0.0,0.0,0.0,0.0,0.0,0.0,0.0,-3.0898,-3.0857,-3.0803,-3.0732,0.0,0.0,0.0,0.0,0.0,-3.0504,-3.0461,-3.039,-3.039,-3.041,-3.0404,-3.0404,0.0,0.0,0.0,0.0,0.0,0.0,0.0,0.0,0.0,0.0,0.0,0.0,0.0,0.0,0.0,0.0,0.0,-3.8561,-3.9166,-3.9458,-3.9213,-3.9816,-4.0091,-3.9861,-4.0276,-4.0496,-4.0496,-4.0496,-4.0425,-4.0251,-4.0023,-4.0023,-4.0251,-4.0251,-4.033,-4.0496,-4.0496,-4.0496,-4.0496,-4.0496,-4.0496,-4.0496,-4.0496,-4.0496,-4.0496,-4.0496,-4.0496,-4.0496,-4.0496,-4.0496,-4.0508,0.0,0.0,0.0,0.0,0.0,0.0,0.0,0.0,0.0,0.0,0.0,0.0,0.0,0.0,0.0,0.0,0.0,0.0,0.0,0.0,0.0,-2.9199,-2.9336,-2.9805,-3.0684,-3.0703,-3.0762,-3.0898,-3.0898,-3.0898,-3.0898,-3.0898,-3.0898,-3.0897,-3.0893,-3.0892,-3.0895,-3.0758,-3.0775,-3.0889,-3.0758,0.0,0.0,0.0,0.0,0.0,0.0,0.0,0.0,-3.0898,-3.0898,-3.0877,-3.0804,0.0,0.0,0.0,0.0,0.0,-3.0509,-3.0458,-3.0406,-3.0406,-3.0408,-3.0404,-3.0404,0.0,0.0,0.0,0.0,0.0,0.0,0.0,0.0,0.0,0.0,0.0,0.0,0.0,0.0,0.0,0.0,0.0,-3.9814,-3.9815,-3.9731,-3.9698,-4.0012,-4.0177,-4.0139,-4.0364,-4.0496,-4.0496,-4.0496,-4.0481,-4.0457,-4.0414,-4.0414,-4.0457,-4.0457,-4.0473,-4.0496,-4.0496,-4.0496,-4.0496,-4.0496,-4.0496,-4.0496,-4.0496,-4.0496,-4.0496,-4.0496,-4.0496,-4.0496,-4.0496,-4.0496,-4.0496,0.0,0.0,0.0,0.0,0.0,0.0,0.0,0.0,0.0,0.0,0.0,0.0,0.0,0.0,0.0,0.0,0.0,0.0,0.0,0.0,-2.9805,-3.0273,-3.0293,-3.0488,-3.0898,-3.0898,-3.0898,-3.0898,-3.0898,-3.0898,-3.0898,-3.0898,-3.0898,-3.0898,-3.0897,-3.0896,-3.0896,-3.0897,-3.0896,-3.0892,0.0,0.0,0.0,0.0,0.0,0.0,0.0,0.0,0.0,0.0,-3.0898,-3.0898,-3.0827,0.0,0.0,0.0,0.0,0.0,-3.055,-3.0514,-3.0444,-3.0444,-3.0425,-3.0404,0.0,0.0,0.0,0.0,0.0,0.0,0.0,0.0,0.0,0.0,0.0,0.0,0.0,0.0,0.0,0.0,0.0,-3.8614,-4.0062,-4.0081,-3.9953,-3.9808,-4.0148,-4.0313,-4.0214,-4.0381,-4.0496,-4.0496,-4.0496,-4.0496,-4.0496,-4.0496,-4.0496,-4.0496,-4.0496,-4.0496,-4.0496,-4.0496,-4.0496,-4.0496,-4.0496,-4.0496,-4.0496,-4.0496,-4.0496,-4.0496,-4.0496,-4.0496,-4.0496,-4.0496,-4.0496,-4.0496,0.0,0.0,0.0,0.0,0.0,0.0,0.0,0.0,0.0,0.0,0.0,0.0,0.0,0.0,0.0,0.0,0.0,0.0,0.0,-2.9902,-3.0195,-3.0879,-3.0898,-3.0898,-3.0898,-3.0898,-3.0898,-3.0898,-3.0898,-3.0898,-3.0898,-3.0898,-3.0898,-3.0898,-3.0898,-3.0898,-3.0897,-3.0898,-3.0897,-3.0895,0.0,0.0,0.0,0.0,0.0,0.0,0.0,0.0,0.0,0.0,0.0,0.0,0.0,0.0,0.0,-3.0636,-3.0611,-3.0598,-3.0588,-3.054,-3.0509,-3.0474,-3.045,0.0,0.0,0.0,0.0,0.0,0.0,0.0,0.0,0.0,0.0,0.0,0.0,0.0,0.0,0.0,0.0,0.0,-3.9024,-3.8595,-4.0116,-4.0269,-4.0195,-3.9974,-4.0302,-4.0441,-4.0278,-4.0425,-4.0496,-4.0496,-4.0496,-4.0496,-4.0496,-4.0496,-4.0496,-4.0496,-4.0496,-4.0496,-4.0496,-4.0496,-4.0496,-4.0496,-4.0496,-4.0496,-4.0496,-4.0496,-4.0496,-4.0496,-4.0496,-4.0496,-4.0496,-4.0496,-4.0496,-4.0496,0.0,0.0,0.0,0.0,0.0,0.0,0.0,0.0,0.0,0.0,0.0,0.0,0.0,0.0,0.0,0.0,0.0,0.0,0.0,-3.0801,-3.082,-3.0898,-3.0898,-3.0898,-3.0898,-3.0898,-3.0898,-3.0898,-3.0898,-3.0898,-3.0898,-3.0898,-3.0897,-3.0897,-3.0896,-3.0895,-3.0895,-3.0897,-3.0896,-3.0895,-3.0898,0.0,0.0,0.0,0.0,0.0,0.0,0.0,0.0,0.0,0.0,0.0,0.0,0.0,-3.0709,-3.0684,-3.0655,-3.0593,-3.0525,-3.0496,-3.0481,-3.0414,-3.0389,0.0,-3.0404,-3.0404,0.0,-3.0404,0.0,0.0,0.0,0.0,0.0,0.0,0.0,0.0,0.0,0.0,0.0,-4.04,-3.9712,-3.9512,-4.0385,-4.0481,-4.0473,-4.0438,-4.0481,-4.0489,-4.0481,-4.0489,-4.0496,-4.0496,-4.0496,-4.0496,-4.0496,-4.0496,-4.0496,-4.0496,-4.0496,-4.0496,-4.0496,-4.0496,-4.0496,-4.0496,-4.0496,-4.0496,-4.0496,-4.0496,-4.0496,-4.0496,-4.0496,-4.0496,-4.0496,-4.0496,-4.0496,-4.0496,0.0,0.0,0.0,0.0,0.0,0.0,0.0,0.0,0.0,0.0,0.0,0.0,0.0,0.0,0.0,0.0,0.0,0.0,0.0,-3.0898,-3.0898,-3.0898,-3.0898,-3.0898,-3.0898,-3.0898,-3.0898,-3.0898,-3.0898,-3.0898,-3.0898,-3.0898,-3.0898,-3.0898,-3.0898,-3.0898,-3.0898,-3.0898,-3.0898,-3.0898,-3.0898,-3.0898,0.0,0.0,0.0,0.0,0.0,0.0,0.0,0.0,-3.0898,-3.0898,-3.0898,-3.0832,-3.0765,-3.0765,-3.07,-3.0587,-3.0575,-3.053,-3.049,-3.0469,-3.0425,0.0,0.0,-3.0404,-3.0404,-3.0404,-3.0404,0.0,0.0,0.0,0.0,0.0,0.0,0.0,0.0,0.0,-3.9611,-4.04,-3.9785,-3.9631,-4.0419,-4.0496,-4.0496,-4.0496,-4.0496,-4.0496,-4.0496,-4.0496,-4.0496,-4.0496,-4.0496,-4.0496,-4.0496,-4.0496,-4.0496,-4.0496,-4.0496,-4.0496,-4.0496,-4.0496,-4.0496,-4.0496,-4.0496,-4.0496,-4.0496,-4.0496,-4.0496,-4.0496,-4.0496,-4.0496,-4.0496,-4.0496,-4.0496,-4.0496,0.0,0.0,0.0,0.0,0.0,0.0,0.0,0.0,0.0,0.0,0.0,0.0,0.0,0.0,0.0,0.0,0.0,0.0,-3.0898,-3.0898,-3.0898,-3.0898,-3.0898,-3.0898,-3.0898,-3.0898,-3.0898,-3.0898,-3.0898,-3.0898,-3.0898,-3.0898,-3.0898,-3.0898,-3.0898,-3.0898,-3.0898,-3.0898,-3.0898,-3.0898,-3.0898,-3.0898,0.0,0.0,0.0,0.0,0.0,0.0,0.0,0.0,-3.0898,-3.0898,-3.0898,-3.0855,-3.0799,-3.0771,-3.0694,-3.0598,-3.0572,-3.053,-3.0479,-3.0469,0.0,0.0,-3.0404,-3.0404,-3.0404,-3.0404,-3.0615,0.0,0.0,0.0,0.0,0.0,0.0,0.0,0.0,-3.9688,-3.9881,-4.0439,-4.0015,-3.99,-4.0458,-4.0496,-4.0496,-4.0496,-4.0496,-4.0496,-4.0496,-4.0496,-4.0496,-4.0496,-4.0496,-4.0496,-4.0496,-4.0496,-4.0496,-4.0496,-4.0496,-4.0496,-4.0496,-4.0496,-4.0496,-4.0496,-4.0496,-4.0496,-4.0496,-4.0496,-4.0496,-4.0496,-4.0496,-4.0496,-4.0496,-4.0496,-4.0496,-4.0496,0.0,0.0,0.0,0.0,0.0,0.0,0.0,0.0,0.0,0.0,0.0,0.0,0.0,0.0,0.0,0.0,0.0,0.0,-3.0898,-3.0898,-3.0898,-3.0898,-3.0898,-3.0898,-3.0898,-3.0898,-3.0898,-3.0898,-3.0898,-3.0898,-3.0898,-3.0898,-3.0898,-3.0898,-3.0898,-3.0898,-3.0898,-3.0898,-3.0898,-3.0898,-3.0898,-3.0898,-3.0898,0.0,0.0,0.0,0.0,0.0,0.0,0.0,-3.0898,-3.0898,-3.0898,-3.0855,-3.0796,-3.0724,-3.0658,-3.0583,-3.053,-3.05,-3.0474,0.0,0.0,0.0,-3.039,-3.0404,-3.0404,-3.0404,0.0,-3.1948,0.0,0.0,0.0,0.0,0.0,0.0,-4.0265,-4.0496,-4.0496,-4.0496,-4.0496,-4.0496,-4.0496,-4.0496,-4.0496,-4.0496,-4.0496,-4.0496,-4.0496,-4.0496,-4.0496,-4.0496,-4.0496,-4.0496,-4.0496,-4.0496,-4.0496,-4.0496,-4.0496,-4.0496,-4.0496,-4.0496,-4.0496,-4.0496,-4.0496,-4.0496,-4.0496,-4.0496,-4.0496,-4.0496,-4.0496,-4.0496,-4.0496,-4.0496,-4.0496,-4.0496,0.0,0.0,0.0,0.0,0.0,0.0,0.0,0.0,0.0,0.0,0.0,0.0,0.0,0.0,0.0,0.0,0.0,0.0,-3.0898,-3.0898,-3.0898,-3.0898,-3.0898,-3.0898,-3.0898,-3.0898,-3.0898,-3.0898,-3.0898,-3.0898,-3.0898,-3.0898,-3.0898,-3.0898,-3.0898,-3.0898,-3.0898,-3.0898,-3.0898,-3.0898,-3.0898,-3.0898,-3.0898,0.0,0.0,0.0,0.0,0.0,0.0,0.0,0.0,0.0,-3.0898,-3.0898,-3.0877,-3.0854,-3.0764,-3.0681,-3.0694,-3.0618,0.0,0.0,0.0,0.0,0.0,-3.0404,0.0,0.0,0.0,0.0,0.0,0.0,0.0,-3.7238,-3.7834,-3.8584,-4.0265,-4.0496,-4.0496,-4.0496,-4.0496,-4.0496,-4.0496,-4.0496,-4.0496,-4.0496,-4.0496,-4.0496,-4.0496,-4.0496,-4.0496,-4.0496,-4.0496,-4.0496,-4.0496,-4.0496,-4.0496,-4.0496,-4.0496,-4.0496,-4.0496,-4.0496,-4.0496,-4.0496,-4.0496,-4.0496,-4.0496,-4.0496,-4.0496,-4.0496,-4.0496,-4.0496,-4.0496,-4.0496,-4.0496,-4.0496,0.0,0.0,0.0,0.0,0.0,0.0,0.0,0.0,0.0,0.0,-3.0878,0.0,0.0,0.0,0.0,0.0,0.0,0.0,0.0,-3.0898,-3.0898,-3.0898,-3.0898,-3.0898,-3.0898,-3.0898,-3.0898,-3.0898,-3.0898,-3.0898,-3.0898,-3.0898,-3.0898,-3.0898,-3.0898,-3.0898,-3.0898,-3.0898,-3.0898,-3.0898,-3.0898,-3.0898,-3.0898,0.0,0.0,0.0,0.0,0.0,0.0,0.0,0.0,0.0,-3.0898,-3.0898,-3.0898,-3.083,-3.0739,-3.0667,-3.0642,0.0,0.0,0.0,0.0,0.0,0.0,0.0,0.0,0.0,0.0,0.0,0.0,-3.4718,0.0,-3.718,-3.7777,-3.8469,-3.9823,-4.0304,-4.0496,-4.0496,-4.0496,-4.0496,-4.0496,-4.0496,-4.0496,-4.0496,-4.0496,-4.0496,-4.0496,-4.0496,-4.0496,-4.0496,-4.0496,-4.0496,-4.0496,-4.0496,-4.0496,-4.0496,-4.0496,-4.0496,-4.0496,-4.0496,-4.0496,-4.0496,-4.0496,-4.0496,-4.0496,-4.0496,-4.0496,-4.0496,-4.0496,-4.0496,-4.0496,-4.0496,-4.0496,-4.0496,0.0,0.0,0.0,0.0,0.0,0.0,0.0,0.0,0.0,0.0,-3.0898,-3.0898,0.0,0.0,0.0,0.0,0.0,0.0,0.0,-3.0898,-3.0898,-3.0898,-3.0898,-3.0898,-3.0898,-3.0898,-3.0898,-3.0898,-3.0898,-3.0898,-3.0898,-3.0898,-3.0898,-3.0898,-3.0898,-3.0898,-3.0898,-3.0898,-3.0898,-3.0898,-3.0898,-3.0898,-3.0898,-3.0898,0.0,0.0,0.0,0.0,0.0,0.0,0.0,0.0,-3.0898,-3.0898,-3.0877,-3.0751,-3.0667,-3.0578,-3.0467,0.0,0.0,0.0,0.0,0.0,0.0,0.0,0.0,0.0,0.0,0.0,0.0,-3.5494,-3.5771,-3.6579,-3.7382,-3.8204,-3.909,-3.9899,-4.04,-4.04,-4.0484,-4.0542,-4.0542,-4.0542,-4.0542,-4.0542,-4.0542,-4.0515,-4.0519,-4.0519,-4.0512,-4.0496,-4.0496,-4.0496,-4.0496,-4.0496,-4.0496,-4.0496,-4.0496,-4.0496,-4.0496,-4.0496,-4.0496,-4.0496,-4.0496,-4.0496,-4.0496,-4.0496,-4.0496,-4.0496,-4.0496,-4.0496,-4.0496,-4.0496,-4.0496,-4.0496,0.0,0.0,0.0,0.0,0.0,0.0,0.0,0.0,0.0,0.0,0.0,0.0,0.0,0.0,0.0,0.0,0.0,0.0,0.0,-3.0898,-3.0898,-3.0898,-3.0898,-3.0898,-3.0898,-3.0898,-3.0898,-3.0898,-3.0898,-3.0898,-3.0898,-3.0898,-3.0898,-3.0898,-3.0898,-3.0898,-3.0898,-3.0898,-3.0898,-3.0898,-3.0898,-3.0898,-3.0898,-3.0898,-3.0898,0.0,0.0,0.0,0.0,0.0,0.0,0.0,-3.0898,-3.0898,-3.0898,-3.0876,-3.0767,-3.0664,0.0,-3.0517,0.0,0.0,0.0,0.0,0.0,0.0,0.0,0.0,0.0,0.0,0.0,-3.5534,-3.5858,-3.6727,-3.7052,-3.7531,-3.8398,-3.9217,-3.9726,-3.9726,-4.0313,-4.074,-4.074,-4.074,-4.074,-4.074,-4.074,-4.0701,-4.0662,-4.0655,-4.0602,-4.0496,-4.0496,-4.0496,-4.0496,-4.0496,-4.0496,-4.0496,-4.0496,-4.0496,-4.0496,-4.0496,-4.0496,-4.0496,-4.0496,-4.0496,-4.0496,-4.0496,-4.0496,-4.0496,-4.0496,-4.0496,-4.0496,-4.0496,-4.0496,-4.0496,0.0,0.0,0.0,0.0,0.0,0.0,0.0,0.0,0.0,0.0,0.0,0.0,0.0,0.0,0.0,0.0,0.0,0.0,0.0,0.0,-3.0898,-3.0898,-3.0898,-3.0898,-3.0898,-3.0898,-3.0898,-3.0898,-3.1328,-3.1309,-3.0898,-3.0898,-3.0898,-3.0918,-3.1348,-3.1523,-3.1543,-3.1934,-3.1875,-3.1523,-3.1523,-3.1269,-3.0898,-3.0898,-3.0898,-3.0898,-3.0898,0.0,0.0,0.0,0.0,0.0,0.0,0.0,-3.0898,-3.0816,-3.0757,-3.0683,0.0,0.0,0.0,0.0,0.0,0.0,0.0,0.0,0.0,0.0,0.0,0.0,0.0,-3.5625,-3.58,-3.6241,-3.6692,-3.7165,-3.7612,-3.8408,-3.8932,-3.8932,-3.9325,-3.9752,-4.0145,-4.0184,-4.0339,-4.0771,-4.081,-4.0786,-4.0749,-4.0743,-4.0715,-4.0649,-4.0649,-4.0649,-4.0649,-4.0649,-4.0649,-4.0649,-4.0649,-4.0649,-4.0642,-4.0545,-4.0496,-4.0496,-4.0496,-4.0496,-4.0496,-4.0496,-4.0496,-4.0496,-4.0496,-4.0496,-4.0496,-4.0496,-4.0496,-4.0496,0.0,0.0,0.0,0.0,0.0,0.0,0.0,0.0,0.0,0.0,0.0,0.0,0.0,0.0,0.0,0.0,0.0,0.0,0.0,0.0,0.0,-3.0898,-3.0898,-3.0898,-3.0898,-3.0898,-3.0976,-3.1113,-3.1855,-3.1894,-3.1328,-3.1328,-3.1328,-3.1367,-3.209,-3.2402,-3.2441,-3.3125,-3.3027,-3.2402,-3.2402,-3.1973,-3.1328,-3.1172,-3.1113,-3.1094,-3.0957,-3.0898,-3.0898,-3.0898,0.0,0.0,0.0,0.0,-3.0879,-3.0769,-3.072,-3.0686,0.0,0.0,0.0,0.0,0.0,0.0,0.0,0.0,0.0,0.0,0.0,0.0,0.0,-3.5729,-3.5741,-3.5741,-3.6351,-3.6822,-3.6822,-3.758,-3.812,-3.812,-3.826,-3.861,-3.928,-3.9338,-3.963,-4.0368,-4.0544,-4.0617,-4.06,-4.0755,-4.0824,-4.081,-4.081,-4.081,-4.081,-4.081,-4.081,-4.081,-4.081,-4.081,-4.0786,-4.063,-4.0545,-4.0534,-4.0534,-4.0519,-4.0496,-4.0496,-4.0496,-4.0496,-4.0496,-4.0496,-4.0496,-4.0496,-4.0496,-4.0496,0.0,0.0,0.0,0.0,0.0,0.0,0.0,0.0,0.0,0.0,0.0,0.0,0.0,0.0,0.0,0.0,0.0,0.0,0.0,0.0,0.0,-3.0898,-3.0898,-3.0898,-3.0898,-3.0898,-3.1269,-3.2031,-3.2148,-3.25,-3.3066,-3.3066,-3.3066,-3.3066,-3.3184,-3.3242,-3.3242,-3.3359,-3.334,-3.3242,-3.3242,-3.3164,-3.2988,-3.2285,-3.2031,-3.1934,-3.1172,-3.0898,-3.0898,-3.0898,-3.0898,0.0,0.0,0.0,-3.0898,-3.0879,-3.0793,-3.0693,0.0,0.0,0.0,0.0,0.0,0.0,0.0,0.0,0.0,0.0,0.0,0.0,-3.5698,-3.5797,-3.5878,-3.5878,-3.6014,-3.6134,-3.6134,-3.6875,-3.7423,-3.7423,-3.8106,-3.8596,-3.8713,-3.8713,-3.8772,-3.8889,-3.9531,-3.9904,-3.9851,-4.0568,-4.0929,-4.0791,-4.081,-4.081,-4.081,-4.081,-4.081,-4.081,-4.081,-4.081,-4.081,-4.0762,-4.0732,-4.0668,-4.0668,-4.0602,-4.0496,-4.0496,-4.0496,-4.0496,-4.0496,-4.0496,-4.0496,-4.0496,-4.0496,-4.0496,0.0,0.0,0.0,0.0,0.0,0.0,0.0,0.0,0.0,0.0,0.0,0.0,0.0,0.0,0.0,0.0,0.0,0.0,0.0,0.0,0.0,-3.0898,-3.0898,-3.0898,-3.0898,-3.0898,-3.1328,-3.2207,-3.2656,-3.3301,-3.4141,-3.4629,-3.4336,-3.3418,-3.3906,-3.4121,-3.416,-3.4648,-3.457,-3.4121,-3.4121,-3.3847,-3.3359,-3.3008,-3.2871,-3.2812,-3.2441,-3.2012,-3.1621,-3.1621,-3.1309,-3.0898,-3.0898,0.0,0.0,0.0,0.0,0.0,0.0,0.0,0.0,0.0,0.0,0.0,0.0,0.0,0.0,0.0,0.0,0.0,-3.5682,-3.5916,-3.5968,-3.5968,-3.5983,-3.5992,-3.5992,-3.6324,-3.6578,-3.6578,-3.6911,-3.734,-3.783,-3.7869,-3.8064,-3.8552,-3.8923,-3.911,-3.9093,-3.9442,-3.9626,-3.9563,-3.9561,-3.9561,-3.9561,-4.0009,-4.0479,-4.0967,-4.0967,-4.0967,-4.0967,-4.0967,-4.0887,-4.0759,-4.0759,-4.0692,-4.0609,-4.0609,-4.0579,-4.0496,-4.0496,-4.0496,-4.0496,-4.0496,-4.0496,-4.0496,0.0,0.0,0.0,0.0,0.0,0.0,0.0,0.0,0.0,0.0,0.0,0.0,0.0,0.0,0.0,0.0,0.0,0.0,0.0,0.0,0.0,-3.123,-3.123,-3.1133,-3.0898,-3.0898,-3.1426,-3.25,-3.3105,-3.3965,-3.5039,-3.5703,-3.5312,-3.4082,-3.4746,-3.5039,-3.5078,-3.5723,-3.5625,-3.5039,-3.5039,-3.4648,-3.4042,-3.3808,-3.373,-3.369,-3.3476,-3.3008,-3.25,-3.25,-3.207,-3.1543,-3.1543,-3.1543,0.0,0.0,0.0,0.0,0.0,0.0,0.0,0.0,0.0,0.0,0.0,0.0,0.0,0.0,0.0,-3.4197,-3.5719,-3.5817,-3.5738,-3.5953,-3.5992,-3.5992,-3.5992,-3.5992,-3.5992,-3.5992,-3.5992,-3.6265,-3.6911,-3.697,-3.7243,-3.7888,-3.8142,-3.8279,-3.8279,-3.8474,-3.8591,-3.8591,-3.8591,-3.8591,-3.8591,-3.9198,-3.9939,-4.0798,-4.0801,-4.0897,-4.1109,-4.1091,-4.1018,-4.0879,-4.0855,-4.0791,-4.0723,-4.0723,-4.0668,-4.0575,-4.0575,-4.0574,-4.0557,-4.0557,-4.0534,-4.0496,0.0,0.0,0.0,0.0,0.0,0.0,0.0,0.0,0.0,0.0,0.0,0.0,-3.3262,-3.3262,-3.3262,-3.3262,-3.3262,0.0,0.0,0.0,0.0,-3.2168,-3.2129,0.0,-3.0918,-3.0898,-3.1699,-3.334,-3.3379,-3.4277,-3.5937,-3.5976,-3.5957,-3.5879,-3.5918,-3.5937,-3.5937,-3.5976,-3.5976,-3.5937,-3.5937,-3.5917,-3.576,-3.4957,-3.4626,-3.451,-3.371,-3.3379,-3.334,-3.334,-3.3301,-3.3262,-3.3262,0.0,0.0,0.0,0.0,0.0,0.0,0.0,0.0,0.0,0.0,0.0,0.0,0.0,0.0,0.0,0.0,-3.4901,-3.5836,-3.533,-3.5037,-3.5875,-3.5992,-3.5992,-3.5992,-3.5992,-3.5992,-3.5992,-3.5992,-3.6012,-3.6051,-3.607,-3.609,-3.6129,-3.6891,-3.7379,-3.7379,-3.8142,-3.8591,-3.8591,-3.8591,-3.8591,-3.8591,-3.8637,-3.9106,-3.9964,-3.9951,-4.0359,-4.1109,-4.1095,-4.1094,-4.1081,-4.1014,-4.0926,-4.0781,-4.0781,-4.0796,-4.0772,-4.0772,-4.0749,-4.0687,-4.0687,-4.0602,-4.0496,0.0,0.0,0.0,0.0,0.0,0.0,0.0,0.0,0.0,0.0,0.0,0.0,0.0,-3.3398,-3.3398,-3.3398,-3.3398,0.0,0.0,0.0,0.0,-3.2988,-3.2969,-3.2812,-3.2519,-3.25,-3.3066,-3.4238,-3.4238,-3.4844,-3.5996,-3.5996,-3.5996,-3.5996,-3.5996,-3.5996,-3.5996,-3.5996,0.0,0.0,0.0,0.0,0.0,0.0,0.0,0.0,0.0,0.0,0.0,0.0,0.0,0.0,0.0,0.0,0.0,0.0,0.0,0.0,0.0,0.0,0.0,0.0,0.0,0.0,0.0,0.0,0.0,0.0,0.0,-3.4139,-3.4998,-3.5369,-3.5641,-3.5953,-3.5992,-3.5992,-3.5992,-3.5992,-3.5992,-3.5992,-3.5992,-3.5992,-3.5992,-3.5992,-3.5992,-3.5992,-3.6285,-3.6461,-3.6461,-3.6755,-3.6931,-3.6931,-3.6931,-3.7204,-3.775,-3.7773,-3.8206,-3.9069,-3.9071,-3.9519,-4.0334,-4.032,-4.0611,-4.1108,-4.106,-4.1005,-4.0933,-4.0933,-4.0882,-4.081,-4.081,-4.0786,-4.0756,-4.0756,-4.0717,-4.0622,0.0,0.0,0.0,0.0,0.0,0.0,0.0,0.0,0.0,-3.4238,0.0,0.0,0.0,0.0,-3.4277,-3.4277,-3.4277,-3.4277,-3.4277,-3.4277,-3.4141,-3.3848,-3.3848,-3.3691,-3.3418,-3.3144,-3.3555,-3.4707,-3.4414,-3.4863,-3.5996,-3.5996,-3.5996,-3.5996,-3.5996,-3.5996,0.0,0.0,0.0,-3.5996,0.0,0.0,-3.5992,0.0,0.0,0.0,0.0,0.0,0.0,0.0,0.0,0.0,0.0,0.0,0.0,0.0,0.0,0.0,0.0,0.0,0.0,0.0,0.0,0.0,0.0,0.0,0.0,0.0,0.0,-3.445,-3.5037,-3.5602,-3.5992,-3.5992,-3.5992,-3.5992,-3.5992,-3.5992,-3.5992,-3.5992,-3.5992,-3.5992,-3.5992,-3.5995,-3.5996,-3.5996,-3.5999,-3.6,-3.6,-3.6,-3.6,-3.6,-3.6,-3.6273,-3.686,-3.686,-3.7291,-3.8153,-3.8156,-3.8624,-3.9461,-3.9779,-4.0187,-4.0706,-4.0981,-4.1062,-4.1025,-4.1025,-4.098,-4.0901,-4.0901,-4.0883,-4.0874,-4.0874,-4.0815,-4.0721,0.0,0.0,0.0,0.0,0.0,0.0,0.0,0.0,-3.5039,-3.5898,0.0,0.0,0.0,0.0,0.0,-3.5996,-3.5996,-3.5996,-3.5996,-3.5996,-3.5625,-3.4785,0.0,0.0,-3.3496,-3.2715,-3.3105,-3.4746,-3.3887,-3.4336,-3.5996,-3.5996,-3.5996,-3.5996,-3.5996,-3.5996,-3.5996,0.0,-3.5996,-3.5996,0.0,-3.5995,-3.5995,0.0,0.0,0.0,-3.5995,-3.5996,0.0,-3.5996,0.0,0.0,0.0,0.0,0.0,0.0,0.0,0.0,0.0,0.0,0.0,0.0,0.0,0.0,0.0,0.0,0.0,0.0,0.0,-3.5992,-3.5992,-3.5992,-3.5992,-3.5992,-3.5992,-3.5992,-3.5992,-3.5992,-3.5992,-3.5992,-3.5992,-3.5992,-3.5992,-3.6,-3.6004,-3.6004,-3.6009,-3.5991,-3.5991,-3.5991,-3.5991,-3.5991,-3.5991,-3.5991,-3.5991,-3.5991,-3.642,-3.7259,-3.7263,-3.7712,-3.8588,-3.9431,-3.984,-3.9935,-4.073,-4.1076,-4.1109,-4.1109,-4.1109,-4.1109,-4.1109,-4.1064,-4.0994,-4.0994,-4.0929,-4.0815,0.0,0.0,0.0,0.0,0.0,0.0,-3.5531,-3.5599,-3.5723,0.0,0.0,0.0,-3.5996,-3.5996,-3.5996,-3.5996,-3.5996,-3.5996,-3.5996,-3.5996,-3.5898,-3.5644,-3.5644,-3.5527,-3.5293,-3.5059,-3.5176,-3.5644,-3.5391,-3.5527,-3.5996,-3.5996,-3.5996,-3.5996,-3.5996,-3.5996,-3.5996,-3.5996,0.0,-3.5996,-3.5996,-3.5996,0.0,0.0,0.0,0.0,0.0,-3.5996,-3.5996,0.0,-3.5996,-3.5996,0.0,0.0,0.0,0.0,0.0,0.0,-3.5996,0.0,0.0,0.0,0.0,0.0,0.0,0.0,0.0,0.0,-3.6001,-3.6,-3.5994,-3.5992,-3.5992,-3.5992,-3.5992,-3.5992,-3.5992,-3.5998,-3.6001,-3.6001,-3.6005,-3.6007,-3.6007,-3.6009,-3.6009,0.0,-3.5991,-3.5991,-3.5991,-3.5991,-3.5991,-3.5991,-3.5991,-3.5991,-3.5991,-3.5991,-3.6129,-3.6365,-3.6366,-3.6815,-3.7672,-3.791,-3.8709,-3.9916,-4.0132,-4.056,-4.1102,-4.1094,-4.1109,-4.1109,-4.1109,-4.1083,-4.1074,-4.1074,-4.1022,-4.0944,0.0,0.0,0.0,0.0,0.0,-3.5895,-3.5895,-3.5953,-3.5996,0.0,0.0,0.0,-3.5996,-3.5996,-3.5996,-3.5996,-3.5996,-3.5996,-3.5996,-3.5996,-3.5996,-3.5996,-3.5996,-3.5996,-3.5996,-3.5644,-3.5644,-3.5996,-3.5644,-3.5644,-3.5996,-3.5996,-3.5996,-3.5996,-3.5996,0.0,0.0,0.0,0.0,0.0,-3.5996,0.0,0.0,-3.5996,-3.5996,0.0,0.0,0.0,-3.5996,-3.5996,-3.5996,0.0,0.0,0.0,0.0,0.0,0.0,0.0,0.0,0.0,0.0,0.0,0.0,0.0,-3.5909,-3.5936,-3.5975,0.0,-3.6,-3.5999,-3.5994,-3.5992,-3.5992,-3.5992,-3.5995,-3.5996,-3.5992,-3.6,-3.6004,-3.6004,-3.6009,-3.5854,-3.5483,-3.5465,-3.5466,-3.5466,-3.5467,-3.5623,-3.5975,-3.5994,-3.5994,-3.5994,-3.5994,-3.5994,-3.5993,-3.5993,-3.5993,-3.5995,-3.5995,-3.6268,-3.6776,-3.7129,-3.7851,-3.8865,-3.9588,-4.0172,-4.0638,-4.0961,-4.1094,-4.1094,-4.1094,-4.1091,-4.1109,-4.1109,-4.1076,-4.103,0.0,0.0,0.0,-3.5829,-3.5861,-3.5918,-3.5918,-3.5953,-3.5996,0.0,-3.5996,-3.5996,-3.5996,-3.5996,-3.5996,-3.5996,-3.5996,-3.5996,-3.5996,-3.5996,-3.5996,-3.5996,-3.5996,-3.5996,-3.5996,-3.5234,-3.5215,-3.5996,-3.5215,-3.5293,-3.6133,-3.6133,-3.6191,-3.6289,0.0,0.0,0.0,0.0,0.0,-3.6289,-3.6172,-3.6133,0.0,0.0,-3.5996,-3.5996,-3.5996,-3.5996,-3.5996,-3.5996,-3.5996,0.0,0.0,0.0,0.0,0.0,-3.5951,0.0,0.0,0.0,0.0,0.0,0.0,0.0,-3.5879,-3.5888,-3.5915,-3.597,-3.5985,-3.5985,-3.5984,-3.5984,-3.5984,-3.5984,-3.5987,-3.5986,-3.5995,-3.6001,-3.6006,-3.6006,-3.6009,-3.566,-3.4781,-3.4705,-3.4667,-3.4569,-3.4648,-3.5039,-3.5801,-3.5957,-3.5996,-3.5996,-3.5996,-3.5996,-3.5995,-3.5995,-3.5995,-3.5995,-3.5995,-3.5996,-3.6035,-3.6797,-3.7207,-3.7383,-3.9042,-3.9802,-3.9955,-4.0771,-4.1099,-4.1098,-4.1098,-4.1095,-4.1109,-4.109,-4.1109,-4.1109,0.0,0.0,0.0,-3.5951,-3.5975,-3.5976,-3.5976,-3.5996,-3.5996,-3.5996,-3.5996,-3.5996,-3.5996,-3.5996,-3.5996,-3.5996,-3.5996,-3.5996,-3.5996,-3.5996,-3.5996,-3.5996,-3.5996,-3.5996,-3.5996,-3.582,-3.582,-3.5996,-3.582,-3.6191,-3.7051,-3.7051,-3.7422,-3.8086,-3.8086,0.0,0.0,0.0,0.0,-3.8027,-3.7324,0.0,-3.6973,-3.6269,-3.5996,-3.5996,-3.5996,-3.5996,-3.5996,-3.5996,-3.5996,-3.5996,0.0,0.0,0.0,0.0,0.0,0.0,0.0,0.0,0.0,0.0,0.0,0.0,-3.5746,-3.5783,-3.5823,0.0,-3.5846,-3.5848,-3.5836,-3.5836,-3.5836,-3.5836,-3.5871,-3.5937,-3.5986,-3.6009,-3.5993,-3.5993,-3.5995,-3.5664,-3.4785,-3.4707,-3.4414,-3.3711,-3.4297,-3.4766,-3.4941,-3.5625,-3.5996,-3.5996,-3.5996,-3.5996,-3.5996,-3.5996,-3.5996,-3.5996,-3.5996,-3.5996,-3.6016,-3.6172,-3.6641,-3.7363,-3.8397,-3.9257,-3.996,-4.0779,-4.1104,-4.1091,-4.1097,-4.1095,-4.1109,-4.1095,-4.1094,-4.1109,0.0,0.0,0.0,-3.7284,-3.7305,-3.7305,-3.7305,-3.7305,-3.7305,-3.7305,-3.7305,-3.7305,-3.7305,-3.7305,-3.7305,-3.7305,-3.7305,-3.7305,-3.7305,-3.7305,-3.7305,-3.7305,-3.7305,-3.7305,-3.7305,-3.7305,-3.7305,-3.7305,-3.7305,-3.7519,-3.7949,-3.7949,-3.8184,-3.8594,-3.8594,0.0,0.0,0.0,-3.9492,-3.9785,-3.8476,0.0,-3.7891,-3.7461,-3.7031,-3.6641,-3.6641,-3.6367,-3.5996,-3.5996,-3.5996,0.0,0.0,-3.5975,-3.5951,0.0,-3.5884,-3.5808,0.0,0.0,0.0,-3.5698,0.0,0.0,0.0,-3.5732,-3.5752,-3.5792,-3.5802,-3.5802,-3.5808,0.0,-3.5808,-3.5808,-3.5857,-3.5891,-3.5892,-3.5957,-3.5995,-3.5995,-3.5996,-3.5488,-3.418,-3.4043,-3.3691,-3.2851,-3.3574,-3.4043,-3.4043,-3.4883,-3.5351,-3.5351,-3.5762,-3.5996,-3.5996,-3.5996,-3.5996,-3.5996,-3.5996,-3.5996,-3.5996,-3.5996,-3.623,-3.6699,-3.7578,-3.8456,-3.9316,-4.0155,-4.0737,-4.11,-4.1105,-4.11,-4.1091,-4.11,-4.1098,-4.1109,-3.8663,0.0,0.0,-3.8591,-3.8593,-3.8594,-3.8594,-3.8594,-3.8594,-3.8594,-3.8594,-3.8594,-3.8594,-3.8594,-3.8594,-3.8594,-3.8594,-3.8594,-3.8594,-3.8594,-3.8594,-3.8594,-3.8594,-3.8594,-3.8594,-3.8594,-3.8594,-3.8594,-3.8594,-3.8691,-3.8848,-3.8848,-3.8945,-3.9101,-3.9101,-3.9492,0.0,0.0,0.0,-4.1074,0.0,-3.9004,-3.8828,-3.8652,-3.8164,-3.7559,-3.7559,-3.6992,-3.6289,-3.6445,-3.6269,-3.6015,-3.6171,-3.6065,0.0,0.0,0.0,0.0,0.0,0.0,0.0,0.0,0.0,-3.5697,0.0,0.0,0.0,-3.5761,-3.5772,0.0,0.0,0.0,0.0,0.0,0.0,0.0,0.0,-3.5782,0.0,-3.5742,-3.5898,-3.5312,-3.3574,-3.3262,-3.2832,-3.2012,-3.2715,-3.3164,-3.3164,-3.3984,-3.4531,-3.4687,-3.5371,-3.582,-3.5996,-3.5996,-3.5996,-3.5996,-3.5996,-3.5996,-3.5996,-3.5996,-3.5996,-3.6055,-3.6914,-3.7793,-3.867,-3.9549,-4.0368,-4.1108,-4.1091,-4.1105,-4.1093,-4.1105,-4.1102,-4.1093,-3.8888,-3.8605,0.0,0.0,-3.8592,-3.8593,-3.8594,-3.8594,-3.8594,-3.8594,-3.8594,-3.8594,-3.8594,0.0,0.0,0.0,0.0,0.0,-3.8594,0.0,-3.8594,-3.8594,-3.8594,-3.8594,-3.8594,-3.8594,-3.8594,-3.8594,-3.8594,-3.9004,-3.9746,-3.9746,-4.0156,-4.0898,-4.0898,0.0,0.0,0.0,-4.1113,0.0,-4.0976,-4.0449,0.0,-3.8887,-3.8535,-3.8457,-3.8457,-3.7891,-3.7266,0.0,-3.7242,-3.6056,0.0,-3.6483,-3.5802,0.0,0.0,0.0,0.0,0.0,0.0,0.0,-3.5704,0.0,0.0,0.0,-3.5697,-3.5713,0.0,0.0,0.0,0.0,0.0,0.0,0.0,0.0,-3.475,-3.5326,-3.5561,-3.4844,-3.5498,-3.5311,-3.3562,-3.2751,-3.1973,-3.1113,-3.1855,-3.2344,-3.2344,-3.3105,-3.3906,-3.4687,-3.4805,-3.5215,-3.5996,-3.5996,-3.5996,-3.5996,-3.5996,-3.5996,-3.5996,-3.5996,-3.5996,-3.6055,-3.6913,-3.7792,-3.8672,-3.955,-4.0369,-4.1091,-4.1092,-4.1107,-4.1099,-4.1108,-4.1107,-4.1099,-4.019,-4.0045,0.0,0.0,-4.0052,-4.0056,-4.0058,-4.0078,-4.0117,-4.0117,-4.0117,-4.0117,0.0,0.0,0.0,0.0,0.0,-4.0117,0.0,0.0,-4.0117,-4.0117,-4.0117,-4.0117,-4.0117,-4.0117,-4.0117,-4.0117,-4.0117,-4.0293,-4.0644,-4.0644,-4.0859,-4.1191,-4.1191,0.0,-4.1191,0.0,-4.1191,0.0,0.0,0.0,0.0,-4.0254,-3.9785,-3.9297,-3.8789,-3.8338,-3.798,0.0,-3.7591,0.0,0.0,0.0,0.0,0.0,0.0,0.0,0.0,0.0,0.0,0.0,0.0,0.0,-3.5704,0.0,-3.5704,0.0,0.0,0.0,0.0,0.0,0.0,0.0,-3.5466,0.0,0.0,0.0,-3.5675,0.0,0.0,0.0,-3.2813,-3.2333,-3.1794,-3.0957,-3.1208,-3.1403,-3.1445,-3.2246,-3.2871,-3.3242,-3.4199,-3.4883,-3.5234,-3.5742,-3.5996,-3.5996,-3.5996,-3.5996,-3.5996,-3.5996,-3.5996,-3.6016,-3.6386,-3.7324,-3.8633,-3.8984,-3.9941,-4.1152,-4.1152,-4.113,-4.1105,-4.1131,-4.113,-4.1104,-4.1033,0.0,0.0,0.0,0.0,0.0,-4.1112,0.0,-4.1191,-4.1191,0.0,0.0,-4.1191,-4.1191,0.0,0.0,-4.1191,-4.1191,0.0,0.0,-4.1191,-4.1191,-4.1191,0.0,0.0,0.0,-4.1191,-4.1191,-4.1191,-4.1191,-4.1191,-4.1191,-4.1191,-4.1191,0.0,-4.1191,-4.1191,0.0,0.0,-4.1191,-4.1191,-4.1191,-4.1191,-4.1191,-4.0801,-4.0176,-3.951,-3.9093,-3.8782,-3.8381,-3.8149,0.0,-3.6816,0.0,0.0,0.0,0.0,0.0,-3.5704,0.0,0.0,0.0,0.0,0.0,0.0,0.0,0.0,0.0,0.0,0.0,0.0,0.0,0.0,-3.538,0.0,-3.5616,0.0,-3.5584,0.0,0.0,0.0,0.0,0.0,-3.2061,-3.174,-3.0935,-3.0829,-3.083,-3.0898,-3.1504,-3.1953,-3.2187,-3.3594,-3.4453,-3.4707,-3.5566,-3.5996,-3.5996,-3.5996,-3.5996,-3.5996,-3.5996,-3.5996,-3.5996,-3.5996,-3.6992,-3.8594,-3.8594,-3.9629,-4.1191,-4.1191,-4.1171,-4.113,-4.1172,-4.1151,-4.1108,-4.0872,-4.1018,0.0,0.0,0.0,0.0,0.0,0.0,0.0,0.0,0.0,0.0,0.0,0.0,0.0,0.0,0.0,-4.1191,-4.1191,0.0,-4.1191,-4.1191,-4.1191,-4.1191,0.0,0.0,0.0,-4.1191,-4.1191,-4.1191,-4.1191,-4.1191,-4.1191,-4.1191,-4.1191,-4.1191,-4.1191,-4.1191,-4.1191,-4.1191,-4.1191,-4.1191,-4.1191,0.0,-4.1172,-4.1152,-4.1042,0.0,0.0,-4.0624,-3.9178,-3.7182,-3.7968,0.0,0.0,0.0,0.0,0.0,0.0,0.0,0.0,-3.5704,0.0,0.0,0.0,0.0,-3.5704,0.0,0.0,0.0,0.0,0.0,-3.5419,-3.4587,-3.5148,0.0,0.0,0.0,0.0,0.0,0.0,0.0,0.0,-3.2004,-3.1668,-3.0859,-3.0801,-3.083,-3.0898,-3.0937,-3.1328,-3.2168,-3.3008,-3.3848,-3.4687,-3.5566,-3.5996,-3.5996,-3.5996,-3.5996,-3.5996,-3.5996,-3.5996,-3.5996,-3.5996,-3.6992,-3.8594,-3.8594,-3.9629,-4.1191,-4.1191,-4.1191,-4.1191,-4.1191,-4.1152,-4.1112,0.0,0.0,0.0,0.0,0.0,0.0,0.0,-4.1172,0.0,0.0,0.0,0.0,0.0,-4.1191,-4.1191,0.0,0.0,-4.1191,-4.1191,-4.1191,0.0,0.0,0.0,-4.1191,0.0,0.0,0.0,0.0,0.0,-4.1191,-4.1191,-4.1191,-4.1191,-4.1191,0.0,-4.1191,0.0,0.0,0.0,0.0,0.0,-4.1191,-4.1191,0.0,-4.117,-4.1121,-4.1112,-4.0857,-4.0485,-4.0171,-3.9825,-3.9268,-3.7839,-3.7362,-3.7135,-3.6033,-3.5704,-3.5704,-3.5704,-3.5704,-3.5704,-3.5704,0.0,0.0,0.0,0.0,0.0,0.0,0.0,0.0,0.0,0.0,-3.5607,-3.5303,-3.5516,-3.5588,0.0,0.0,0.0,0.0,0.0,0.0,0.0,0.0,-3.1666,-3.0858,-3.08,-3.083,-3.0898,-3.0898,-3.1035,-3.1328,-3.2676,-3.3535,-3.3848,-3.5273,-3.5996,-3.5996,-3.5996,-3.5996,-3.5996,-3.5996,-3.5996,-3.6035,-3.6601,-3.7519,-3.8633,-3.9219,-4.0156,-4.1191,-4.1191,-4.1191,-4.1191,-4.1191,-4.1191,-4.1152,-4.0668,0.0,0.0,0.0,0.0,0.0,0.0,0.0,0.0,0.0,-4.1191,0.0,-4.1191,0.0,-4.1191,0.0,-4.1191,-4.1191,-4.1191,-4.1191,0.0,-4.1191,-4.1191,0.0,0.0,0.0,0.0,0.0,0.0,-4.1191,-4.1191,-4.1191,-4.1191,-4.1191,0.0,-4.1191,-4.1191,0.0,-4.1191,0.0,0.0,-4.1191,0.0,0.0,-4.1143,-4.1087,-4.1054,-4.0967,-4.0806,-4.0228,-4.0164,-4.0042,-3.8353,-3.8005,-3.7922,-3.6535,-3.6129,-3.6052,-3.5781,-3.5704,-3.5704,-3.5704,-3.5704,0.0,-3.5704,0.0,-3.5704,0.0,0.0,0.0,0.0,0.0,-3.5704,-3.5704,-3.5704,-3.5704,0.0,-3.5704,0.0,0.0,0.0,0.0,0.0,0.0,-3.154,-3.1679,-3.1116,-3.0939,-3.1348,-3.1074,-3.0898,-3.0898,-3.2539,-3.3398,-3.3398,-3.5137,-3.5996,-3.5996,-3.5996,-3.5996,-3.5996,-3.5996,-3.5996,-3.6055,-3.6914,-3.7793,-3.8672,-3.9531,-4.041,-4.1191,-4.1191,-4.1191,-4.1191,-4.1191,-4.1191,-4.1191,0.0,0.0,0.0,0.0,-4.1082,0.0,0.0,0.0,-4.1191,0.0,-4.1191,-4.1211,-4.1269,-4.1269,-4.1289,-4.1328,-4.1289,0.0,-4.1269,-4.1211,0.0,0.0,-4.1191,-4.1191,-4.1191,0.0,0.0,0.0,0.0,0.0,-4.1191,-4.1191,-4.1191,-4.1191,-4.1191,0.0,-4.1191,-4.1191,-4.1191,-4.1191,-4.1191,-4.1168,-4.1109,-4.1085,-4.1085,-4.1074,-4.0953,-4.0903,-4.0883,-4.0814,-4.0255,-3.9559,-3.9501,-3.8934,-3.8096,-3.7232,-3.6942,-3.6729,-3.5974,-3.5723,-3.5704,-3.5704,-3.5704,-3.5704,0.0,0.0,-3.5704,0.0,0.0,0.0,0.0,0.0,0.0,-3.5704,-3.5704,-3.5704,0.0,0.0,0.0,0.0,0.0,0.0,0.0,-3.1642,-3.1421,-3.3092,-3.17,-3.1194,-3.2207,-3.1426,-3.0976,-3.1016,-3.2617,-3.3457,-3.3457,-3.5156,-3.5996,-3.5996,-3.5996,-3.5996,-3.5996,-3.5996,-3.6016,-3.6113,-3.6992,-3.7851,-3.873,-3.9609,-4.0449,-4.1191,-4.1191,-4.1191,-4.1191,-4.1191,-4.1191,-4.1191,-4.0523,-4.061,-4.0713,0.0,-4.0859,-4.0947,0.0,0.0,0.0,0.0,-4.1191,-4.1426,-4.2031,-4.209,-4.2344,-4.3008,-4.2461,0.0,0.0,0.0,0.0,-4.1191,-4.1191,-4.1191,-4.1191,-4.1191,0.0,-4.1191,0.0,0.0,-4.1191,-4.1191,-4.1191,-4.1191,0.0,0.0,-4.1191,-4.1191,-4.1191,-4.1191,-4.1145,-4.1116,-4.1083,0.0,-4.0961,-4.0953,-4.0906,-4.0877,-4.082,-4.0809,-4.0642,-4.0352,-3.9694,-3.9346,-3.8998,-3.8121,-3.7406,-3.6845,-3.6651,-3.6168,-3.5704,-3.5704,-3.5704,-3.5704,-3.5704,-3.5704,-3.5704,0.0,0.0,0.0,0.0,0.0,0.0,0.0,0.0,0.0,0.0,0.0,0.0,-3.54,0.0,0.0,0.0,-3.238,-3.2458,-3.2269,-3.1888,-3.2075,-3.3031,-3.2273,-3.2085,-3.2734,-3.3809,-3.4375,-3.4375,-3.5449,-3.5996,-3.5996,-3.5996,-3.5996,-3.5996,-3.5996,-3.6348,-3.7012,-3.7891,-3.8769,-3.9629,-4.0508,-4.0996,-4.1191,-4.1191,-4.1191,-4.1191,-4.1191,-4.1191,-4.1191,-4.0496,0.0,0.0,-4.0604,0.0,0.0,-4.0983,-4.1052,0.0,-4.1679,-4.1719,0.0,-4.2871,-4.2969,-4.3164,-4.3652,-4.3242,0.0,-4.2422,0.0,0.0,-4.1211,-4.1191,-4.1191,-4.1191,-4.1191,0.0,-4.1191,0.0,0.0,-4.1191,-4.1191,-4.1191,0.0,0.0,-4.1191,0.0,-4.1191,-4.1171,-4.1147,-4.1116,-4.1068,0.0,-4.0928,-4.0878,-4.0856,-4.0856,-4.0837,-4.0797,-4.0797,-4.0797,-4.0719,-4.0216,-4.0062,-3.9907,-3.9011,-3.8411,-3.787,-3.7116,-3.6574,-3.6149,-3.5781,-3.5704,-3.5704,-3.5704,-3.5704,-3.5704,-3.5704,-3.5704,-3.5704,-3.5704,-3.5704,0.0,0.0,0.0,0.0,0.0,0.0,0.0,0.0,-3.5264,0.0,-3.2996,-3.304,-3.3128,-3.3037,-3.2376,-3.2377,-3.3355,-3.2578,-3.2491,-3.3379,-3.3887,-3.4316,-3.4707,-3.5195,-3.5625,-3.5996,-3.5996,-3.5996,-3.6016,-3.6387,-3.6836,-3.7363,-3.8613,-3.9453,-3.9961,-4.084,-4.1191,-4.1191,-4.1191,-4.1191,-4.1191,-4.1191,-4.1191,-4.1191,0.0,0.0,0.0,0.0,0.0,0.0,0.0,-4.1258,0.0,-4.2305,0.0,-4.2891,-4.3789,-4.3867,-4.3926,-4.4023,0.0,-4.3555,-4.2793,-4.2539,-4.209,-4.1387,-4.1269,-4.1191,-4.1191,-4.1191,0.0,0.0,0.0,0.0,-4.1191,-4.1191,0.0,0.0,0.0,0.0,0.0,-4.1191,-4.1168,-4.1109,-4.1085,-4.1006,-4.0907,-4.0893,-4.0851,-4.0797,-4.0797,-4.0797,-4.0797,-4.0797,-4.0797,-4.0797,-4.0797,-4.0797,-4.0642,-3.9887,-3.9597,-3.9172,-3.7657,-3.7077,-3.6729,-3.6033,-3.5781,-3.5704,-3.5704,-3.5704,-3.5704,-3.5704,-3.5704,-3.5704,-3.5704,-3.5704,0.0,0.0,0.0,0.0,0.0,0.0,0.0,0.0,0.0,0.0,-3.4481,-3.3812,-3.3723,-3.4406,-3.2978,-3.2542,-3.3636,0.0,-3.2703,-3.3691,-3.373,-3.4043,-3.4687,-3.4805,-3.5195,-3.582,-3.5957,-3.6055,-3.6191,-3.6953,-3.7422,-3.7715,-3.9238,-3.9961,-4.0137,-4.0898,-4.1191,-4.1191,-4.1191,-4.1191,-4.1191,-4.1191,-4.1191,-4.1191,0.0,0.0,0.0,0.0,0.0,-4.1038,-4.1801,-4.203,-4.2173,-4.2363,-4.3027,-4.3808,-4.4687,-4.4766,-4.5058,-4.5781,-4.5195,0.0,0.0,0.0,0.0,-4.2207,-4.1543,-4.1191,-4.1191,-4.1191,-4.1191,0.0,0.0,0.0,-4.1191,-4.1191,0.0,0.0,0.0,0.0,-4.1191,-4.1191,0.0,-4.1106,-4.105,-4.096,-4.0898,-4.0848,-4.0815,-4.0797,-4.0797,-4.0797,-4.0797,-4.0797,-4.0797,-4.0797,-4.0797,-4.0797,-4.0777,-4.0623,-4.0062,-3.9423,-3.9133,-3.7986,-3.6864,-3.6729,-3.6187,-3.5704,-3.5704,-3.5704,-3.5704,-3.5704,-3.5704,-3.5704,-3.5704,-3.5704,-3.5704,0.0,0.0,0.0,0.0,0.0,0.0,0.0,0.0,-3.5621,0.0,0.0,-3.4966,-3.4305,-3.3401,-3.3595,-3.5212,0.0,-3.3826,-3.5413,-3.5525,-3.5273,-3.4707,-3.541,-3.5488,-3.4941,-3.5664,-3.6387,-3.707,-3.7226,-3.8086,-3.9453,-3.9766,-4.0312,-4.0976,-4.1133,-4.1191,-4.1191,-4.1191,-4.1191,-4.1191,-4.1191,-4.1191,-4.1191,0.0,0.0,0.0,0.0,0.0,0.0,0.0,-4.3056,-4.372,-4.373,-4.4101,-4.4707,-4.5586,-4.5664,-4.584,-4.6269,-4.5918,-4.5488,-4.5039,-4.4219,-4.3359,-4.2441,-4.2031,0.0,-4.1211,-4.1191,-4.1191,-4.1191,0.0,0.0,-4.1152,-4.1152,0.0,0.0,0.0,-4.1191,0.0,0.0,-4.1112,-4.1033,-4.0986,-4.0917,-4.084,-4.0821,-4.0797,-4.0797,-4.0797,-4.0797,-4.0797,-4.0797,-4.0797,-4.0797,-4.0797,-4.0797,-4.0797,-4.0797,-4.0507,-4.0081,-3.9617,-3.8566,-3.7458,-3.7019,-3.6303,-3.5704,-3.5704,-3.5704,-3.5704,-3.5704,-3.5704,-3.5704,-3.5704,-3.5704,-3.5704,0.0,0.0,0.0,0.0,0.0,0.0,0.0,0.0,0.0,0.0,0.0,0.0,0.0,0.0,0.0,-3.5037,-3.4344,-3.4511,-3.5806,-3.5437,-3.5249,-3.5269,-3.5262,-3.5286,-3.5326,-3.6249,-3.6894,-3.7324,-3.8242,-3.9101,-3.9922,-4.0371,-4.0801,-4.1191,-4.1191,-4.1191,-4.1191,-4.1191,-4.1191,-4.1191,-4.1191,-4.1191,-4.1191,0.0,-4.2686,0.0,0.0,-4.297,0.0,-4.2911,-4.4073,-4.4995,-4.5,-4.5156,-4.5547,-4.623,-4.6308,-4.6308,-4.6308,-4.6308,-4.6016,-4.5312,-4.5098,-4.4297,-4.2734,-4.25,-4.2012,-4.1211,-4.1191,-4.1191,0.0,0.0,0.0,-4.1092,-4.1112,0.0,0.0,0.0,0.0,-4.1191,-4.1121,-4.1066,-4.0984,-4.0924,-4.0862,-4.0797,-4.0797,-4.0797,-4.0797,-4.0797,-4.0797,-4.0797,-4.0797,-4.0797,-4.0797,-4.0797,-4.0797,-4.0797,-4.0797,-4.0797,-4.0642,-3.9965,-3.9146,-3.8276,-3.7386,-3.6555,-3.5916,-3.5742,-3.5704,-3.5704,-3.5704,-3.5704,-3.5704,-3.5704,-3.5704,-3.5704,-3.5704,0.0,0.0,0.0,0.0,0.0,0.0,0.0,0.0,-3.5547,0.0,0.0,0.0,0.0,0.0,-3.474,-3.4587,-3.4897,-3.5749,-3.5137,-3.5029,-3.5519,-3.5086,-3.5204,-3.5914,-3.6831,-3.748,-3.7891,-3.9277,-4.0,-4.0215,-4.0898,-4.1191,-4.1191,-4.1191,-4.1191,-4.1191,-4.1191,-4.1191,-4.1191,-4.1191,-4.1191,-4.1191,0.0,0.0,0.0,0.0,0.0,-4.383,-4.4473,-4.4816,-4.4995,-4.4998,-4.5682,-4.621,-4.6289,-4.6308,-4.6308,-4.6308,-4.6308,-4.6269,-4.6172,-4.5449,-4.457,-4.3613,-4.2812,-4.2012,-4.1211,-4.1191,-4.1191,0.0,0.0,-4.1172,-4.1092,-4.1152,-4.1191,-4.1191,-4.1191,-4.1191,-4.1191,-4.1121,-4.1066,-4.0984,-4.0924,-4.0862,-4.0797,-4.0797,-4.0797,-4.0797,-4.0797,-4.0797,-4.0797,-4.0797,-4.0797,-4.0797,-4.0797,-4.0797,-4.0797,-4.0797,-4.0797,-4.0777,-4.07,-4.0042,-3.9172,-3.8295,-3.7425,-3.6593,-3.5858,-3.5704,-3.5704,-3.5704,-3.5704,-3.5704,-3.5704,-3.5704,-3.5704,-3.5704,0.0,0.0,0.0,0.0,0.0,0.0,0.0,0.0,0.0,-3.5684,0.0,0.0,-3.4858,0.0,0.0,-3.4902,-3.487,-3.5671,-3.5681,-3.5341,-3.4637,-3.5326,-3.5763,-3.5914,-3.6797,-3.8079,-3.9668,-3.9824,-4.0332,-4.1074,-4.1152,-4.1191,-4.1191,-4.1191,-4.1191,-4.1191,-4.1191,-4.1191,-4.1191,-4.1191,-4.1191,-4.1191,0.0,0.0,0.0,0.0,0.0,0.0,0.0,-4.5352,-4.5771,-4.5776,-4.6071,-4.6307,-4.6308,-4.6308,-4.6308,-4.6308,-4.6308,-4.6308,-4.6308,-4.5976,-4.5391,-4.4512,-4.3652,-4.2773,-4.1933,-4.1445,-4.1191,0.0,0.0,0.0,0.0,-4.113,-4.1131,-4.1132,-4.1172,-4.1171,-4.1142,-4.107,-4.0994,-4.0937,-4.0877,-4.082,-4.0797,-4.0797,-4.0797,-4.0797,-4.0797,-4.0797,-4.0797,-4.0797,-4.0797,-4.0797,-4.0797,-4.0797,-4.0797,-4.0797,-4.0797,-4.0797,-4.0797,-4.0158,-3.9423,-3.9075,-3.7928,-3.6826,-3.6497,-3.6052,-3.5704,-3.5704,-3.5704,-3.5704,-3.5704,-3.5704,-3.5704,-3.5704,0.0,0.0,0.0,0.0,0.0,0.0,0.0,0.0,0.0,0.0,0.0,0.0,0.0,0.0,0.0,-3.5398,-3.5364,-3.5694,-3.5732,-3.5575,-3.5221,-3.557,-3.6015,-3.657,-3.7483,-3.8558,-3.9739,-4.0353,-4.0836,-4.1191,-4.1191,-4.1191,-4.1191,-4.1191,-4.1191,-4.1191,-4.1191,-4.1191,-4.1191,-4.1191,-4.1191,-4.1191,-4.4682,0.0,-4.5606,0.0,-4.552,-4.5831,-4.5223,-4.5766,-4.6238,-4.6248,-4.6281,-4.6307,-4.6308,-4.6308,-4.6308,-4.6308,-4.6308,-4.6308,-4.6308,-4.6308,-4.5918,-4.5039,-4.418,0.0,-4.2422,-4.1601,-4.1191,-4.1191,-4.1132,0.0,0.0,-4.1108,-4.111,-4.1132,-4.1151,-4.1145,-4.1087,-4.1,-4.0949,-4.0898,-4.0825,-4.0797,-4.0797,-4.0797,-4.0797,-4.0797,-4.0797,-4.0797,-4.0797,-4.0797,-4.0797,-4.0797,-4.0797,-4.0797,-4.0797,-4.0797,-4.0797,-4.0797,-4.0797,-4.0352,-3.981,-3.9559,-3.8572,-3.7522,-3.7019,-3.6458,-3.5994,-3.5742,-3.5704,-3.5704,-3.5704,-3.5704,-3.5704,-3.5704,-3.5704,0.0,0.0,-3.5704,0.0,0.0,-3.5704,-3.5704,-3.5704,-3.5704,0.0,0.0,0.0,0.0,0.0,-3.5704,-3.5704,-3.5704,-3.5704,-3.5704,-3.5704,-3.5926,-3.6497,-3.7383,-3.8292,-3.9158,-3.9983,-4.0725,-4.1094,-4.1148,-4.1151,-4.1171,-4.1171,-4.1172,-4.1172,-4.1172,-4.1191,-4.1191,-4.1191,-4.1191,-4.1191,-4.117,-4.5575,-4.5696,-4.5807,-4.5787,-4.5846,-4.5905,-4.5885,-4.6009,-4.6109,-4.6105,-4.6222,-4.6305,-4.6308,-4.6308,-4.6308,-4.6308,-4.6308,-4.6308,-4.6308,-4.6308,-4.5918,0.0,0.0,-4.3281,-4.2422,-4.1601,-4.1191,-4.1191,0.0,0.0,-4.1092,-4.1092,-4.1132,-4.1191,-4.1121,-4.1109,-4.1085,-4.0968,-4.0907,-4.0898,-4.0825,-4.0797,-4.0797,-4.0797,-4.0797,-4.0797,-4.0797,-4.0797,-4.0797,-4.0797,-4.0797,-4.0797,-4.0797,-4.0797,-4.0797,-4.0797,-4.0797,-4.0797,-4.0797,-4.0797,-4.0584,-3.9713,-3.9481,-3.9017,-3.729,-3.6884,-3.6651,-3.5858,-3.5704,-3.5704,-3.5704,-3.5704,-3.5704,-3.5704,-3.5704,0.0,0.0,-3.5704,0.0,-3.5704,-3.5704,-3.5704,-3.5704,-3.5704,0.0,0.0,0.0,0.0,0.0,-3.5704,-3.5704,-3.5704,-3.5704,-3.5704,-3.5704,-3.6488,-3.7351,-3.8297,-3.9102,-3.9937,-4.0782,-4.0936,-4.1001,-4.1005,-4.108,-4.1108,-4.1108,-4.1091,-4.1092,-4.1112,-4.1172,-4.1191,-4.1191,-4.1191,-4.1168,-4.1109,-4.5594,-4.6119,-4.6557,-4.6557,-4.7097,-4.7546,-4.7546,-4.7151,-4.6852,-4.6857,-4.644,-4.6156,-4.6161,-4.6245,-4.6308,0.0,-4.6308,-4.6308,0.0,-4.6308,-4.6171,-4.5898,-4.5057,-4.4451,-4.4179,-4.2751,-4.2028,-4.2028,-4.1399,-4.1103,-4.1103,-4.1103,-4.1099,-4.1069,-4.1037,-4.0975,-4.0886,-4.0849,-4.0828,-4.0831,-4.0809,-4.0797,-4.0797,-4.0797,-4.0797,-4.0797,-4.0797,-4.0797,-4.0797,-4.0797,-4.0797,-4.0797,-4.0797,-4.0797,-4.0797,-4.0797,-4.0797,-4.0797,-4.0797,-4.0797,-4.0739,-4.0468,-3.9946,-3.9346,-3.8804,-3.7754,-3.6671,-3.5858,-3.5704,-3.5704,-3.5704,-3.5704,-3.5704,-3.5704,-3.5704,-3.5704,-3.5704,0.0,-3.5704,-3.5704,-3.5704,-3.5704,-3.5704,-3.5704,0.0,0.0,0.0,0.0,-3.5704,-3.5704,-3.5704,-3.5704,-3.5704,-3.5969,-3.6507,-3.6766,-3.7622,-3.9045,-3.9303,-3.9892,-4.0723,-4.0777,-4.0831,-4.086,-4.0981,-4.1021,-4.1042,-4.1084,-4.1109,-4.1108,-4.106,-4.1056,-4.1054,-4.1055,-4.1057,-4.1022,-4.6528,-4.699,-4.7355,-4.7355,-4.7829,-4.8232,-4.8232,-4.7881,-4.7499,-4.7175,-4.677,-4.6394,-4.6063,-4.6136,-4.6245,-4.6308,-4.6308,-4.6308,-4.6308,-4.6308,-4.6307,-4.6308,-4.5466,-4.4995,-4.4997,-4.3607,-4.2727,-4.2395,-4.1533,-4.1101,-4.1098,-4.1072,-4.1039,-4.0998,-4.0916,-4.0839,-4.077,-4.0757,-4.0769,-4.0759,-4.079,-4.0797,-4.0797,-4.0797,-4.0797,-4.0797,-4.0797,-4.0797,-4.0797,-4.0797,-4.0797,-4.0797,-4.0797,-4.0797,-4.0797,-4.0797,-4.0797,-4.0797,-4.0797,-4.0797,-4.0797,-4.0797,-4.039,-3.9907,-3.9578,-3.8141,-3.6767,-3.6245,-3.5916,-3.5704,-3.5704,-3.5704,-3.5704,-3.5704,-3.5704,-3.5704,-3.5704,0.0,-3.5704,0.0,0.0,-3.5704,-3.5704,-3.5704,-3.5704,0.0,0.0,0.0,-3.5654,-3.5679,-3.5684,-3.5654,-3.5648,-3.6043,-3.6857,-3.7154,-3.8003,-3.9364,-3.9678,-4.0119,-4.0661,-4.0693,-4.0718,-4.0767,-4.0878,-4.0912,-4.0935,-4.1016,-4.1051,-4.1069,-4.1016,-4.0992,-4.0992,-4.0964,-4.0951,-4.0953,-4.8105,-4.8144,-4.8202,-4.8202,-4.824,-4.8279,-4.8279,-4.8343,-4.8091,-4.7279,-4.7184,-4.6872,-4.6061,-4.6049,-4.6145,-4.6262,-4.6283,-4.6305,-4.6308,-4.6307,-4.6307,-4.6307,-4.5525,-4.5094,-4.509,-4.4249,-4.3331,-4.2394,-4.1594,-4.1162,-4.1094,-4.1031,-4.0994,-4.0964,-4.0776,-4.0699,-4.0688,-4.0694,-4.0694,-4.07,-4.0778,-4.079,-4.0797,-4.0797,-4.0797,-4.0797,-4.0797,-4.0797,-4.0797,-4.0797,-4.0797,-4.0797,-4.0797,-4.0797,-4.0797,-4.0797,-4.0797,-4.0797,-4.0797,-4.0797,-4.0797,-4.0797,-4.0797,-4.0565,-3.9694,-3.8237,-3.7058,-3.6922,-3.6303,-3.5762,-3.5704,-3.5704,-3.5704,-3.5704,-3.5704,-3.5704,-3.5704,-3.5704,-3.5704,-3.5704,-3.5704,-3.5704,-3.5704,-3.5704,-3.5704,-3.5704,0.0,0.0,-3.5606,-3.5712,-3.5751,-3.5697,-3.5678,-3.6098,-3.6967,-3.7724,-3.8539,-3.9386,-4.0146,-4.0531,-4.0607,-4.0655,-4.0681,-4.0687,-4.0751,-4.0801,-4.081,-4.0935,-4.0989,-4.0992,-4.0983,-4.0974,-4.0979,-4.0899,-4.0894,-4.0893,-4.8105,-4.8644,-4.9086,-4.9086,-4.9644,-5.0067,-5.0067,-4.9547,-4.9074,-4.8862,-4.7786,-4.6977,-4.6764,-4.6272,-4.5957,-4.5979,-4.6175,-4.6302,-4.6305,-4.6304,-4.6303,-4.6303,-4.6104,-4.5984,-4.5983,-4.5137,-4.3943,-4.2401,-4.2186,-4.1722,-4.102,-4.1009,-4.0926,-4.0765,-4.0729,-4.0675,-4.0614,-4.0624,-4.0646,-4.07,-4.0726,-4.0752,-4.0797,-4.0797,-4.0797,-4.0797,-4.0797,-4.0797,-4.0797,-4.0797,-4.0797,-4.0797,-4.0797,-4.0797,-4.0797,-4.0797,-4.0797,-4.0797,-4.0797,-4.0797,-4.0797,-4.0797,-4.0797,-4.0565,-3.9694,-3.9172,-3.8514,-3.7174,-3.6748,-3.6439,-3.58,-3.5704,-3.5704,-3.5704,-3.5704,-3.5704,-3.5704,-3.5704,-3.5704,-3.5704,-3.5704,-3.5704,-3.5704,-3.5704,-3.5704,-3.5704,0.0,-3.5684,-3.5679,-3.6259,-3.6584,-3.6524,-3.6524,-3.7218,-3.8688,-3.8893,-3.9398,-4.0215,-4.04,-4.0516,-4.0531,-4.0542,-4.0549,-4.0545,-4.0668,-4.0723,-4.0734,-4.081,-4.085,-4.0846,-4.0796,-4.0776,-4.0776,-4.0746,-4.0738,-4.0745,-4.9298,-4.9663,-4.999,-4.999,-5.0385,-5.0712,-5.0712,-5.0308,-4.9856,-4.9452,-4.8283,-4.7359,-4.6992,-4.6292,-4.5846,-4.5844,-4.6079,-4.6214,-4.6204,-4.6273,-4.6299,-4.6299,-4.6295,-4.6291,-4.6308,-4.5835,-4.4933,-4.3587,-4.2786,-4.2121,-4.1578,-4.1116,-4.083,-4.0694,-4.0629,-4.0586,-4.0565,-4.06,-4.061,-4.0653,-4.0687,-4.0713,-4.0752,-4.079,-4.0797,-4.0797,-4.0797,-4.0797,-4.0797,-4.0797,-4.0797,-4.0797,-4.0797,-4.0739,-4.0661,-4.0661,-4.0739,-4.0784,-4.0694,-4.0739,-4.0797,-4.0797,-4.0797,-4.0681,-4.0197,-3.9791,-3.923,-3.8276,-3.7444,-3.6767,-3.6323,-3.5955,-3.5704,-3.5704,-3.5704,-3.5704,-3.5704,-3.5704,-3.5704,-3.5704,-3.5704,-3.5704,-3.5704,-3.5704,-3.5704,-3.5704,-3.6033,-3.6259,-3.6248,-3.7035,-3.7281,-3.682,-3.7186,-3.8015,-3.9287,-3.9653,-4.0077,-4.0558,-4.0504,-4.0523,-4.0539,-4.0504,-4.0496,-4.0504,-4.0586,-4.0602,-4.0615,-4.0709,-4.0754,-4.0754,-4.0703,-4.0717,-4.0748,-4.0674,-4.068,-4.0746,-5.0712,-5.0712,-5.0712,-5.0712,-5.0712,-5.0712,-5.0712,-5.0712,-5.0442,-4.9683,-4.8721,-4.7836,-4.7154,-4.6298,-4.5771,-4.5771,-4.5938,-4.6064,-4.6066,-4.6184,-4.6241,-4.6264,-4.6266,-4.6284,-4.63,-4.63,-4.587,-4.499,-4.3391,-4.2492,-4.2283,-4.1263,-4.0756,-4.0694,-4.0564,-4.0496,-4.0496,-4.0565,-4.058,-4.0595,-4.066,-4.0687,-4.07,-4.0752,-4.079,-4.0797,-4.0797,-4.0797,-4.0797,-4.0797,-4.0784,-4.0752,-4.0752,-4.0621,-4.0462,-4.0462,-4.0593,-4.0687,-4.0511,-4.06,-4.0733,-4.0733,-4.0733,-4.0733,-4.0733,-4.0159,-3.9612,-3.9496,-3.8309,-3.7212,-3.6961,-3.6342,-3.5839,-3.5723,-3.5704,-3.5704,-3.5704,-3.5704,-3.5704,-3.5704,-3.5704,-3.5742,-3.5858,-3.5878,-3.5936,-3.6071,-3.6709,-3.7104,-3.71,-3.7931,-3.8022,-3.7225,-3.7906,-3.8689,-3.9484,-4.015,-4.0531,-4.058,-4.0531,-4.0531,-4.058,-4.0531,-4.0496,-4.0496,-4.0496,-4.0496,-4.0504,-4.0615,-4.0668,-4.0668,-4.0668,-4.07,-4.073,-4.0646,-4.0672,-4.0759,-5.0712,-5.0712,-5.0712,-5.0712,-5.0712,-5.0712,-5.0712,-5.0712,-5.0654,-5.0519,-4.9106,-4.8048,-4.7932,-4.6555,-4.5637,-4.5637,-4.5752,-4.5865,-4.5935,-4.5948,-4.601,-4.6138,-4.6134,-4.6175,-4.63,-4.63,-4.587,-4.499,-4.3997,-4.3099,-4.2283,-4.1263,-4.0756,-4.0694,-4.0564,-4.0496,-4.0496,-4.0504,-4.0539,-4.0607,-4.0622,-4.0646,-4.07,-4.0707,-4.0746,-4.0797,-4.0797,-4.0797,-4.0797,-4.0797,-4.0694,-4.0552,-4.0552,-4.0458,-4.0334,-4.0334,-4.0351,-4.0367,-4.0342,-4.0351,-4.0386,-4.0386,-4.0386,-4.0386,-4.0386,-4.035,-4.0147,-3.9473,-3.9206,-3.8649,-3.7174,-3.6806,-3.6497,-3.58,-3.5704,-3.5704,-3.5704,-3.5704,-3.5704,-3.5704,-3.5704,-3.5974,-3.6651,-3.6709,-3.7019,-3.7748,-3.7922,-3.7999,-3.7994,-3.8812,-3.9212,-3.8999,-3.9122,-3.959,-4.0388,-4.0473,-4.0516,-4.0523,-4.0496,-4.0516,-4.0523,-4.0496,-4.0496,-4.0496,-4.0496,-4.0496,-4.0496,-4.0519,-4.0534,-4.0534,-4.0534,-4.0542,-4.0549,-4.0588,-4.0605,-4.0635,-5.0712,-5.0712,-5.0712,-5.0712,-5.0712,-5.0712,-5.0712,-5.0712,-5.0539,-5.0048,-4.8894,-4.7932,-4.7509,-4.6336,-4.5594,-4.5594,-4.5671,-4.5712,-4.574,-4.5844,-4.5963,-4.6098,-4.6109,-4.6159,-4.63,-4.63,-4.6105,-4.5695,-4.4367,-4.3417,-4.2868,-4.1455,-4.0718,-4.0581,-4.0527,-4.0496,-4.0496,-4.0496,-4.0523,-4.0539,-4.06,-4.0629,-4.0646,-4.0647,-4.0694,-4.0746,-4.0746,-4.0778,-4.0797,-4.0797,-4.0668,-4.0511,-4.0511,-4.0359,-4.0185,-4.0185,-4.0185,-4.0203,-4.0283,-4.0248,-4.0203,-4.0283,-4.0309,-4.0309,-4.0309,-4.0351,-4.0295,-3.9911,-3.9605,-3.9142,-3.8344,-3.748,-3.6787,-3.6419,-3.5974,-3.5704,-3.5704,-3.5704,-3.5858,-3.6284,-3.6342,-3.669,-3.7516,-3.7593,-3.7767,-3.8174,-3.8624,-3.8895,-3.8895,-3.9689,-4.0127,-4.0094,-4.002,-4.0176,-4.0539,-4.0523,-4.0496,-4.0496,-4.0496,-4.0496,-4.0496,-4.0496,-4.0496,-4.0496,-4.0496,-4.0496,-4.0496,-4.0496,-4.0496,-4.0496,-4.0496,-4.0523,-4.0565,-4.058,-4.0624,-4.0661,-5.0712,-5.0712,-5.0712,-5.0712,-5.0712,-5.0712,-5.0712,-5.0712,-5.0385,-4.951,-4.8644,-4.7798,-4.6981,-4.6124,-4.5594,-4.5594,-4.5594,-4.5594,-4.5594,-4.5735,-4.5892,-4.602,-4.6041,-4.6102,-4.6209,-4.6211,-4.6216,-4.6247,-4.4675,-4.3848,-4.3694,-4.1888,-4.0969,-4.0819,-4.0608,-4.0496,-4.0496,-4.0496,-4.0496,-4.0496,-4.0565,-4.06,-4.0588,-4.0605,-4.064,-4.0687,-4.0694,-4.0739,-4.0778,-4.0746,-4.0607,-4.0446,-4.0415,-4.0239,-4.0041,-4.0041,-4.0041,-4.009,-4.0176,-4.0139,-4.0071,-4.0176,-4.0203,-4.0203,-4.0203,-4.023,-4.0257,-4.0257,-3.9884,-3.9521,-3.9329,-3.8325,-3.7444,-3.7251,-3.669,-3.6284,-3.6284,-3.6284,-3.6516,-3.7135,-3.7193,-3.7541,-3.8431,-3.8508,-3.8586,-3.8798,-3.9423,-3.9791,-3.9791,-4.0372,-4.0687,-4.0673,-4.0576,-4.0531,-4.0531,-4.0516,-4.0496,-4.0496,-4.0496,-4.0496,-4.0496,-4.0496,-4.0496,-4.0496,-4.0496,-4.0496,-4.0496,-4.0496,-4.0496,-4.0496,-4.0496,-4.0531,-4.0573,-4.0573,-4.0617,-4.0673,-5.0712,-5.0712,-5.0712,-5.0712,-5.0712,-5.0712,-5.0712,-5.0712,-5.0385,-4.951,-4.8644,-4.7798,-4.6981,-4.6124,-4.5594,-4.5594,-4.5594,-4.5594,-4.5594,-4.562,-4.5673,-4.5808,-4.5875,-4.592,-4.5925,-4.5925,-4.5992,-4.6109,-4.5049,-4.4593,-4.4642,-4.2715,-4.1816,-4.1757,-4.0892,-4.0496,-4.0496,-4.0496,-4.0496,-4.0496,-4.0516,-4.0539,-4.0607,-4.0588,-4.0598,-4.0621,-4.0687,-4.07,-4.0694,-4.0566,-4.0423,-4.03,-4.0177,-4.003,-3.9922,-3.9922,-3.9922,-3.9922,-3.9933,-3.9933,-3.9922,-3.9933,-3.9943,-3.9943,-3.9943,-4.003,-4.012,-4.012,-4.0279,-4.0176,-3.9444,-3.929,-3.9036,-3.8237,-3.8057,-3.8019,-3.8019,-3.8019,-3.8038,-3.8096,-3.8096,-3.845,-3.9327,-3.9404,-3.9733,-4.0545,-4.0681,-4.07,-4.07,-4.0701,-4.0666,-4.0615,-4.0607,-4.058,-4.058,-4.0531,-4.0496,-4.0496,-4.0496,-4.0496,-4.0496,-4.0496,-4.0496,-4.0496,-4.0496,-4.0496,-4.0496,-4.0496,-4.0496,-4.0496,-4.0496,-4.0496,-4.0516,-4.0516,-4.0546,-4.0603,-5.0712,-5.0712,-5.0712,-5.0712,-5.0712,-5.0519,-4.9971,-4.9894,-4.9394,-4.8029,-4.7567,-4.7028,-4.6182,-4.5806,-4.5594,-4.5594,-4.5594,-4.5594,-4.5594,-4.5594,-4.5651,-4.58,-4.5858,-4.5899,-4.5899,-4.5899,-4.592,-4.5983,-4.506,-4.4597,-4.4594,-4.3311,-4.269,-4.2634,-4.2271,-4.1816,-4.1316,-4.1316,-4.0989,-4.0496,-4.0496,-4.0523,-4.0539,-4.0539,-4.0561,-4.0598,-4.0633,-4.0661,-4.07,-4.0694,-4.0559,-4.0399,-4.0266,-4.0139,-4.0,-3.9914,-3.99,-3.99,-3.99,-3.99,-3.99,-3.99,-3.99,-3.99,-3.99,-3.9935,-3.9977,-3.9977,-4.012,-4.0152,-3.9846,-3.9487,-3.913,-3.8815,-3.836,-3.808,-3.808,-3.8157,-3.8411,-3.8934,-3.9011,-3.9346,-4.0216,-4.0313,-4.0448,-4.0777,-4.0752,-4.0739,-4.0739,-4.0666,-4.061,-4.0539,-4.0539,-4.0539,-4.0539,-4.0504,-4.0496,-4.0496,-4.0496,-4.0496,-4.0496,-4.0496,-4.0496,-4.0496,-4.0496,-4.0496,-4.0496,-4.0496,-4.0496,-4.0496,-4.0496,-4.0496,-4.0516,-4.0558,-4.0573,-4.0595,-5.0712,-5.0712,-5.0712,-5.0712,-5.0481,-5.0087,-4.949,-4.9163,-4.849,-4.7077,-4.6904,-4.6567,-4.571,-4.5594,-4.5594,-4.5594,-4.5594,-4.5594,-4.5594,-4.5594,-4.5646,-4.5727,-4.5776,-4.5803,-4.5803,-4.5803,-4.5828,-4.5869,-4.5234,-4.4918,-4.4898,-4.3965,-4.3516,-4.347,-4.3201,-4.2777,-4.222,-4.222,-4.1854,-4.1285,-4.1008,-4.0912,-4.0873,-4.0593,-4.0531,-4.0573,-4.0598,-4.0626,-4.066,-4.0598,-4.0519,-4.0403,-4.0175,-4.0091,-4.002,-3.9933,-3.99,-3.99,-3.99,-3.99,-3.99,-3.99,-3.99,-3.99,-3.99,-3.99,-3.99,-3.99,-4.0,-4.0101,-4.0101,-3.9755,-3.9487,-3.9487,-3.9042,-3.8746,-3.8782,-3.8858,-3.9168,-3.9823,-3.9907,-4.0139,-4.0739,-4.0797,-4.0797,-4.0797,-4.0739,-4.0687,-4.0666,-4.0617,-4.0573,-4.0496,-4.0496,-4.0496,-4.0496,-4.0496,-4.0496,-4.0496,-4.0496,-4.0496,-4.0496,-4.0496,-4.0496,-4.0496,-4.0496,-4.0496,-4.0496,-4.0496,-4.0496,-4.0496,-4.0496,-4.0496,-4.0516,-4.0546,-4.0573,-4.0573,-5.0712,-5.0712,-5.0712,-5.0693,-4.9971,-4.9394,-4.9375,-4.8644,-4.7798,-4.7,-4.6885,-4.6567,-4.5691,-4.5594,-4.5594,-4.5594,-4.5594,-4.5594,-4.5594,-4.5594,-4.5594,-4.5594,-4.5594,-4.5594,-4.5594,-4.5594,-4.566,-4.58,-4.566,-4.5668,-4.578,-4.4792,-4.4316,-4.4278,-4.347,-4.3124,-4.3104,-4.3104,-4.3104,-4.3028,-4.2162,-4.1808,-4.1712,-4.0854,-4.0516,-4.0543,-4.0592,-4.0626,-4.0569,-4.0223,-4.0205,-4.0252,-3.9859,-3.9811,-3.9919,-3.9919,-3.9919,-3.9919,-3.99,-3.99,-3.99,-3.99,-3.99,-3.99,-3.99,-3.99,-3.99,-3.99,-4.0019,-4.0101,-4.0101,-4.0203,-4.03,-4.03,-4.03,-4.0351,-4.0488,-4.0503,-4.0574,-4.0759,-4.079,-4.0797,-4.0797,-4.0797,-4.0797,-4.0797,-4.0739,-4.0666,-4.0588,-4.0607,-4.0573,-4.0496,-4.0496,-4.0496,-4.0496,-4.0496,-4.0496,-4.0496,-4.0496,-4.0496,-4.0496,-4.0496,-4.0496,-4.0496,-4.0496,-4.0496,-4.0496,-4.0496,-4.0496,-4.0496,-4.0496,-4.0496,-4.0496,-4.0496,-4.0496,-4.0504,-5.0712,-5.0712,-5.0519,-4.9894,-4.9567,-4.899,-4.7836,-4.7432,-4.6951,-4.6105,-4.599,-4.5893,-4.5633,-4.5594,-4.5594,-4.5594,-4.5594,-4.5594,-4.5594,-4.5594,-4.5594,-4.5594,-4.5594,-4.5594,-4.5594,-4.5594,-4.562,-4.5651,-4.562,-4.562,-4.5651,-4.5351,-4.521,-4.521,-4.496,-4.4509,-4.3932,-4.3932,-4.3624,-4.3085,-4.2816,-4.272,-4.2681,-4.2412,-4.2316,-4.2324,-4.2345,-4.2341,-4.2317,-4.2085,-4.201,-4.1992,-4.1697,-4.1616,-4.1529,-4.098,-4.0809,-4.0677,-4.0071,-3.99,-3.99,-3.99,-3.99,-3.99,-3.99,-3.99,-3.99,-3.99,-3.9924,-3.9956,-3.9956,-3.9979,-4.002,-4.002,-4.0101,-4.0167,-4.0203,-4.03,-4.0375,-4.0434,-4.0537,-4.0581,-4.0581,-4.0713,-4.0797,-4.0797,-4.0681,-4.0593,-4.0539,-4.0531,-4.0523,-4.0496,-4.0496,-4.0496,-4.0496,-4.0496,-4.0496,-4.0496,-4.0496,-4.0496,-4.0496,-4.0496,-4.0496,-4.0496,-4.0496,-4.0496,-4.0496,-4.0496,-4.0496,-4.0496,-4.0496,-4.0496,-4.0496,-4.0496,-4.0496,-4.0496,-4.9663,-4.9663,-4.951,-4.8971,-4.8625,-4.8067,-4.7038,-4.6605,-4.6201,-4.5671,-4.5594,-4.5594,-4.5594,-4.5594,-4.5594,-4.5594,-4.5594,-4.5594,-4.5594,-4.5594,-4.5594,-4.5594,-4.5594,-4.5594,-4.5594,-4.5594,-4.5594,-4.5594,-4.5594,-4.5594,-4.5594,-4.5594,-4.5594,-4.5594,-4.5594,-4.5306,-4.4797,-4.4797,-4.4528,-4.4066,-4.3701,-4.3566,-4.3547,-4.322,-4.3104,-4.3104,-4.3099,-4.3038,-4.2905,-4.2689,-4.2548,-4.2452,-4.2356,-4.237,-4.2287,-4.1825,-4.1662,-4.1548,-4.1037,-4.0885,-4.0809,-4.0487,-4.0165,-3.99,-3.99,-3.99,-3.99,-3.99,-3.99,-3.99,-3.99,-3.99,-3.99,-3.99,-3.9967,-4.004,-4.0091,-4.0157,-4.0239,-4.0281,-4.0427,-4.0508,-4.0508,-4.0621,-4.0726,-4.0713,-4.0653,-4.0564,-4.0496,-4.0496,-4.0496,-4.0496,-4.0496,-4.0496,-4.0496,-4.0496,-4.0496,-4.0496,-4.0496,-4.0496,-4.0496,-4.0496,-4.0496,-4.0496,-4.0496,-4.0496,-4.0496,-4.0496,-4.0496,-4.0496,-4.0496,-4.0496,-4.0496,-4.0496,-4.0496,-4.0496,-4.8106,-4.8096,-4.8077,-4.8009,-4.7394,-4.6865,-4.6797,-4.6105,-4.5594,-4.5594,-4.5594,-4.5594,-4.5594,-4.5594,-4.5594,-4.5594,-4.5594,-4.5594,-4.5594,-4.5594,-4.5594,-4.5594,-4.5594,-4.5594,-4.5594,-4.5594,-4.5594,-4.5594,-4.5594,-4.5594,-4.5594,-4.5594,-4.5594,-4.5594,-4.5594,-4.5594,-4.5594,-4.5594,-4.5594,-4.5537,-4.4739,-4.4412,-4.4335,-4.3605,-4.3316,-4.3316,-4.3299,-4.3138,-4.2886,-4.2591,-4.236,-4.2237,-4.236,-4.2497,-4.2598,-4.2522,-4.2515,-4.2507,-4.2431,-4.2401,-4.2211,-4.1491,-4.0715,-4.0089,-3.9938,-3.99,-3.99,-3.99,-3.99,-3.99,-3.99,-3.99,-3.99,-3.99,-3.99,-3.9935,-4.0051,-4.0081,-4.0129,-4.022,-4.0389,-4.0438,-4.043,-4.0515,-4.0579,-4.0607,-4.0607,-4.0573,-4.0496,-4.0496,-4.0496,-4.0496,-4.0496,-4.0496,-4.0496,-4.0496,-4.0496,-4.0496,-4.0496,-4.0496,-4.0496,-4.0496,-4.0496,-4.0496,-4.0496,-4.0496,-4.0496,-4.0496,-4.0496,-4.0496,-4.0496,-4.0496,-4.0496,-4.0496,-4.0496,-4.0496,-4.8097,-4.8107,-4.7905,-4.7269,-4.7019,-4.6682,-4.599,-4.5729,-4.5594,-4.5594,-4.5594,-4.5594,-4.5594,-4.5594,-4.5594,-4.5594,-4.5594,-4.5594,-4.5594,-4.5594,-4.5594,-4.5594,-4.5594,-4.5594,-4.5594,-4.5594,-4.5594,-4.5594,-4.5594,-4.5594,-4.5594,-4.5594,-4.5594,-4.5594,-4.5594,-4.5594,-4.5594,-4.5594,-4.5594,-4.5575,-4.5402,-4.5325,-4.5306,-4.5114,-4.5056,-4.503,-4.4815,-4.4707,-4.4584,-4.4121,-4.3881,-4.3801,-4.383,-4.4006,-4.409,-4.3448,-4.3333,-4.3265,-4.2602,-4.2401,-4.2363,-4.2174,-4.2003,-4.151,-4.0203,-3.99,-3.99,-3.99,-3.99,-3.99,-3.99,-3.99,-3.99,-3.99,-3.99,-3.9911,-3.9935,-3.9935,-3.9924,-3.9843,-4.0032,-4.0101,-3.9893,-4.0165,-4.0438,-4.058,-4.0607,-4.0573,-4.0496,-4.0496,-4.0496,-4.0496,-4.0496,-4.0496,-4.0496,-4.0496,-4.0496,-4.0496,-4.0496,-4.0496,-4.0496,-4.0496,-4.0496,-4.0496,-4.0496,-4.0496,-4.0496,-4.0496,-4.0496,-4.0496,-4.0496,-4.0496,-4.0496,-4.0496,-4.0496,-4.0496,-4.682,-4.681,-4.6676,-4.6263,-4.6214,-4.6069,-4.5617,-4.5577,-4.5594,-4.5594,-4.5594,-4.5594,-4.5594,-4.5594,-4.5594,-4.5594,-4.5594,-4.5594,-4.5594,-4.5594,-4.5594,-4.5594,-4.5594,-4.5594,-4.5594,-4.5594,-4.5594,-4.5594,-4.5594,-4.5594,-4.5594,-4.5594,-4.5594,-4.5594,-4.5594,-4.5594,-4.5594,-4.5594,-4.5594,-4.5594,-4.5594,-4.5594,-4.5594,-4.5594,-4.5513,-4.54,-4.5243,-4.5041,-4.4763,-4.4346,-4.4244,-4.43,-4.43,-4.4444,-4.453,-4.4103,-4.4024,-4.3989,-4.3599,-4.351,-4.3427,-4.309,-4.3019,-4.2678,-4.1397,-4.079,-4.0525,-4.0525,-4.0184,-3.99,-3.99,-3.99,-3.99,-3.99,-3.99,-3.99,-3.99,-3.99,-3.9837,-3.9717,-3.9884,-3.9939,-3.9765,-4.0053,-4.0313,-4.04,-4.05,-4.0531,-4.0496,-4.0496,-4.0496,-4.0496,-4.0496,-4.0496,-4.0496,-4.0496,-4.0496,-4.0496,-4.0496,-4.0496,-4.0496,-4.0496,-4.0496,-4.0496,-4.0496,-4.0496,-4.0496,-4.0496,-4.0496,-4.0496,-4.0496,-4.0496,-4.0496,-4.0496,-4.0496,-4.0496,-4.54,-4.539,-4.539,-4.54,-4.5438,-4.5485,-4.5485,-4.555,-4.5577,-4.5577,-4.5586,-4.5594,-4.5594,-4.5594,-4.5594,-4.5594,-4.5594,-4.5594,-4.5594,-4.5594,-4.5594,-4.5594,-4.5594,-4.5594,-4.5594,-4.5594,-4.5594,-4.5594,-4.5594,-4.5594,-4.5594,-4.5594,-4.5594,-4.5594,-4.5594,-4.5594,-4.5594,-4.5594,-4.5594,-4.5594,-4.5594,-4.5594,-4.5586,-4.5559,-4.5381,-4.5191,-4.5096,-4.4751,-4.4289,-4.4079,-4.4097,-4.4255,-4.4255,-4.4358,-4.4473,-4.4473,-4.4487,-4.451,-4.4632,-4.4672,-4.4529,-4.3983,-4.3837,-4.366,-4.2953,-4.2067,-4.1397,-4.1397,-4.0715,-4.0127,-4.0127,-3.9995,-3.99,-3.99,-3.99,-3.99,-3.99,-3.9878,-3.9815,-3.9682,-3.9728,-3.9766,-3.9783,-3.9983,-4.0148,-4.0205,-4.04,-4.0496,-4.0496,-4.0496,-4.0496,-4.0496,-4.0496,-4.0496,-4.0496,-4.0496,-4.0496,-4.0496,-4.0496,-4.0496,-4.0496,-4.0496,-4.0496,-4.0496,-4.0496,-4.0496,-4.0496,-4.0496,-4.0496,-4.0496,-4.0496,-4.0496,-4.0496,-4.0496,-4.0496,-4.0496,-4.5389,-4.5399,-4.539,-4.54,-4.541,-4.5419,-4.5419,-4.5476,-4.5513,-4.5513,-4.5568,-4.5594,-4.5594,-4.5594,-4.5594,-4.5594,-4.5594,-4.5594,-4.5594,-4.5594,-4.5594,-4.5594,-4.5594,-4.5594,-4.5594,-4.5594,-4.5594,-4.5594,-4.5594,-4.5594,-4.5594,-4.5594,-4.5594,-4.5594,-4.5594,-4.5594,-4.5594,-4.5594,-4.5594,-4.5594,-4.5594,-4.5594,-4.5577,-4.5342,-4.5232,-4.5129,-4.4657,-4.4303,-4.4048,-4.4002,-4.402,-4.4036,-4.4036,-4.4177,-4.4329,-4.4329,-4.4416,-4.4496,-4.451,-4.4528,-4.4505,-4.4406,-4.4401,-4.439,-4.4391,-4.3276,-4.223,-4.223,-4.1586,-4.1018,-4.1018,-4.0412,-3.99,-3.99,-3.99,-3.99,-3.99,-3.9804,-3.9682,-3.9532,-3.9337,-3.9331,-3.9675,-3.9794,-3.9953,-4.0177,-4.04,-4.0496,-4.0496,-4.0496,-4.0496,-4.0496,-4.0496,-4.0496,-4.0496,-4.0496,-4.0496,-4.0496,-4.0496,-4.0496,-4.0496,-4.0496,-4.0496,-4.0496,-4.0496,-4.0496,-4.0496,-4.0496,-4.0496,-4.0496,-4.0496,-4.0496,-4.0496,-4.0496,-4.0496,-4.0496,-4.4838,-4.4838,-4.4898,-4.5041,-4.5096,-4.518,-4.5361,-4.5429,-4.5467,-4.5495,-4.5541,-4.5559,-4.5605,-4.5594,-4.5594,-4.5594,-4.5594,-4.5594,-4.5594,-4.5594,-4.5594,-4.5594,-4.5594,-4.5594,-4.5594,-4.5594,-4.5594,-4.5594,-4.5594,-4.5594,-4.5594,-4.5594,-4.5594,-4.5594,-4.5594,-4.5594,-4.5594,-4.5594,-4.5594,-4.5594,-4.5594,-4.5594,-4.5586,-4.5476,-4.5332,-4.5129,-4.4599,-4.4236,-4.4005,-4.4005,-4.4005,-4.4005,-4.4005,-4.4051,-4.4131,-4.4131,-4.4158,-4.4252,-4.4373,-4.4387,-4.4401,-4.4487,-4.4501,-4.4515,-4.4565,-4.4067,-4.3485,-4.3192,-4.2469,-4.187,-4.187,-4.1548,-4.1109,-4.0586,-4.0499,-4.0325,-3.9757,-3.9623,-3.9551,-3.9395,-3.9219,-3.9183,-3.935,-3.9525,-3.9728,-3.9953,-4.0204,-4.0372,-4.0489,-4.0496,-4.0496,-4.0496,-4.0496,-4.0496,-4.0496,-4.0496,-4.0496,-4.0496,-4.0496,-4.0496,-4.0496,-4.0496,-4.0496,-4.0496,-4.0496,-4.0496,-4.0496,-4.0496,-4.0496,-4.0496,-4.0496,-4.0496,-4.0496,-4.0496,-4.0496,-4.0496]},{"header":{"parameterUnit":"m.s-1","parameterCategory":1,"la1":30.6,"la2":28.766,"lo1":-90.7593,"lo2":-88.6598,"dy":0.0162,"dx":0.0183,"nx":116,"ny":114,"refTime":"2023-05-05T00:00:00:Z","depth":0,"parameterNumber":3,"parameterNumberName":"V-component_of_WINDS"},"data":[0.0,0.0,0.0,0.0,0.0,0.0,0.0,0.0,0.0,0.0,0.0,0.0,0.0,0.0,0.0,0.0,0.0,0.0,0.0,0.0,0.0,0.0,0.0,0.0,0.0,0.0,0.0,0.0,0.0,0.0,0.0,0.0,0.0,0.0,0.0,0.0,0.0,0.0,0.0,0.0,0.0,0.0,0.0,0.0,0.0,0.0,0.0,0.0,0.0,0.0,0.0,0.0,0.0,0.0,0.0,0.0,0.0,0.0,0.0,0.0,0.0,0.0,0.0,0.0,0.0,0.0,0.0,0.0,0.0,0.0,0.0,0.0,0.0,0.0,0.0,0.0,0.0,0.0,0.0,0.0,0.0,0.0,0.0,0.0,0.0,0.0,0.0,0.0,0.0,0.0,0.0,0.0,0.0,0.0,0.0,0.0,0.0,0.0,0.0,0.0,0.0,0.0,0.0,0.0,0.0,0.0,0.0,0.0,0.0,0.0,0.0,0.0,0.0,0.0,0.0,0.0,0.0,0.0,0.0,0.0,0.0,0.0,0.0,0.0,0.0,0.0,0.0,0.0,0.0,0.0,0.0,0.0,0.0,0.0,0.0,0.0,0.0,0.0,0.0,0.0,0.0,0.0,0.0,0.0,0.0,0.0,0.0,0.0,0.0,0.0,0.0,0.0,0.0,0.0,0.0,0.0,0.0,0.0,0.0,0.0,0.0,0.0,0.0,0.0,0.0,0.0,0.0,0.0,0.0,0.0,0.0,0.0,0.0,0.0,0.0,0.0,0.0,0.0,0.0,0.0,0.0,0.0,0.0,0.0,0.0,0.0,0.0,0.0,0.0,0.0,0.0,0.0,0.0,0.0,0.0,0.0,0.0,0.0,0.0,0.0,0.0,0.0,0.0,0.0,0.0,0.0,0.0,0.0,0.0,0.0,0.0,0.0,0.0,0.0,0.0,0.0,0.0,0.0,0.0,0.0,0.0,0.0,0.0,0.0,0.0,0.0,0.0,0.0,0.0,0.0,0.0,0.0,0.0,0.0,0.0,0.0,0.0,0.0,0.0,0.0,0.0,0.0,0.0,0.0,0.0,0.0,0.0,0.0,0.0,0.0,0.0,0.0,0.0,0.0,0.0,0.0,0.0,0.0,0.0,0.0,0.0,0.0,0.0,0.0,0.0,0.0,0.0,0.0,0.0,0.0,0.0,0.0,0.0,0.0,0.0,0.0,0.0,0.0,0.0,0.0,0.0,0.0,0.0,0.0,0.0,0.0,0.0,0.0,0.0,0.0,0.0,0.0,0.0,0.0,0.0,0.0,0.0,0.0,0.0,0.0,0.0,0.0,0.0,0.0,0.0,0.0,0.0,0.0,0.0,0.0,0.0,0.0,0.0,0.0,0.0,0.0,0.0,0.0,0.0,0.0,0.0,0.0,0.0,0.0,0.0,0.0,0.0,0.0,0.0,0.0,0.0,0.0,0.0,0.0,0.0,0.0,0.0,0.0,0.0,0.0,0.0,0.0,0.0,0.0,0.0,0.0,0.0,0.0,0.0,0.0,0.0,0.0,0.0,0.0,0.0,0.0,0.0,0.0,0.0,0.0,0.0,0.0,0.0,0.0,0.0,0.0,0.0,0.0,0.0,0.0,0.0,0.0,0.0,0.0,0.0,0.0,0.0,0.0,0.0,0.0,0.0,0.0,0.0,0.0,0.0,0.0,0.0,0.0,0.0,0.0,0.0,0.0,0.0,0.0,0.0,0.0,0.0,0.0,0.0,0.0,0.0,0.0,0.0,0.0,0.0,0.0,0.0,0.0,0.0,0.0,0.0,0.0,0.0,0.0,0.0,0.0,0.0,0.0,0.0,0.0,0.0,0.0,0.0,0.0,0.0,0.0,0.0,0.0,0.0,0.0,0.0,0.0,0.0,0.0,0.0,0.0,0.0,0.0,0.0,0.0,0.0,0.0,0.0,0.0,0.0,0.0,0.0,0.0,0.0,0.0,0.0,0.0,0.0,0.0,0.0,0.0,0.0,0.0,0.0,0.0,0.0,0.0,0.0,0.0,0.0,0.0,0.0,0.0,0.0,0.0,0.0,0.0,0.0,0.0,0.0,0.0,0.0,0.0,0.0,0.0,0.0,0.0,0.0,0.0,0.0,0.0,0.0,0.0,0.0,0.0,0.0,0.0,0.0,0.0,0.0,0.0,0.0,0.0,0.0,0.0,0.0,0.0,0.0,0.0,0.0,0.0,0.0,0.0,0.0,0.0,0.0,0.0,0.0,0.0,0.0,0.0,0.0,0.0,0.0,0.0,0.0,0.0,0.0,0.0,0.0,0.0,0.0,0.0,0.0,0.0,0.0,0.0,0.0,0.0,0.0,0.0,0.0,0.0,0.0,0.0,0.0,0.0,0.0,0.0,0.0,0.0,0.0,0.0,0.0,0.0,0.0,0.0,0.0,0.0,0.0,0.0,0.0,0.0,0.0,0.0,0.0,0.0,0.0,0.0,0.0,0.0,0.0,0.0,0.0,0.0,0.0,0.0,0.0,0.0,0.0,0.0,0.0,0.0,0.0,0.0,0.0,0.0,0.0,0.0,0.0,0.0,0.0,0.0,0.0,0.0,0.0,0.0,0.0,0.0,0.0,0.0,0.0,0.0,0.0,0.0,0.0,0.0,0.0,0.0,0.0,0.0,0.0,0.0,0.0,0.0,0.0,0.0,0.0,0.0,0.0,0.0,0.0,0.0,0.0,0.0,0.0,0.0,0.0,0.0,0.0,0.0,0.0,0.0,0.0,0.0,0.0,0.0,0.0,0.0,0.0,0.0,0.0,0.0,0.0,0.0,0.0,0.0,0.0,0.0,0.0,0.0,0.0,0.0,0.0,0.0,0.0,0.0,0.0,0.0,0.0,0.0,0.0,0.0,0.0,0.0,0.0,0.0,0.0,0.0,0.0,0.0,0.0,0.0,0.0,0.0,0.0,0.0,0.0,0.0,0.0,0.0,0.0,0.0,0.0,0.0,0.0,0.0,0.0,0.0,0.0,0.0,0.0,0.0,0.0,0.0,0.0,0.0,0.0,0.0,0.0,0.0,0.0,0.0,0.0,0.0,0.0,0.0,0.0,0.0,0.0,0.0,0.0,0.0,0.0,0.0,0.0,0.0,0.0,0.0,0.0,0.0,0.0,0.0,0.0,0.0,0.0,0.0,0.0,0.0,0.0,0.0,0.0,0.0,0.0,0.0,0.0,0.0,0.0,0.0,0.0,0.0,0.0,0.0,0.0,0.0,0.0,0.0,0.0,0.0,0.0,0.0,0.0,0.0,0.0,0.0,0.0,0.0,0.0,0.0,0.0,0.0,0.0,0.0,0.0,0.0,0.0,0.0,0.0,0.0,0.0,0.0,0.0,0.0,0.0,0.0,0.0,0.0,0.0,0.0,0.0,0.0,0.0,0.0,0.0,0.0,0.0,0.0,0.0,0.0,0.0,0.0,0.0,0.0,0.0,0.0,0.0,0.0,0.0,0.0,0.0,0.0,0.0,0.0,0.0,0.0,0.0,0.0,0.0,0.0,0.0,0.0,0.0,0.0,0.0,0.0,0.0,0.0,0.0,0.0,0.0,0.0,0.0,0.0,0.0,0.0,0.0,0.0,0.0,0.0,0.0,0.0,0.0,0.0,0.0,0.0,0.0,0.0,0.0,0.0,0.0,0.0,0.0,0.0,0.0,0.0,0.0,0.0,0.0,0.0,0.0,0.0,0.0,0.0,0.0,0.0,0.0,0.0,0.0,0.0,0.0,0.0,0.0,0.0,0.0,0.0,0.0,0.0,0.0,0.0,0.0,0.0,0.0,0.0,0.0,0.0,0.0,0.0,0.0,0.0,0.0,0.0,0.0,0.0,0.0,0.0,0.0,0.0,0.0,0.0,0.0,0.0,0.0,0.0,0.0,0.0,0.0,0.0,0.0,0.0,0.0,0.0,0.0,0.0,0.0,0.0,0.0,0.0,0.0,0.0,0.0,0.0,0.0,0.0,0.0,0.0,0.0,0.0,0.0,0.0,0.0,0.0,0.0,0.0,0.0,0.0,0.0,0.0,0.0,0.0,0.0,0.0,0.0,0.0,0.0,0.0,0.0,0.0,0.0,0.0,0.0,0.0,0.0,0.0,0.0,0.0,0.0,0.0,0.0,0.0,0.0,0.0,0.0,0.0,0.0,0.0,0.0,0.0,0.0,0.0,0.0,0.0,0.0,0.0,0.0,0.0,0.0,0.0,0.0,0.0,0.0,0.0,0.0,0.0,0.0,0.0,0.0,0.0,0.0,0.0,0.0,0.0,0.0,0.0,0.0,0.0,0.0,0.0,0.0,0.0,0.0,0.0,0.0,0.0,0.0,0.0,0.0,0.0,0.0,0.0,0.0,0.0,0.0,0.0,0.0,0.0,0.0,0.0,0.0,0.0,0.0,0.0,0.0,0.0,0.0,0.0,0.0,0.0,0.0,0.0,0.0,0.0,0.0,0.0,0.0,0.0,0.0,0.0,0.0,0.0,0.0,0.0,0.0,0.0,0.0,0.0,0.0,0.0,0.0,0.0,0.0,0.0,0.0,0.0,0.0,0.0,0.0,0.0,0.0,0.0,0.0,0.0,0.0,0.0,0.0,0.0,0.0,0.0,0.0,0.0,0.0,0.0,0.0,0.0,0.0,0.0,0.0,0.0,0.0,0.0,0.0,0.0,0.0,0.0,0.0,0.0,0.0,0.0,0.0,0.0,0.0,0.0,0.0,0.0,0.0,0.0,0.0,0.0,0.0,0.0,0.0,0.0,0.0,0.0,0.0,0.0,0.0,0.0,0.0,0.0,0.0,0.0,0.0,0.0,0.0,0.0,0.0,0.0,0.0,0.0,0.0,0.0,0.0,0.0,0.0,0.0,0.0,0.0,0.0,0.0,0.0,0.0,0.0,0.0,0.0,0.0,0.0,0.0,0.0,0.0,0.0,0.0,0.0,0.0,0.0,0.0,0.0,0.0,0.0,0.0,0.0,0.0,0.0,0.0,0.0,0.0,0.0,0.0,0.0,0.0,0.0,0.0,0.0,0.0,0.0,0.0,0.0,0.0,0.0,0.0,0.0,0.0,0.0,0.0,0.0,0.0,0.0,0.0,0.0,0.0,0.0,0.0,0.0,0.0,0.0,0.0,0.0,0.0,0.0,0.0,0.0,0.0,0.0,0.0,0.0,0.0,0.0,0.0,0.0,0.0,0.0,0.0,0.0,0.0,0.0,0.0,0.0,0.0,0.0,0.0,0.0,0.0,0.0,0.0,0.0,0.0,0.0,0.0,0.0,0.0,0.0,0.0,0.0,0.0,0.0,0.0,0.0,0.0,0.0,0.0,0.0,0.0,0.0,0.0,0.0,0.0,0.0,0.0,0.0,0.0,0.0,0.0,0.0,0.0,0.0,0.0,0.0,0.0,0.0,0.0,0.0,0.0,0.0,0.0,0.0,0.0,0.0,0.0,0.0,0.0,0.0,0.0,0.0,0.0,0.0,0.0,0.0,0.0,0.0,0.0,0.0,0.0,0.0,0.0,0.0,0.0,0.0,0.0,0.0,0.0,0.0,0.0,0.0,0.0,0.0,0.0,0.0,0.0,0.0,0.0,0.0,0.0,0.0,0.0,0.0,0.0,0.0,0.0,0.0,0.0,0.0,0.0,0.0,0.0,0.0,0.0,0.0,0.0,0.0,0.0,0.0,0.0,0.0,0.0,0.0,0.0,0.0,0.0,0.0,0.0,0.0,0.0,0.0,0.0,0.0,0.0,0.0,0.0,0.0,0.0,0.0,0.0,0.0,0.0,0.0,0.0,0.0,0.0,0.0,0.0,0.0,0.0,0.0,0.0,0.0,0.0,0.0,0.0,0.0,0.0,0.0,0.0,0.0,0.0,0.0,0.0,0.0,0.0,0.0,0.0,0.0,0.0,0.0,0.0,0.0,0.0,0.0,0.0,0.0,0.0,0.0,0.0,0.0,0.0,0.0,0.0,0.0,0.0,0.0,0.0,0.0,0.0,0.0,0.0,0.0,0.0,0.0,0.0,0.0,0.0,0.0,0.0,0.0,0.0,0.0,0.0,-1.3617,0.0,0.0,0.0,0.0,0.0,0.0,0.0,0.0,0.0,0.0,0.0,0.0,0.0,0.0,0.0,0.0,0.0,0.0,0.0,0.0,0.0,0.0,0.0,0.0,0.0,0.0,0.0,0.0,0.0,0.0,0.0,0.0,0.0,0.0,0.0,0.0,0.0,0.0,0.0,-0.2986,-0.3014,-0.3597,-0.3569,-0.3904,-0.4491,0.0,0.0,0.0,0.0,0.0,0.0,0.0,0.0,0.0,0.0,0.0,0.0,0.0,0.0,0.0,0.0,0.0,0.0,0.0,0.0,0.0,0.0,0.0,0.0,0.0,0.0,0.0,0.0,0.0,0.0,0.0,0.0,0.0,0.0,0.0,0.0,0.0,0.0,0.0,0.0,0.0,0.0,0.0,0.0,0.0,0.0,0.0,0.0,0.0,0.0,0.0,0.0,0.0,0.0,0.0,0.0,0.0,0.0,0.0,0.0,0.0,0.0,0.0,0.0,0.0,0.0,0.0,0.0,0.0,0.0,0.0,-1.4129,0.0,0.0,0.0,0.0,0.0,0.0,0.0,0.0,0.0,0.0,0.0,0.0,0.0,0.0,0.0,0.0,0.0,0.0,0.0,0.0,0.0,0.0,0.0,-0.0617,-0.1064,-0.1593,-0.1846,-0.243,0.0,0.0,0.0,0.0,0.0,0.0,0.0,-0.3153,-0.3403,-0.4491,-0.3514,-0.3264,-0.3766,-0.4267,-0.4491,-0.4491,-0.4491,0.0,0.0,0.0,0.0,0.0,0.0,0.0,0.0,0.0,0.0,0.0,0.0,0.0,0.0,0.0,0.0,0.0,0.0,0.0,0.0,0.0,0.0,0.0,0.0,0.0,0.0,0.0,0.0,0.0,0.0,0.0,0.0,0.0,0.0,0.0,0.0,0.0,0.0,0.0,0.0,0.0,0.0,0.0,0.0,0.0,0.0,0.0,0.0,0.0,0.0,0.0,0.0,0.0,0.0,0.0,0.0,0.0,0.0,0.0,0.0,0.0,0.0,0.0,-1.4656,-1.4656,-1.4656,-1.4686,-1.4636,-1.4536,-1.4734,-1.4872,-1.4911,-1.4398,0.0,0.0,0.0,0.0,0.0,0.0,0.0,0.0,0.0,0.0,0.0,0.0,0.0,0.0,0.0,0.0,0.0,0.0,0.0,0.0,0.0,-0.1148,-0.1567,-0.1762,-0.2263,-0.2875,-0.3541,0.0,0.0,0.0,0.0,0.0,-0.4377,-0.3793,-0.3821,-0.4491,-0.4349,-0.4294,-0.4377,-0.446,-0.4491,-0.4491,-0.4491,-0.4491,-0.4491,0.0,0.0,0.0,0.0,0.0,0.0,0.0,0.0,0.0,0.0,0.0,0.0,0.0,0.0,0.0,0.0,0.0,0.0,0.0,0.0,0.0,0.0,0.0,0.0,0.0,0.0,0.0,0.0,0.0,0.0,0.0,0.0,0.0,0.0,0.0,0.0,0.0,0.0,0.0,0.0,0.0,-1.3584,-1.4127,0.0,0.0,0.0,0.0,0.0,0.0,0.0,0.0,0.0,0.0,0.0,0.0,0.0,-1.4515,-1.4515,-1.4515,-1.4506,-1.4536,-1.4536,-1.4536,-1.4536,-1.4666,-1.4686,-1.4656,-1.4282,0.0,-1.4745,-1.4813,0.0,0.0,0.0,0.0,0.0,0.0,0.0,0.0,0.0,0.0,0.0,0.0,0.0,0.0,0.0,0.0,0.0,0.0,0.0,0.0,0.0,-0.1511,-0.2012,-0.2736,-0.3042,-0.3461,-0.4073,-0.4098,0.0,0.0,0.0,-0.4239,-0.4491,-0.4239,-0.4239,-0.4491,-0.4491,-0.4491,-0.4491,-0.4491,-0.4491,-0.4491,-0.4491,-0.4491,-0.4491,-0.4491,0.0,0.0,0.0,0.0,0.0,0.0,0.0,0.0,0.0,0.0,0.0,0.0,0.0,0.0,0.0,0.0,0.0,0.0,0.0,0.0,0.0,0.0,0.0,0.0,0.0,0.0,0.0,0.0,0.0,0.0,0.0,0.0,0.0,0.0,0.0,0.0,0.0,0.0,0.0,-1.3078,-1.3761,-1.4417,-1.4169,-1.3941,0.0,0.0,0.0,0.0,0.0,0.0,0.0,0.0,0.0,-1.4476,-1.4515,-1.4515,-1.4515,-1.4515,-1.4536,-1.4606,-1.4606,-1.4606,-1.4606,-1.4784,-1.4804,-1.4715,-1.4677,-1.4588,-1.4371,-1.3734,-1.3524,-1.3563,0.0,0.0,0.0,0.0,-1.1303,-1.1122,0.0,0.0,0.0,0.0,0.0,0.0,0.0,0.0,0.0,0.0,0.0,0.0,-0.1595,-0.2012,-0.2625,-0.3514,-0.3735,-0.4015,-0.446,-0.4491,-0.4491,-0.4491,-0.4491,-0.4491,-0.4491,-0.4491,-0.4491,-0.4491,-0.4491,-0.4491,-0.4491,-0.4491,-0.4491,-0.4491,-0.4491,-0.4491,-0.4491,-0.4491,-0.4491,-0.4491,0.0,0.0,0.0,0.0,0.0,0.0,0.0,0.0,0.0,0.0,0.0,0.0,0.0,0.0,0.0,0.0,0.0,0.0,0.0,0.0,0.0,0.0,0.0,0.0,0.0,0.0,0.0,0.0,0.0,0.0,0.0,0.0,0.0,0.0,0.0,0.0,0.0,-1.329,-1.3571,-1.4387,-1.392,-1.3571,0.0,0.0,0.0,0.0,0.0,0.0,-1.395,-1.3851,-1.398,-1.4485,-1.4327,-1.4282,-1.4351,-1.4191,-1.4196,-1.4367,-1.4367,-1.4367,-1.4367,-1.4529,-1.4498,-1.4367,-1.4507,-1.4285,-1.3759,-1.3136,-1.2887,-1.2864,-1.2313,-1.1981,-1.1864,-1.1833,-1.1615,-1.1334,0.0,0.0,0.0,0.0,0.0,0.0,0.0,0.0,0.0,0.0,0.0,-0.1621,-0.1762,-0.282,-0.3544,-0.3597,-0.4125,-0.446,-0.4491,-0.4491,-0.4491,-0.4491,-0.4491,-0.4491,-0.4491,-0.4491,-0.4491,-0.4491,-0.4491,-0.4491,-0.4491,-0.4491,-0.4491,-0.4491,-0.4491,-0.4491,-0.4491,-0.4491,-0.4491,-0.4491,-0.4491,0.0,0.0,0.0,0.0,0.0,0.0,0.0,0.0,0.0,0.0,0.0,0.0,0.0,0.0,0.0,0.0,0.0,0.0,0.0,0.0,0.0,0.0,0.0,0.0,0.0,0.0,0.0,0.0,0.0,0.0,0.0,0.0,0.0,0.0,0.0,0.0,0.0,0.0,-1.4357,-1.392,0.0,0.0,0.0,0.0,-1.2543,-1.2543,-1.2573,-1.2604,-1.3791,-1.4476,-1.4515,-1.3881,-1.3682,-1.393,-1.3362,-1.3211,-1.3464,-1.3464,-1.3464,-1.3464,-1.3464,-1.3464,-1.3431,-1.3022,-1.2803,-1.2851,-1.3947,-1.3953,-1.3208,-1.2551,-1.2158,-1.1957,-1.149,-1.1334,-1.1334,0.0,0.0,0.0,0.0,0.0,0.0,0.0,0.0,-0.0757,-0.0814,-0.1344,-0.19,-0.2319,-0.3098,-0.3766,-0.4156,-0.4377,-0.4491,-0.4491,-0.4491,-0.4491,-0.4491,-0.4491,-0.4491,-0.4491,-0.4491,-0.4491,-0.4491,-0.4491,-0.4542,-0.4638,-0.4638,-0.4638,-0.4638,-0.4638,-0.4583,-0.4491,-0.4491,-0.4491,-0.4491,-0.4491,-0.4491,0.0,0.0,0.0,0.0,0.0,0.0,0.0,0.0,0.0,0.0,0.0,0.0,0.0,0.0,0.0,0.0,0.0,0.0,0.0,0.0,0.0,0.0,0.0,0.0,0.0,0.0,0.0,0.0,0.0,0.0,0.0,0.0,0.0,0.0,0.0,0.0,0.0,-1.3761,-1.2864,0.0,-1.3761,-1.265,-1.2027,-1.2481,-1.2089,-1.215,-1.2775,-1.2869,-1.3163,-1.3766,-1.3574,-1.3469,-1.3566,-1.3362,-1.3302,-1.3386,-1.3386,-1.3386,-1.3386,-1.3486,-1.3519,-1.3519,-1.3494,-1.3243,-1.2859,-1.3298,-1.294,-1.2118,-1.1775,-1.1608,-1.1522,-1.1365,-1.1365,-1.1498,0.0,0.0,0.0,0.0,0.0,0.0,0.0,0.0,-0.0981,-0.1177,-0.1734,-0.2347,-0.2931,-0.3544,-0.4073,-0.446,-0.4491,-0.4491,-0.4491,-0.4491,-0.4491,-0.4491,-0.4491,-0.4491,-0.4491,-0.4491,-0.4515,-0.4566,-0.4566,-0.4644,-0.4769,-0.4769,-0.4769,-0.4769,-0.4769,-0.468,-0.4566,-0.4566,-0.4539,-0.4491,-0.4491,-0.4491,-0.4491,0.0,0.0,0.0,0.0,0.0,0.0,0.0,0.0,0.0,0.0,0.0,0.0,0.0,0.0,0.0,0.0,0.0,0.0,0.0,0.0,0.0,0.0,0.0,0.0,0.0,0.0,0.0,0.0,0.0,0.0,0.0,0.0,0.0,0.0,0.0,-1.2182,-1.307,-1.2189,-1.1987,-1.3213,-1.2328,-1.1877,-1.2419,-1.2052,-1.2092,-1.2756,-1.2576,-1.2773,-1.3378,-1.3186,-1.3114,-1.3229,-1.3025,-1.2941,-1.3018,-1.3018,-1.3018,-1.3018,-1.3114,-1.3149,-1.3183,-1.3363,-1.3198,-1.2791,-1.275,-1.2344,-1.1794,-1.1584,-1.1489,-1.1489,-1.1489,-1.1593,-1.1721,0.0,0.0,0.0,0.0,0.0,0.0,0.0,-0.0673,-0.1121,-0.1706,-0.2319,-0.2931,-0.3544,-0.4128,-0.4491,-0.4491,-0.4491,-0.4491,-0.4491,-0.4491,-0.4491,-0.4491,-0.4491,-0.4491,-0.4491,-0.4494,-0.4569,-0.4691,-0.4697,-0.4775,-0.4894,-0.4894,-0.4894,-0.4894,-0.4894,-0.484,-0.4697,-0.4697,-0.4638,-0.4498,-0.4491,-0.4491,-0.4491,0.0,0.0,0.0,0.0,0.0,0.0,0.0,0.0,0.0,0.0,0.0,0.0,0.0,0.0,0.0,0.0,0.0,0.0,0.0,0.0,0.0,0.0,0.0,0.0,0.0,0.0,0.0,0.0,0.0,0.0,0.0,0.0,0.0,-1.2328,-1.1382,-1.1083,-1.2343,-1.1895,-1.1874,-1.2893,-1.236,-1.2076,-1.2347,-1.2369,-1.2376,-1.2383,-1.3009,-1.3377,-1.3384,-1.2729,-1.255,-1.2868,-1.2239,-1.2067,-1.2318,-1.2318,-1.2318,-1.2331,-1.2318,-1.2318,-1.2318,-1.2489,-1.2599,-1.2579,-1.2464,-1.2409,-1.2346,-1.2026,-1.1901,-1.1901,-1.1901,-1.1901,-1.1935,0.0,0.0,0.0,0.0,0.0,0.0,0.0,-0.0589,-0.1009,-0.1706,-0.2319,-0.2931,-0.3544,-0.4128,-0.4491,-0.4491,-0.4491,-0.4491,-0.4491,-0.4491,-0.4491,-0.4491,-0.4491,-0.4491,-0.4491,-0.46,-0.4679,-0.4691,-0.4802,-0.4897,-0.5042,-0.5042,-0.5042,-0.5042,-0.5042,-0.4961,-0.4857,-0.4857,-0.4769,-0.4648,-0.4535,-0.4491,-0.4491,0.0,0.0,0.0,0.0,0.0,0.0,0.0,0.0,0.0,0.0,0.0,0.0,0.0,0.0,0.0,0.0,0.0,0.0,0.0,0.0,0.0,0.0,0.0,0.0,0.0,0.0,0.0,0.0,0.0,0.0,0.0,0.0,-1.087,-1.1083,-1.1209,-1.1476,-1.2059,-1.1542,-1.15,-1.2469,-1.197,-1.1607,-1.1655,-1.1662,-1.1792,-1.2011,-1.2193,-1.2396,-1.2613,-1.2411,-1.2387,-1.2469,-1.2287,-1.2368,-1.2663,-1.2663,-1.2739,-1.2953,-1.2764,-1.2663,-1.265,-1.2466,-1.2378,-1.2372,-1.2321,-1.233,-1.2313,-1.1999,-1.1901,-1.1901,-1.1901,-1.2003,-1.2139,0.0,0.0,0.0,0.0,0.0,0.0,0.0,-0.0561,-0.1064,-0.204,-0.2486,-0.3014,-0.3876,-0.4294,-0.4491,-0.4491,-0.4491,-0.4491,-0.4491,-0.4491,-0.4491,-0.4491,-0.4552,-0.4586,-0.4586,-0.4707,-0.4816,-0.4874,-0.4931,-0.5052,-0.5226,-0.5226,-0.5226,-0.5226,-0.5226,-0.5145,-0.4975,-0.4975,-0.4891,-0.4779,-0.4691,-0.4604,-0.4491,-0.4491,-0.4682,-0.4887,-0.4887,-0.5111,-0.5395,-0.5458,0.0,0.0,0.0,0.0,0.0,0.0,0.0,0.0,0.0,0.0,0.0,0.0,0.0,0.0,0.0,0.0,0.0,0.0,0.0,0.0,0.0,0.0,0.0,0.0,-1.0885,-1.0774,-1.0774,-1.1056,-1.1392,-1.1701,-1.1403,-1.1425,-1.213,-1.1853,-1.1663,-1.1784,-1.1797,-1.1924,-1.2254,-1.2275,-1.2409,-1.2672,-1.2685,-1.2685,-1.2685,-1.2685,-1.2766,-1.2978,-1.2978,-1.3033,-1.32,-1.3026,-1.2978,-1.2971,-1.2759,-1.2685,-1.2685,-1.2685,-1.2685,-1.2625,0.0,0.0,0.0,0.0,-1.2178,-1.2396,0.0,0.0,0.0,0.0,0.0,0.0,0.0,-0.0561,-0.1148,-0.2514,-0.2708,-0.3153,-0.4377,-0.4491,-0.4491,-0.4491,-0.4491,-0.4491,-0.4491,-0.4491,-0.4491,-0.4491,-0.4638,-0.4691,-0.4691,-0.4857,-0.4975,-0.51,-0.5117,-0.5226,-0.5395,-0.5395,-0.5395,-0.5395,-0.5395,-0.5284,-0.5123,-0.5123,-0.5042,-0.4914,-0.4914,-0.4762,-0.4515,-0.4515,-0.4667,-0.4887,-0.4887,-0.5111,-0.5428,-0.555,0.0,0.0,0.0,0.0,0.0,0.0,0.0,0.0,0.0,0.0,0.0,0.0,0.0,0.0,0.0,0.0,0.0,0.0,0.0,0.0,0.0,0.0,0.0,0.0,-1.0854,-1.1015,-1.1082,-1.1089,-1.1189,-1.1443,-1.1442,-1.159,-1.1926,-1.1986,-1.2114,-1.2331,-1.2385,-1.2518,-1.2824,0.0,0.0,0.0,0.0,-1.3213,-1.3213,-1.3213,-1.3227,-1.326,-1.326,-1.3273,-1.3307,-1.3273,-1.326,-1.326,-1.3227,-1.3213,-1.3213,-1.3213,-1.3213,-1.3153,-1.2579,-1.2331,-1.2305,-1.2342,-1.2452,-1.2673,0.0,0.0,0.0,0.0,0.0,0.0,0.0,-0.0421,-0.1008,-0.2514,-0.2708,-0.3153,-0.4377,-0.4491,-0.4491,-0.4491,-0.4491,-0.4491,-0.4491,-0.4491,-0.4491,-0.4491,-0.4638,-0.4691,-0.4691,-0.4921,-0.5069,-0.51,-0.5254,-0.5365,-0.5395,-0.5395,-0.5395,-0.5395,-0.5395,-0.5378,-0.5351,-0.5351,-0.523,-0.5059,-0.5059,-0.4911,-0.4646,-0.4646,-0.4758,-0.4887,-0.4887,-0.5111,-0.5428,-0.555,-0.5617,-0.565,-0.5822,-0.5888,0.0,0.0,0.0,0.0,0.0,0.0,0.0,0.0,0.0,0.0,0.0,0.0,0.0,0.0,0.0,0.0,0.0,0.0,0.0,-1.0868,-1.0955,-1.1156,-1.1665,-1.1739,-1.1752,-1.1812,-1.1784,-1.1897,-1.2191,-1.2469,-1.2636,-1.2697,-1.2893,-1.306,-1.312,-1.312,-1.3153,-1.3206,-1.3213,-1.3213,-1.3213,-1.3213,-1.3327,-1.352,0.0,0.0,-1.3908,-1.3667,-1.352,-1.3507,-1.3273,-1.3213,-1.3213,-1.3213,-1.3213,-1.3173,-1.2844,-1.2549,-1.2335,-1.2489,-1.2673,-1.2863,0.0,0.0,0.0,0.0,0.0,0.0,0.0,-0.0364,-0.0924,-0.24,-0.2653,-0.3153,-0.4377,-0.4491,-0.4491,-0.4491,-0.4491,-0.4491,-0.4491,-0.4491,-0.4525,-0.46,-0.4724,-0.484,-0.4908,-0.5131,-0.5247,-0.5247,-0.5433,-0.5511,-0.5511,-0.5583,-0.5579,-0.5511,-0.5511,-0.5467,-0.5395,-0.5395,-0.5351,-0.5247,-0.5247,-0.5111,-0.4894,-0.4748,-0.4785,-0.4887,-0.4887,-0.506,-0.5289,-0.5628,-0.5752,-0.5785,-0.6053,-0.6119,-0.602,0.0,0.0,0.0,0.0,0.0,0.0,0.0,0.0,0.0,0.0,0.0,0.0,0.0,0.0,-1.0474,0.0,0.0,-1.0901,-1.1162,-1.1336,-1.1571,-1.1866,-1.2161,-1.2288,-1.2104,-1.2254,-1.2402,-1.2549,-1.2837,-1.3018,-1.3018,-1.312,-1.3273,-1.338,-1.3387,-1.35,-1.3647,-1.3647,-1.3647,-1.3647,-1.3647,-1.3721,-1.3868,-1.3868,-1.3941,-1.4082,-1.3935,-1.3868,-1.3854,-1.3714,-1.3647,-1.3647,-1.3647,-1.3561,-1.3373,-1.3253,-1.3013,-1.2759,-1.2874,-1.3019,-1.3182,0.0,0.0,0.0,0.0,0.0,0.0,0.0,-0.0308,-0.0868,-0.215,-0.243,-0.2986,-0.4184,-0.4322,-0.4377,-0.4491,-0.4491,-0.4491,-0.4491,-0.4491,-0.4545,-0.4672,-0.4819,-0.4941,-0.5056,-0.53,-0.5395,-0.5395,-0.5518,-0.5545,-0.5549,-0.5661,-0.5654,-0.5545,-0.5545,-0.5511,-0.5395,-0.5395,-0.5395,-0.5395,-0.5395,-0.5287,-0.5142,-0.4847,-0.4813,-0.4887,-0.4887,-0.4978,-0.5184,-0.5734,-0.5888,-0.5958,-0.6284,-0.6317,-0.6148,-0.5954,-0.6181,0.0,0.0,0.0,0.0,0.0,0.0,0.0,0.0,0.0,-1.0193,-1.0603,-1.0673,-1.0767,-1.1022,-1.1076,-1.1176,-1.1463,-1.171,-1.1946,-1.206,-1.2482,-1.2717,-1.2498,-1.273,-1.2878,-1.2878,-1.3113,-1.3293,-1.3293,-1.3347,-1.348,-1.368,-1.3686,-1.3841,-1.4082,-1.4088,-1.4088,-1.4088,-1.4088,-1.4088,-1.4088,-1.4088,-1.4088,-1.4088,-1.4088,-1.4088,-1.4088,-1.4088,-1.4088,-1.4088,-1.4088,-1.3948,-1.3686,-1.3686,-1.3587,-1.3367,-1.3253,-1.3318,-1.3461,0.0,0.0,0.0,0.0,0.0,0.0,0.0,0.0,-0.07,-0.1593,-0.1818,-0.2347,-0.3569,-0.371,-0.3904,-0.4463,-0.4491,-0.4491,-0.4491,-0.4491,-0.4498,-0.4515,-0.4765,-0.4894,-0.4911,-0.5252,-0.5395,-0.5395,-0.5412,-0.5423,-0.5423,-0.5436,-0.5436,-0.5423,-0.5423,-0.5412,-0.5395,-0.5395,-0.5395,-0.5395,-0.5395,-0.5385,-0.5337,-0.5006,-0.4874,-0.4887,-0.4887,-0.4978,-0.5184,-0.5734,-0.5888,-0.5958,-0.6284,-0.6317,-0.6148,-0.5954,0.0,-0.5683,-0.5557,-0.6761,0.0,-0.9658,-1.0117,-1.0301,0.0,0.0,-1.0405,-1.0856,-1.0949,-1.1035,-1.1323,-1.1342,-1.1476,-1.1806,-1.1886,-1.2087,-1.261,-1.2744,-1.2871,-1.308,-1.314,-1.316,-1.316,-1.3387,-1.3553,-1.3553,-1.3841,-1.4001,-1.4035,-1.4041,-1.4055,-1.4088,-1.4088,-1.4088,-1.4088,-1.4088,-1.4088,-1.4088,-1.4088,-1.4088,-1.4088,-1.4088,-1.4088,-1.4088,-1.4088,-1.4088,-1.4088,-1.4088,-1.4068,-1.4041,-1.4041,-1.4015,-1.3928,-1.3407,-1.3318,-1.3495,0.0,0.0,0.0,0.0,0.0,0.0,0.0,0.0,0.0,-0.1314,-0.1566,-0.204,-0.2986,-0.3403,-0.3849,-0.4436,-0.4491,-0.4491,-0.4491,-0.4491,-0.4532,-0.4621,-0.4718,-0.4867,-0.5009,-0.5162,-0.527,-0.5395,-0.5484,-0.5528,-0.5532,-0.5579,-0.5576,-0.5528,-0.5528,-0.5477,-0.5395,-0.5395,-0.5395,-0.5388,-0.5264,-0.5226,-0.5196,-0.4897,-0.4785,-0.4785,-0.4785,-0.4823,0.0,-0.5562,-0.5775,-0.5858,-0.6183,-0.6247,-0.6145,-0.5818,-0.598,0.0,-0.7274,0.0,0.0,0.0,-1.0361,-1.0549,-1.0646,-1.0745,-1.0902,-1.1189,-1.1243,-1.1336,-1.163,-1.1683,-1.1777,0.0,-1.2124,-1.2308,-1.2723,-1.2945,-1.3126,-1.3387,-1.3614,-1.3654,-1.344,-1.3728,-1.3901,-1.3901,-1.4015,-1.4088,-1.4088,-1.4088,-1.4088,-1.4088,-1.4088,-1.4088,-1.4088,-1.4088,-1.4088,-1.4088,-1.4088,-1.4088,-1.4088,-1.4088,-1.4088,-1.4088,-1.4088,-1.4088,-1.4088,-1.4088,-1.4088,-1.4088,-1.4088,-1.4088,-1.4055,-1.3808,-1.3796,-1.381,0.0,0.0,0.0,0.0,0.0,0.0,0.0,0.0,0.0,0.0,-0.1203,-0.1621,-0.2374,-0.3153,-0.3766,-0.4211,-0.4405,-0.4491,-0.4491,-0.4491,-0.4539,-0.4651,-0.4667,-0.4792,-0.4972,-0.5019,-0.5128,-0.5272,-0.5389,-0.5464,-0.5467,-0.5613,-0.5627,-0.5562,-0.5562,-0.5498,-0.5392,-0.5347,-0.533,-0.5284,-0.5131,-0.5042,-0.5012,-0.4789,-0.4691,-0.4691,-0.4691,-0.4691,-0.4793,-0.5406,-0.5611,-0.5672,-0.5996,-0.6083,-0.598,-0.5683,-0.5947,-0.6671,-0.8215,0.0,0.0,-1.0155,-1.0666,-1.0876,-1.0876,-1.1073,-1.1319,-1.1502,-1.155,-1.1637,-1.1931,-1.2027,-1.2058,-1.2271,-1.2305,-1.2432,-1.2857,-1.3066,-1.3347,-1.368,-1.3955,-1.4001,-1.3746,-1.3961,-1.4088,-1.4088,-1.4088,-1.4088,-1.4088,-1.4088,-1.4088,-1.4088,-1.4088,-1.4088,-1.4088,-1.4088,-1.4088,-1.4088,-1.4088,-1.4088,-1.4088,-1.4088,-1.4088,-1.4088,-1.4088,-1.4088,-1.4088,-1.4088,-1.4088,-1.4088,-1.4088,-1.4088,-1.4088,-1.4088,-1.4088,-1.4055,0.0,0.0,0.0,0.0,0.0,0.0,0.0,0.0,0.0,0.0,0.0,0.0,0.0,-0.2875,-0.3599,-0.3627,-0.4156,-0.4491,-0.4491,-0.4491,-0.4491,-0.4498,-0.4641,-0.4694,-0.4704,-0.485,-0.4897,-0.4904,-0.5042,-0.5113,-0.5117,-0.5301,-0.5405,-0.5402,-0.5402,-0.5399,-0.5385,-0.5203,-0.5106,-0.5093,-0.4951,-0.4894,-0.4877,-0.4752,-0.4691,-0.4691,-0.4691,-0.4691,-0.4767,-0.5254,-0.5392,-0.5453,-0.5803,-0.5785,0.0,-0.5617,-0.5521,-0.5785,0.0,0.0,-0.8785,-1.0309,-1.1028,-1.1382,-1.1382,-1.1389,-1.151,-1.1832,-1.1893,-1.198,-1.2238,-1.2285,-1.2291,-1.2305,-1.2305,-1.2512,-1.3113,-1.32,-1.3427,-1.4008,-1.4082,-1.4082,0.0,-1.4082,-1.4088,-1.4088,-1.4088,-1.4088,-1.4088,-1.4088,-1.4088,-1.4088,-1.4088,-1.4088,-1.4088,-1.4088,-1.4088,-1.4088,-1.4088,-1.4088,-1.4088,-1.4088,-1.4088,-1.4088,-1.4088,-1.4088,-1.4088,-1.4088,-1.4088,-1.4088,-1.4088,-1.4088,-1.4088,-1.4088,-1.4088,-1.4088,0.0,0.0,0.0,0.0,0.0,0.0,0.0,0.0,0.0,0.0,0.0,0.0,0.0,0.0,0.0,0.0,-0.3125,-0.3486,-0.3876,-0.3904,-0.4073,-0.4491,-0.4539,-0.4614,-0.4687,-0.4741,-0.4816,-0.4887,-0.4935,-0.4958,-0.4961,-0.5043,-0.5067,-0.5067,-0.5067,-0.5067,-0.5064,-0.4982,-0.4958,-0.4945,-0.4826,-0.4769,-0.4752,-0.4627,-0.4566,-0.4566,0.0,-0.4566,-0.4642,-0.5099,-0.5267,-0.5309,-0.5603,-0.565,-0.5583,-0.5488,-0.5848,-0.6556,-0.7807,0.0,-0.9416,-1.0818,-1.1365,-1.1576,-1.1688,-1.187,-1.2037,-1.2138,-1.2048,-1.2002,-1.2063,-1.2114,-1.2114,-1.2114,-1.2224,-1.2518,-1.3126,-1.3213,-1.3427,-1.4015,-1.4088,0.0,0.0,0.0,0.0,-1.4088,-1.4088,-1.4088,-1.4088,-1.4088,-1.4088,-1.4088,-1.4088,-1.4088,-1.4088,-1.4088,-1.4088,-1.4088,-1.4088,-1.4088,-1.4088,-1.4088,-1.4088,-1.4088,-1.4088,-1.4088,-1.4088,-1.4088,-1.4088,-1.4088,-1.4088,-1.4088,-1.4088,-1.4088,-1.4088,-1.4088,0.0,0.0,0.0,0.0,0.0,0.0,0.0,0.0,0.0,0.0,0.0,0.0,0.0,0.0,0.0,0.0,0.0,-0.2679,-0.3067,-0.3345,-0.368,-0.4098,-0.4349,-0.4535,-0.4634,-0.4638,-0.4657,-0.4755,-0.4809,-0.484,-0.484,-0.4894,-0.4887,-0.4887,-0.4887,-0.4887,-0.4884,-0.486,-0.4717,-0.4494,-0.4349,-0.4321,-0.4283,-0.3965,-0.4125,0.0,-0.4267,-0.4355,-0.4639,-0.4979,-0.5097,-0.5149,-0.5423,-0.5521,-0.5587,-0.5782,-0.6316,-0.7118,-0.8423,-0.9236,-1.0001,-1.1184,-1.1627,-1.1808,-1.1988,-1.2091,-1.2144,-1.2144,-1.1695,-1.1335,-1.1335,-1.1411,-1.1481,-1.1481,-1.1937,-1.2518,-1.3126,-1.3213,-1.3427,-1.4015,-1.4088,-1.4088,0.0,0.0,0.0,-1.4088,-1.4088,-1.4088,-1.4088,-1.4088,-1.4088,-1.4088,-1.4088,-1.4088,-1.4088,-1.4088,-1.4088,-1.4088,-1.4088,-1.4088,-1.4088,-1.4088,-1.4088,-1.4088,-1.4088,-1.4088,-1.4088,-1.4088,-1.4088,-1.4088,-1.4088,-1.4088,-1.4088,-1.4088,-1.4088,-1.4088,0.0,0.0,0.0,0.0,0.0,0.0,0.0,0.0,0.0,0.0,0.0,0.0,0.0,0.0,0.0,0.0,0.0,0.0,-0.2148,-0.2815,-0.3234,-0.3345,-0.4015,-0.4405,-0.4405,-0.4405,-0.4405,-0.4405,-0.452,-0.459,-0.4593,-0.4737,-0.4773,-0.4773,-0.4773,-0.4773,-0.4793,-0.465,-0.4268,-0.3735,-0.3618,-0.3544,-0.3486,-0.2931,-0.343,-0.4377,-0.3793,-0.4075,-0.4714,-0.4867,-0.4897,-0.4992,-0.5306,-0.5395,-0.5591,-0.6474,-0.6931,-0.7496,-0.9046,-0.9875,-1.0539,-1.1384,-1.1807,-1.1996,-1.2168,-1.2028,-1.1864,-1.1779,-1.0876,-1.0066,0.0,0.0,-1.0551,-1.0563,-1.1546,-1.2498,-1.3126,-1.3213,-1.3427,0.0,0.0,0.0,0.0,0.0,0.0,-1.4088,0.0,-1.4088,-1.4088,-1.4088,-1.4088,-1.4088,-1.4088,-1.4088,-1.4088,-1.4088,-1.4088,-1.4088,-1.4088,-1.4088,-1.4088,-1.4088,-1.4088,-1.4088,-1.4088,-1.4088,-1.4088,-1.4088,-1.4088,-1.4088,-1.4088,-1.4088,-1.4088,-1.4088,-1.4088,-1.4088,0.0,0.0,0.0,0.0,0.0,0.0,0.0,0.0,0.0,0.0,0.0,0.0,0.0,0.0,0.0,0.0,0.0,0.0,-0.1509,-0.1704,-0.2009,-0.2482,-0.2817,-0.3012,-0.3012,-0.3098,-0.3153,-0.3153,-0.3179,-0.3222,-0.3224,-0.3251,-0.3263,-0.3263,-0.3263,-0.3263,-0.3263,-0.3234,-0.3109,-0.2967,-0.294,-0.2931,-0.2903,-0.2764,-0.3181,-0.3821,-0.3652,-0.4075,-0.4714,0.0,0.0,0.0,0.0,-0.5458,-0.5737,-0.6697,-0.7518,-0.8347,-0.9698,-1.0432,-1.0948,-1.1511,-1.1619,-1.1465,-1.1034,-1.1338,-1.1301,-1.0067,-0.9834,-0.9684,0.0,0.0,0.0,-1.0359,-1.1278,0.0,-1.3093,-1.3213,0.0,-1.4015,0.0,-1.4088,-1.4088,-1.4088,0.0,0.0,-1.4088,-1.4088,-1.4088,-1.4088,-1.4088,-1.4088,-1.4088,-1.4088,-1.4088,-1.4088,-1.4088,-1.4088,-1.4088,-1.4088,-1.4088,-1.4088,-1.4088,-1.4088,-1.4088,-1.4088,-1.4088,-1.4088,-1.4088,-1.4088,-1.4088,-1.4088,-1.4088,-1.4088,-1.4088,-1.4088,0.0,0.0,0.0,0.0,0.0,0.0,0.0,0.0,0.0,0.0,0.0,0.0,0.0,0.0,0.0,0.0,0.0,0.0,0.0,-0.1035,-0.1369,-0.1703,-0.2148,-0.2399,-0.2512,-0.2567,-0.2653,-0.2708,-0.2708,-0.2708,-0.2708,-0.2708,-0.2708,-0.2708,-0.2708,-0.2708,-0.2708,-0.2708,-0.2541,0.0,0.0,-0.2319,-0.2263,-0.2014,-0.2458,-0.3213,-0.3265,-0.3966,0.0,0.0,0.0,-0.5395,-0.5395,-0.5536,-0.5906,-0.6852,0.0,-0.8957,-1.0084,-1.0868,-1.1409,-1.1671,-1.1352,-1.0847,-1.0514,-1.0314,-0.9927,-0.8992,-0.8607,0.0,0.0,0.0,0.0,0.0,0.0,0.0,-1.2726,-1.3046,-1.338,0.0,-1.4008,0.0,-1.4088,-1.4088,-1.4088,0.0,-1.4088,-1.4088,-1.4088,-1.4088,-1.4088,-1.4088,-1.4088,-1.4088,-1.4088,-1.4088,-1.4088,-1.4088,-1.4088,-1.4088,-1.4088,-1.4088,-1.4088,-1.4088,-1.4088,-1.4088,-1.4088,-1.4088,-1.4088,-1.4088,-1.4088,-1.4088,-1.4088,-1.4088,-1.4088,-1.4088,0.0,0.0,0.0,0.0,0.0,0.0,0.0,0.0,0.0,0.0,0.0,0.0,0.0,0.0,0.0,0.0,0.0,0.0,0.0,0.0,-0.095,-0.095,-0.1591,-0.2009,-0.2178,-0.2206,-0.2289,-0.243,-0.243,-0.243,-0.2458,-0.2458,-0.2458,-0.2458,-0.2458,-0.2458,-0.2458,-0.2458,-0.2151,-0.1679,-0.1679,-0.1679,-0.1623,0.0,-0.16,-0.2627,-0.2932,0.0,0.0,0.0,-0.5395,-0.5395,-0.5395,-0.5633,-0.6065,-0.6945,-0.8004,-0.9128,-1.0222,-1.1012,-1.1601,-1.1715,-1.1126,-1.0433,-1.0111,-0.9284,-0.8451,-0.8087,0.0,-0.6654,-0.656,0.0,-0.8221,-0.8386,0.0,-1.1817,-1.2258,-1.2826,-1.332,-1.3567,-1.3908,-1.4088,-1.4088,-1.4088,-1.4088,-1.4088,-1.4088,-1.4088,-1.4088,-1.4088,-1.4088,-1.4088,-1.4088,-1.4088,-1.4088,-1.4088,-1.4088,-1.4088,-1.4088,-1.4088,-1.4088,-1.4088,-1.4088,-1.4088,-1.4088,-1.4088,-1.4088,-1.4088,-1.4088,-1.4088,-1.4088,-1.4088,-1.4088,-1.4088,-1.4088,-1.4088,0.0,0.0,0.0,0.0,0.0,0.0,0.0,0.0,0.0,0.0,0.0,0.0,0.0,0.0,0.0,0.0,0.0,0.0,0.0,0.0,0.0,-0.0196,-0.042,-0.056,-0.0588,-0.07,-0.0868,-0.1036,-0.1036,-0.1093,-0.1205,-0.1205,-0.1205,-0.1205,-0.1205,-0.1205,-0.1205,-0.1205,-0.1149,-0.1065,-0.1065,-0.1065,-0.1037,-0.0954,0.0,0.0,0.0,0.0,0.0,0.0,-0.5395,-0.5395,-0.5395,-0.5595,-0.6015,-0.6983,-0.7533,-0.8199,-1.0083,-1.0401,-1.0448,-1.1319,-1.1241,-1.0615,-0.9148,-0.9055,0.0,0.0,0.0,-0.6494,-0.5752,-0.6391,0.0,-0.826,0.0,0.0,0.0,0.0,-1.332,0.0,0.0,0.0,0.0,0.0,0.0,0.0,0.0,-1.4088,-1.4088,-1.4088,-1.4088,-1.4088,-1.4088,-1.4088,-1.4088,-1.4088,-1.4088,-1.4088,-1.4088,-1.4088,-1.4088,-1.4088,-1.4088,-1.4088,-1.4088,0.0,-1.4088,-1.4088,-1.4088,-1.4088,-1.4088,-1.4088,-1.4088,-1.4088,-1.4088,-1.4088,0.0,0.0,0.0,0.0,0.0,0.0,0.0,0.0,0.0,0.0,0.0,0.0,0.0,0.0,0.0,0.0,0.0,0.0,0.0,0.0,0.0,0.0,0.0,0.0,-0.0196,-0.0252,-0.0364,-0.0533,0.0,-0.0729,-0.0785,-0.087,-0.0898,-0.0898,-0.0898,-0.0898,-0.0898,-0.0898,-0.0898,-0.0898,-0.0898,-0.0898,-0.0898,0.0,0.0,0.0,0.0,0.0,0.0,0.0,-0.5395,-0.5395,-0.5395,-0.5651,-0.6064,-0.6525,-0.7131,-0.7892,-0.9033,-0.9398,-0.9625,-1.0123,-0.9715,-0.8918,-0.7923,0.0,0.0,0.0,-0.5782,-0.5881,-0.5495,0.0,0.0,0.0,0.0,0.0,0.0,0.0,0.0,0.0,0.0,0.0,0.0,0.0,0.0,0.0,0.0,-1.4088,-1.4088,-1.4088,-1.4088,-1.4088,-1.4088,-1.4088,-1.4088,-1.4088,-1.4088,-1.4088,-1.4088,-1.4088,-1.4088,-1.4088,-1.4088,-1.4088,-1.4088,-1.4088,-1.4088,-1.4088,-1.4088,-1.4088,-1.4088,-1.4088,-1.4046,-1.3568,-1.3355,-1.3307,0.0,0.0,0.0,0.0,0.0,0.0,0.0,0.0,0.0,0.0,0.0,0.0,0.0,0.0,0.0,0.0,0.0,0.0,0.0,0.0,0.0,0.0,0.0,0.0,0.0,0.0,0.0,0.0,-0.0505,0.0,0.0,0.0,0.0,0.0,-0.0898,-0.0898,-0.0898,-0.0898,-0.0898,0.0,0.0,-0.0898,0.0,0.0,0.0,0.0,0.0,0.0,0.0,0.0,-0.5395,-0.5395,-0.5395,-0.5682,-0.5983,-0.6015,-0.6696,-0.7502,-0.7994,-0.8422,-0.8822,-0.9018,-0.8348,-0.7505,-0.707,-0.6291,0.0,0.0,-0.5395,-0.5395,-0.5395,0.0,0.0,0.0,0.0,0.0,0.0,0.0,0.0,0.0,0.0,0.0,0.0,0.0,0.0,0.0,0.0,-1.3997,-1.3997,-1.3997,-1.3997,-1.3955,-1.3955,-1.3955,-1.3955,-1.3955,-1.3955,-1.3955,-1.3955,-1.3955,-1.3955,-1.3955,-1.3955,-1.3955,-1.4004,-1.3997,-1.3997,-1.4088,-1.3997,-1.3786,-1.3786,-1.3695,-1.3398,-1.2662,-1.2406,-1.2272,0.0,0.0,0.0,0.0,0.0,0.0,0.0,0.0,0.0,0.0,0.0,0.0,0.0,0.0,0.0,0.0,0.0,0.0,0.0,0.0,0.0,0.0,0.0,0.0,0.0,0.0,0.0,0.0,0.0,0.0,0.0,0.0,0.0,0.0,0.0,0.0,-0.0898,-0.0898,0.0,0.0,0.0,0.0,0.0,0.0,0.0,0.0,0.0,0.0,0.0,0.0,0.0,-0.5395,-0.5395,-0.5511,-0.5668,-0.5801,0.0,0.0,-0.7611,-0.7783,-0.7851,-0.8722,-0.866,-0.8133,-0.7055,0.0,0.0,-0.5589,-0.5395,-0.5395,-0.5395,-0.5458,-0.5782,0.0,0.0,-0.7966,0.0,0.0,0.0,0.0,0.0,0.0,0.0,0.0,0.0,0.0,-1.387,-1.3737,-1.3737,-1.3737,-1.3652,-1.3483,-1.3483,-1.3483,-1.3483,-1.3483,-1.3483,-1.3483,-1.3483,-1.3483,-1.3483,-1.3483,-1.3483,-1.3483,-1.3652,-1.3737,0.0,-1.4004,-1.361,-1.2833,-1.2833,-1.2314,-1.1542,-1.1451,-1.1408,-1.1413,0.0,0.0,0.0,0.0,0.0,0.0,0.0,0.0,0.0,0.0,0.0,0.0,0.0,0.0,0.0,0.0,0.0,0.0,0.0,0.0,0.0,0.0,0.0,0.0,0.0,0.0,-0.0028,-0.0084,-0.0168,0.0,0.0,0.0,0.0,0.0,0.0,0.0,0.0,0.0,0.0,0.0,0.0,0.0,0.0,0.0,0.0,0.0,0.0,0.0,0.0,0.0,0.0,0.0,-0.5362,-0.5436,0.0,0.0,-0.5779,-0.6012,-0.6601,-0.6622,-0.6593,-0.7023,-0.6956,-0.6643,-0.6164,0.0,-0.5866,-0.5475,-0.5395,-0.5395,-0.5395,-0.5395,-0.5524,-0.5848,-0.6461,0.0,0.0,0.0,0.0,0.0,0.0,0.0,0.0,0.0,0.0,0.0,-1.3652,-1.3483,-1.3355,-1.3434,-1.3476,-1.3398,-1.3398,-1.3398,-1.3398,-1.3398,-1.3398,-1.3398,-1.3398,-1.3398,-1.3398,-1.3398,-1.3398,-1.3398,-1.3476,-1.361,0.0,-1.3822,-1.3392,-1.2705,-1.2705,-1.2143,-1.1241,-1.0679,-1.0463,-1.0376,0.0,0.0,0.0,0.0,0.0,0.0,0.0,0.0,0.0,0.0,0.0,0.0,0.0,0.0,0.0,0.0,0.0,0.0,0.0,0.0,0.0,0.0,0.0,0.0,0.0,0.0,0.0,0.0,-0.0084,-0.0168,0.0,0.0,0.0,0.0,0.0,0.0,0.0,0.0,0.0,0.0,0.0,0.0,0.0,0.0,0.0,0.0,0.0,0.0,0.0,0.0,0.0,0.0,0.0,0.0,0.0,0.0,-0.5661,-0.5772,-0.5922,-0.5884,-0.5817,-0.5884,-0.5742,-0.5579,0.0,0.0,-0.5395,-0.5395,-0.5395,-0.5395,-0.5395,-0.5395,-0.5395,-0.5395,-0.5914,-0.6494,0.0,0.0,0.0,0.0,0.0,0.0,0.0,0.0,0.0,0.0,-1.3392,-1.3222,-1.3009,-1.3137,-1.3179,-1.3179,-1.3179,-1.3179,-1.3179,-1.3179,-1.3179,-1.3179,-1.3179,-1.3179,-1.3179,-1.3179,-1.3045,-1.279,-1.2875,-1.2826,0.0,-1.2778,-1.2351,-1.166,-1.166,-1.1101,-1.0197,-0.9554,-0.9336,-0.9292,0.0,0.0,0.0,0.0,0.0,0.0,0.0,0.0,0.0,0.0,0.0,0.0,0.0,0.0,0.0,0.0,0.0,0.0,0.0,0.0,0.0,0.0,0.0,0.0,0.0,0.0,0.0,0.0,0.0,-0.0056,-0.0196,-0.0336,-0.0393,0.0,0.0,0.0,0.0,0.0,0.0,0.0,0.0,0.0,0.0,0.0,0.0,0.0,0.0,0.0,0.0,0.0,0.0,0.0,0.0,0.0,0.0,0.0,-0.5593,-0.5623,-0.5766,-0.5803,-0.5769,-0.563,-0.5593,-0.5549,0.0,0.0,-0.5395,-0.5395,-0.5395,-0.5395,-0.5395,-0.5395,-0.5395,-0.5395,-0.5395,0.0,0.0,0.0,0.0,0.0,0.0,0.0,0.0,0.0,0.0,0.0,-1.3094,0.0,-1.2705,-1.2705,-1.2705,-1.2705,-1.2705,-1.2705,-1.2705,-1.2705,-1.2705,-1.2705,-1.2705,-1.2705,-1.2705,-1.2705,-1.2186,-1.1327,-1.1585,-1.1187,0.0,-1.0567,-1.0096,-0.9231,-0.9231,-0.8715,-0.794,-0.794,-0.8028,-0.8201,0.0,0.0,0.0,0.0,0.0,0.0,0.0,0.0,0.0,0.0,0.0,0.0,0.0,0.0,0.0,0.0,0.0,0.0,0.0,0.0,0.0,0.0,0.0,0.0,0.0,0.0,0.0,0.0,0.0,-0.0029,-0.0058,-0.0208,-0.027,-0.027,-0.042,0.0,0.0,0.0,0.0,0.0,0.0,0.0,0.0,0.0,0.0,0.0,0.0,0.0,0.0,0.0,0.0,0.0,0.0,0.0,0.0,-0.5245,-0.5363,0.0,-0.5616,-0.5583,-0.5549,-0.5576,-0.5545,-0.5453,-0.5405,0.0,-0.5395,-0.5395,-0.5395,-0.5395,-0.5395,-0.5395,-0.5395,-0.5395,-0.5395,0.0,0.0,0.0,0.0,0.0,0.0,0.0,0.0,0.0,0.0,-1.2192,-1.1972,-1.1537,-1.0832,-1.0788,-1.1354,-1.2662,-1.2705,-1.2705,-1.2705,-1.2705,-1.2705,-1.2705,-1.2057,-1.1752,-1.1714,-1.1095,-1.0616,-1.0361,-1.0448,-1.0399,-1.0313,-1.0356,-0.9923,-0.9187,-0.9187,-0.8675,-0.79,-0.79,-0.7944,-0.8028,0.0,0.0,0.0,0.0,0.0,0.0,0.0,0.0,0.0,0.0,0.0,0.0,0.0,0.0,0.0,0.0,0.0,0.0,0.0,0.0,0.0,0.0,0.0,0.0,0.0,0.0,0.0,0.0,0.0,0.0,0.0,-0.0122,-0.0185,-0.0123,-0.0278,-0.0432,0.0,0.0,0.0,0.0,0.0,0.0,-0.1004,0.0,0.0,0.0,0.0,0.0,0.0,0.0,0.0,0.0,0.0,0.0,0.0,0.0,-0.5256,-0.5416,0.0,-0.5467,-0.5419,-0.5515,-0.5467,0.0,0.0,0.0,-0.5395,-0.5395,-0.5395,-0.5395,-0.5395,-0.5395,-0.5395,-0.5395,-0.5395,0.0,0.0,0.0,0.0,0.0,0.0,0.0,0.0,0.0,0.0,-1.21,-1.1585,-1.1058,-1.0448,-1.0096,-1.0443,-1.1617,-1.2009,-1.2186,-1.2186,-1.2528,-1.2528,-1.2143,-1.1585,-1.1106,-1.0755,-1.0183,-0.9705,-0.9362,-0.9362,-0.9274,0.0,-0.9096,-0.8838,-0.8404,-0.8404,-0.8061,-0.7588,-0.7588,-0.7676,-0.7768,0.0,0.0,0.0,0.0,0.0,0.0,0.0,0.0,0.0,0.0,0.0,0.0,0.0,0.0,0.0,0.0,0.0,0.0,0.0,0.0,0.0,0.0,0.0,0.0,0.0,0.0,0.0,0.0,0.0,0.0,0.0,-0.0124,-0.0124,0.0,-0.0124,-0.0311,-0.0496,-0.0784,-0.0817,-0.0715,-0.0901,-0.098,0.0,0.0,0.0,0.0,0.0,0.0,0.0,0.0,0.0,0.0,0.0,0.0,0.0,0.0,0.0,0.0,0.0,-0.5395,0.0,0.0,0.0,0.0,0.0,0.0,0.0,-0.5395,-0.5395,-0.5395,-0.5395,-0.5395,-0.5395,-0.5395,0.0,0.0,0.0,0.0,0.0,0.0,0.0,0.0,0.0,0.0,-1.2662,-1.2619,-1.1709,-1.1149,-1.1106,-1.0231,-0.9705,-0.9705,-1.0626,-1.1149,-1.1192,-1.2052,-1.2052,-1.1192,-1.1149,-1.0626,-0.9792,-0.9749,-0.9231,0.0,-0.8412,-0.7885,-0.7095,-0.7095,-0.7095,-0.7095,-0.7095,-0.7095,-0.7095,-0.7095,-0.7279,-0.7503,0.0,0.0,0.0,0.0,0.0,0.0,0.0,0.0,0.0,0.0,0.0,0.0,0.0,0.0,0.0,0.0,0.0,0.0,0.0,0.0,0.0,0.0,0.0,0.0,0.0,0.0,0.0,0.0,0.0,0.0,0.0,-0.0033,-0.0033,0.0,-0.0033,-0.0165,-0.0363,-0.0689,-0.0821,-0.0793,-0.0826,-0.0928,0.0,0.0,0.0,0.0,-0.0472,-0.0438,0.0,0.0,0.0,0.0,0.0,0.0,0.0,0.0,-0.4924,-0.5156,-0.5156,0.0,-0.5395,-0.5395,-0.5395,-0.5395,0.0,0.0,0.0,0.0,0.0,0.0,0.0,0.0,0.0,0.0,0.0,0.0,0.0,0.0,0.0,0.0,0.0,0.0,0.0,0.0,-1.2406,-1.1671,-1.0755,-0.9927,-0.9192,-0.8277,-0.7749,-0.7749,-0.8671,-0.9497,-1.0226,-1.0443,-1.0443,-1.0226,-0.9497,-0.9065,-0.8803,-0.8101,-0.7621,-0.7448,-0.7448,-0.7316,-0.7095,-0.7095,-0.7095,-0.7095,-0.7095,-0.7095,-0.7095,-0.7095,-0.7143,-0.7231,0.0,0.0,0.0,0.0,0.0,0.0,0.0,0.0,0.0,0.0,0.0,0.0,0.0,0.0,0.0,0.0,0.0,0.0,0.0,0.0,0.0,0.0,0.0,0.0,0.0,0.0,0.0,0.0,0.0,0.0,0.0,0.0,0.0,0.0,-0.0101,-0.0202,-0.0303,-0.0565,-0.07,-0.0808,-0.0798,0.0,0.0,0.0,0.0,0.0,-0.0371,-0.0236,0.0,-0.0034,-0.0505,-0.121,0.0,0.0,0.0,0.0,-0.4758,-0.496,-0.496,-0.5193,-0.5395,-0.5395,-0.5395,-0.5395,0.0,0.0,0.0,0.0,0.0,0.0,0.0,0.0,0.0,0.0,0.0,0.0,0.0,0.0,0.0,0.0,0.0,0.0,0.0,0.0,-1.2015,-1.1972,-1.0274,-0.9231,-0.9148,-0.7837,-0.7095,-0.7095,-0.7577,-0.8321,-0.9235,-0.9705,-0.9662,-0.9235,-0.8759,-0.8281,-0.7841,-0.7316,-0.7095,-0.7095,-0.7095,-0.7095,-0.7095,-0.7095,-0.7095,-0.7095,-0.7095,-0.7095,-0.7095,-0.7095,-0.7095,-0.7143,0.0,0.0,0.0,0.0,0.0,0.0,0.0,0.0,0.0,0.0,0.0,0.0,0.0,0.0,0.0,0.0,0.0,0.0,0.0,0.0,0.0,0.0,0.0,0.0,0.0,0.0,0.0,0.0,0.0,0.0,0.0,0.0,0.0,-0.0067,-0.027,-0.0371,-0.0337,-0.046,-0.0627,-0.0808,-0.0756,0.0,0.0,0.0,0.0,0.0,0.0,0.0,0.0,0.0,-0.0404,-0.1042,-0.1745,0.0,0.0,0.0,0.0,0.0,-0.4797,-0.5063,-0.5359,-0.5359,-0.5362,-0.5395,-0.5395,0.0,0.0,0.0,0.0,0.0,0.0,0.0,0.0,0.0,0.0,0.0,0.0,0.0,0.0,0.0,0.0,0.0,-1.0558,-1.0862,-1.1408,-1.2223,-0.9927,-0.8842,-0.9662,-0.8057,-0.7095,-0.7095,-0.7095,-0.7492,-0.8281,-0.9056,-0.9056,-0.8281,-0.8281,-0.7885,-0.7095,-0.7095,-0.7095,-0.7095,-0.7095,-0.7095,-0.7095,-0.7095,-0.7095,-0.7095,-0.7095,-0.7095,-0.7095,-0.7095,-0.7095,-0.7143,0.0,0.0,0.0,0.0,0.0,0.0,0.0,0.0,0.0,0.0,0.0,0.0,0.0,0.0,0.0,0.0,0.0,0.0,0.0,0.0,0.0,0.0,0.0,0.0,0.0,0.0,0.0,0.0,0.0,0.0,0.0,0.0,-0.0101,-0.027,-0.0573,-0.064,-0.0472,-0.0503,-0.0604,-0.0775,-0.0503,0.0,0.0,0.0,0.0,0.0,0.0,0.0,0.0,0.0,-0.0067,-0.0303,-0.1008,0.0,0.0,0.0,0.0,0.0,-0.4764,-0.496,-0.5156,-0.5156,-0.5259,-0.5395,-0.5395,0.0,0.0,0.0,0.0,0.0,0.0,0.0,0.0,0.0,0.0,0.0,0.0,0.0,0.0,0.0,0.0,0.0,-0.8918,-0.9605,-1.0183,-1.0313,-0.9192,-0.854,-0.8715,-0.7709,-0.7095,-0.7095,-0.7095,-0.7183,-0.7316,-0.7445,-0.7445,-0.7316,-0.7316,-0.7228,-0.7095,-0.7095,-0.7095,-0.7095,-0.7095,-0.7095,-0.7095,-0.7095,-0.7095,-0.7095,-0.7095,-0.7095,-0.7095,-0.7095,-0.7095,-0.7095,0.0,0.0,0.0,0.0,0.0,0.0,0.0,0.0,0.0,0.0,0.0,0.0,0.0,0.0,0.0,0.0,0.0,0.0,0.0,0.0,0.0,0.0,0.0,0.0,0.0,0.0,0.0,0.0,0.0,0.0,0.0,0.0,-0.0034,-0.0135,-0.0303,-0.0371,-0.0371,-0.027,-0.0404,-0.0607,0.0,0.0,0.0,0.0,0.0,0.0,0.0,0.0,0.0,0.0,0.0,-0.0135,-0.0875,0.0,0.0,0.0,0.0,0.0,-0.4498,-0.4731,-0.4924,-0.4924,-0.516,-0.5395,0.0,0.0,0.0,0.0,0.0,0.0,0.0,0.0,0.0,0.0,0.0,0.0,0.0,0.0,0.0,0.0,0.0,-0.8737,-0.8515,-0.8886,-0.9362,-0.9879,-0.858,-0.7973,-0.8456,-0.7621,-0.7095,-0.7095,-0.7095,-0.7095,-0.7095,-0.7095,-0.7095,-0.7095,-0.7095,-0.7095,-0.7095,-0.7095,-0.7095,-0.7095,-0.7095,-0.7095,-0.7095,-0.7095,-0.7095,-0.7095,-0.7095,-0.7095,-0.7095,-0.7095,-0.7095,-0.7095,0.0,0.0,0.0,0.0,0.0,0.0,0.0,0.0,0.0,0.0,0.0,0.0,0.0,0.0,0.0,0.0,0.0,0.0,0.0,0.0,0.0,0.0,0.0,0.0,0.0,0.0,0.0,0.0,0.0,0.0,0.0,-0.0034,-0.0067,-0.0067,-0.0101,-0.0202,-0.0337,-0.0135,-0.0236,-0.0472,0.0,0.0,0.0,0.0,0.0,0.0,0.0,0.0,0.0,0.0,0.0,0.0,0.0,0.0,0.0,-0.2781,-0.3589,-0.43,-0.4367,-0.4564,-0.4764,-0.4861,-0.513,0.0,0.0,0.0,0.0,0.0,0.0,0.0,0.0,0.0,0.0,0.0,0.0,0.0,0.0,0.0,0.0,0.0,-0.7541,-0.7896,-0.8162,-0.8193,-0.8452,-0.9183,-0.7925,-0.7404,-0.8149,-0.7492,-0.7095,-0.7095,-0.7095,-0.7095,-0.7095,-0.7095,-0.7095,-0.7095,-0.7095,-0.7095,-0.7095,-0.7095,-0.7095,-0.7095,-0.7095,-0.7095,-0.7095,-0.7095,-0.7095,-0.7095,-0.7095,-0.7095,-0.7095,-0.7095,-0.7095,-0.7095,0.0,0.0,0.0,0.0,0.0,0.0,0.0,0.0,0.0,0.0,0.0,0.0,0.0,0.0,0.0,0.0,0.0,0.0,0.0,0.0,0.0,0.0,0.0,0.0,0.0,0.0,0.0,0.0,0.0,0.0,0.0,-0.0202,-0.027,-0.027,-0.0404,-0.0472,-0.0472,-0.0337,-0.0371,-0.0472,-0.0135,0.0,0.0,0.0,0.0,0.0,0.0,0.0,0.0,0.0,0.0,0.0,0.0,0.0,-0.2114,-0.2179,-0.3188,-0.4334,-0.4528,-0.4592,-0.4691,-0.4987,-0.5256,0.0,-0.5395,-0.5395,0.0,-0.5395,0.0,0.0,0.0,0.0,0.0,0.0,0.0,0.0,0.0,0.0,0.0,-0.7078,-0.7047,-0.7056,-0.7166,-0.7183,-0.7228,-0.7312,-0.7183,-0.7139,-0.7183,-0.7139,-0.7095,-0.7095,-0.7095,-0.7095,-0.7095,-0.7095,-0.7095,-0.7095,-0.7095,-0.7095,-0.7095,-0.7095,-0.7095,-0.7095,-0.7095,-0.7095,-0.7095,-0.7095,-0.7095,-0.7095,-0.7095,-0.7095,-0.7095,-0.7095,-0.7095,-0.7095,0.0,0.0,0.0,0.0,0.0,0.0,0.0,0.0,0.0,0.0,0.0,0.0,0.0,0.0,0.0,0.0,0.0,0.0,0.0,0.0,0.0,0.0,0.0,0.0,0.0,0.0,0.0,0.0,0.0,0.0,0.0,-0.0067,-0.0101,-0.0101,-0.0169,-0.0202,-0.0202,-0.0135,-0.0135,-0.0169,-0.0067,-0.0034,0.0,0.0,0.0,0.0,0.0,0.0,0.0,0.0,0.0,0.0,0.0,-0.0673,-0.1478,-0.1478,-0.2484,-0.362,-0.372,-0.4223,-0.4761,-0.4894,-0.516,0.0,0.0,-0.5395,-0.5395,-0.5395,-0.5395,0.0,0.0,0.0,0.0,0.0,0.0,0.0,0.0,0.0,-0.694,-0.7078,-0.697,-0.6943,-0.7082,-0.7095,-0.7095,-0.7095,-0.7095,-0.7095,-0.7095,-0.7095,-0.7095,-0.7095,-0.7095,-0.7095,-0.7095,-0.7095,-0.7095,-0.7095,-0.7095,-0.7095,-0.7095,-0.7095,-0.7095,-0.7095,-0.7095,-0.7095,-0.7095,-0.7095,-0.7095,-0.7095,-0.7095,-0.7095,-0.7095,-0.7095,-0.7095,-0.7095,0.0,0.0,0.0,0.0,0.0,0.0,0.0,0.0,0.0,0.0,0.0,0.0,0.0,0.0,0.0,0.0,0.0,0.0,0.0,0.0,0.0,0.0,0.0,0.0,0.0,0.0,0.0,0.0,0.0,0.0,0.0,0.0,0.0,0.0,0.0,0.0,0.0,0.0,0.0,0.0,0.0,0.0,0.0,0.0,0.0,0.0,0.0,0.0,0.0,0.0,0.0,0.0,0.0,-0.0505,-0.1143,-0.1344,-0.2315,-0.3351,-0.3585,-0.4223,-0.4827,-0.4894,0.0,0.0,-0.5395,-0.5395,-0.5395,-0.5395,-0.5433,0.0,0.0,0.0,0.0,0.0,0.0,0.0,0.0,-0.6953,-0.6987,-0.7085,-0.7011,-0.6991,-0.7088,-0.7095,-0.7095,-0.7095,-0.7095,-0.7095,-0.7095,-0.7095,-0.7095,-0.7095,-0.7095,-0.7095,-0.7095,-0.7095,-0.7095,-0.7095,-0.7095,-0.7095,-0.7095,-0.7095,-0.7095,-0.7095,-0.7095,-0.7095,-0.7095,-0.7095,-0.7095,-0.7095,-0.7095,-0.7095,-0.7095,-0.7095,-0.7095,-0.7095,0.0,0.0,0.0,0.0,0.0,0.0,0.0,0.0,0.0,0.0,0.0,0.0,0.0,0.0,0.0,0.0,0.0,0.0,0.0,0.0,0.0,0.0,0.0,0.0,0.0,0.0,0.0,0.0,0.0,0.0,0.0,0.0,0.0,0.0,0.0,0.0,0.0,0.0,0.0,0.0,0.0,0.0,0.0,0.0,0.0,0.0,0.0,0.0,0.0,0.0,0.0,0.0,0.0,-0.0505,-0.121,-0.1879,-0.275,-0.3654,-0.4359,-0.4694,-0.4861,0.0,0.0,0.0,-0.5359,-0.5395,-0.5395,-0.5395,0.0,-0.5633,0.0,0.0,0.0,0.0,0.0,0.0,-0.7055,-0.7095,-0.7095,-0.7095,-0.7095,-0.7095,-0.7095,-0.7095,-0.7095,-0.7095,-0.7095,-0.7095,-0.7095,-0.7095,-0.7095,-0.7095,-0.7095,-0.7095,-0.7095,-0.7095,-0.7095,-0.7095,-0.7095,-0.7095,-0.7095,-0.7095,-0.7095,-0.7095,-0.7095,-0.7095,-0.7095,-0.7095,-0.7095,-0.7095,-0.7095,-0.7095,-0.7095,-0.7095,-0.7095,-0.7095,0.0,0.0,0.0,0.0,0.0,0.0,0.0,0.0,0.0,0.0,0.0,0.0,0.0,0.0,0.0,0.0,0.0,0.0,0.0,0.0,0.0,0.0,0.0,0.0,0.0,0.0,0.0,0.0,0.0,0.0,0.0,0.0,0.0,0.0,0.0,0.0,0.0,0.0,0.0,0.0,0.0,0.0,0.0,0.0,0.0,0.0,0.0,0.0,0.0,0.0,0.0,0.0,0.0,-0.0135,-0.0371,-0.0572,-0.1511,-0.2482,-0.2315,-0.3522,0.0,0.0,0.0,0.0,0.0,-0.5395,0.0,0.0,0.0,0.0,0.0,0.0,0.0,-0.6566,-0.6671,-0.6803,-0.7055,-0.7095,-0.7095,-0.7095,-0.7095,-0.7095,-0.7095,-0.7095,-0.7095,-0.7095,-0.7095,-0.7095,-0.7095,-0.7095,-0.7095,-0.7095,-0.7095,-0.7095,-0.7095,-0.7095,-0.7095,-0.7095,-0.7095,-0.7095,-0.7095,-0.7095,-0.7095,-0.7095,-0.7095,-0.7095,-0.7095,-0.7095,-0.7095,-0.7095,-0.7095,-0.7095,-0.7095,-0.7095,-0.7095,-0.7095,0.0,0.0,0.0,0.0,0.0,0.0,0.0,0.0,0.0,0.0,0.0269,0.0,0.0,0.0,0.0,0.0,0.0,0.0,0.0,0.0,0.0,0.0,0.0,0.0,0.0,0.0,0.0,0.0,0.0,0.0,0.0,0.0,0.0,0.0,0.0,0.0,0.0,0.0,0.0,0.0,0.0,0.0,0.0,0.0,0.0,0.0,0.0,0.0,0.0,0.0,0.0,0.0,0.0,0.0,-0.0135,-0.0774,-0.1611,-0.2414,-0.2714,0.0,0.0,0.0,0.0,0.0,0.0,0.0,0.0,0.0,0.0,0.0,0.0,-0.6122,0.0,-0.6556,-0.6661,-0.6783,-0.6977,-0.7061,-0.7095,-0.7095,-0.7095,-0.7095,-0.7095,-0.7095,-0.7095,-0.7095,-0.7095,-0.7095,-0.7095,-0.7095,-0.7095,-0.7095,-0.7095,-0.7095,-0.7095,-0.7095,-0.7095,-0.7095,-0.7095,-0.7095,-0.7095,-0.7095,-0.7095,-0.7095,-0.7095,-0.7095,-0.7095,-0.7095,-0.7095,-0.7095,-0.7095,-0.7095,-0.7095,-0.7095,-0.7095,-0.7095,0.0,0.0,0.0,0.0,0.0,0.0,0.0,0.0,0.0,0.0,0.0034,0.0,0.0,0.0,0.0,0.0,0.0,0.0,0.0,0.0,0.0,0.0,0.0,0.0,0.0,0.0,0.0,0.0,0.0,0.0,0.0,0.0,0.0,0.0,0.0,0.0,0.0,0.0,0.0,0.0,0.0,0.0,0.0,0.0,0.0,0.0,0.0,0.0,0.0,0.0,0.0,0.0,0.0,0.0,-0.0303,-0.1746,-0.2414,-0.2978,-0.4384,0.0,0.0,0.0,0.0,0.0,0.0,0.0,0.0,0.0,0.0,0.0,0.0,-0.6219,-0.6227,-0.6368,-0.6423,-0.6479,-0.6629,-0.6766,-0.6851,-0.6851,-0.682,-0.683,-0.683,-0.683,-0.683,-0.683,-0.683,-0.6871,-0.6962,-0.6962,-0.7007,-0.7095,-0.7095,-0.7095,-0.7095,-0.7095,-0.7095,-0.7095,-0.7095,-0.7095,-0.7095,-0.7095,-0.7095,-0.7095,-0.7095,-0.7095,-0.7095,-0.7095,-0.7095,-0.7095,-0.7095,-0.7095,-0.7095,-0.7095,-0.7095,-0.7095,0.0,0.0,0.0,0.0,0.0,0.0,0.0,0.0,0.0,0.0,0.0,0.0,0.0,0.0,0.0,0.0,0.0,0.0,0.0,0.0,0.0,0.0,0.0,0.0,0.0,0.0,0.0,0.0,0.0,0.0,0.0,0.0,0.0,0.0,0.0,0.0,0.0,0.0,0.0,0.0,0.0,0.0,0.0,0.0,0.0,0.0,0.0,0.0,0.0,0.0,0.0,0.0,0.0,0.0,-0.0067,-0.0404,-0.1444,-0.2447,0.0,-0.3713,0.0,0.0,0.0,0.0,0.0,0.0,0.0,0.0,0.0,0.0,0.0,-0.5747,-0.5319,-0.5448,-0.496,-0.4608,-0.4757,-0.4815,-0.4834,-0.4834,-0.4861,-0.4912,-0.4912,-0.4912,-0.4912,-0.4912,-0.4912,-0.5223,-0.5941,-0.5985,-0.634,-0.7095,-0.7095,-0.7095,-0.7095,-0.7095,-0.7095,-0.7095,-0.7095,-0.7095,-0.7095,-0.7095,-0.7095,-0.7095,-0.7095,-0.7095,-0.7095,-0.7095,-0.7095,-0.7095,-0.7095,-0.7095,-0.7095,-0.7095,-0.7095,-0.7095,0.0,0.0,0.0,0.0,0.0,0.0,0.0,0.0,0.0,0.0,0.0,0.0,0.0,0.0,0.0,0.0,0.0,0.0,0.0,0.0,0.0,0.0,0.0,0.0,0.0,0.0,0.0,0.0,0.0,0.0,0.0,0.0,0.0,0.0,0.0,0.0,0.0,0.0,0.0,0.0,0.0,0.0,0.0,0.0,0.0,0.0,0.0,0.0,0.0,0.0,0.0,0.0,0.0,0.0,-0.0067,-0.0504,-0.1208,-0.191,0.0,0.0,0.0,0.0,0.0,0.0,0.0,0.0,0.0,0.0,0.0,0.0,0.0,-0.473,-0.4435,-0.453,-0.4221,-0.4029,-0.4078,-0.4164,-0.4221,-0.4221,-0.422,-0.4266,-0.4264,-0.4268,-0.4284,-0.4285,-0.4289,-0.4512,-0.5003,-0.5048,-0.527,-0.5758,-0.5758,-0.5758,-0.5758,-0.5758,-0.5758,-0.5758,-0.5758,-0.5758,-0.5802,-0.6694,-0.7095,-0.7095,-0.7095,-0.7095,-0.7095,-0.7095,-0.7095,-0.7095,-0.7095,-0.7095,-0.7095,-0.7095,-0.7095,-0.7095,0.0,0.0,0.0,0.0,0.0,0.0,0.0,0.0,0.0,0.0,0.0,0.0,0.0,0.0,0.0,0.0,0.0,0.0,0.0,0.0,0.0,0.0,0.0,0.0,0.0,0.0,0.0,0.0,0.0,0.0,0.0,0.0,0.0,0.0,0.0,0.0,0.0,0.0,0.0,0.0,0.0,0.0,0.0,0.0,0.0,0.0,0.0,0.0,0.0,0.0,0.0,0.0,0.0,0.0,-0.0135,-0.0873,-0.1173,-0.1507,0.0,0.0,0.0,0.0,0.0,0.0,0.0,0.0,0.0,0.0,0.0,0.0,0.0,-0.3677,-0.356,-0.356,-0.354,-0.3546,-0.3546,-0.3619,-0.3713,-0.3713,-0.3684,-0.3718,-0.3696,-0.3701,-0.3729,-0.3798,-0.3815,-0.3866,-0.4043,-0.4059,-0.4156,-0.4289,-0.4289,-0.4289,-0.4289,-0.4289,-0.4289,-0.4289,-0.4289,-0.4289,-0.4332,-0.5891,-0.6694,-0.6874,-0.6874,-0.6962,-0.7095,-0.7095,-0.7095,-0.7095,-0.7095,-0.7095,-0.7095,-0.7095,-0.7095,-0.7095,0.0,0.0,0.0,0.0,0.0,0.0,0.0,0.0,0.0,0.0,0.0,0.0,0.0,0.0,0.0,0.0,0.0,0.0,0.0,0.0,0.0,0.0,0.0,0.0,0.0,0.0,0.0,0.0,0.0,0.0,0.0,0.0,0.0,0.0,0.0,0.0,0.0,0.0,0.0,0.0,0.0,0.0,0.0,0.0,0.0,0.0,0.0,0.0,0.0,0.0,0.0,0.0,0.0,0.0,-0.0034,-0.0135,-0.0706,-0.134,0.0,0.0,0.0,0.0,0.0,0.0,0.0,0.0,0.0,0.0,0.0,0.0,-0.3791,-0.3171,-0.2666,-0.2666,-0.2084,-0.1657,-0.1657,-0.1691,-0.1675,-0.1675,-0.1705,-0.1685,-0.169,-0.169,-0.1693,-0.1698,-0.1769,-0.2135,-0.2961,-0.3059,-0.3446,-0.4287,-0.4289,-0.4289,-0.4289,-0.4289,-0.4289,-0.4289,-0.4289,-0.4289,-0.4289,-0.4554,-0.5137,-0.5897,-0.5897,-0.634,-0.7095,-0.7095,-0.7095,-0.7095,-0.7095,-0.7095,-0.7095,-0.7095,-0.7095,-0.7095,0.0,0.0,0.0,0.0,0.0,0.0,0.0,0.0,0.0,0.0,0.0,0.0,0.0,0.0,0.0,0.0,0.0,0.0,0.0,0.0,0.0,0.0,0.0,0.0,0.0,0.0,0.0,0.0,0.0,0.0,0.0,0.0,0.0,0.0,0.0,0.0,0.0,0.0,0.0,0.0,0.0,-0.0074,-0.0146,-0.0036,-0.0072,-0.0143,-0.0035,0.0,0.0,0.0,0.0,0.0,0.0,0.0,0.0,0.0,0.0,0.0,0.0,0.0,0.0,0.0,0.0,0.0,0.0,0.0,0.0,0.0,0.0,0.0,-0.2378,-0.2079,-0.1846,-0.1846,-0.1532,-0.1296,-0.1296,-0.1308,-0.1317,-0.1317,-0.1289,-0.1304,-0.128,-0.1281,-0.1288,-0.1304,-0.1317,-0.1537,-0.1921,-0.1981,-0.2207,-0.2593,-0.2636,-0.2636,-0.2636,-0.2666,-0.2653,-0.2685,-0.2685,-0.2685,-0.2685,-0.2685,-0.3487,-0.4914,-0.4914,-0.5447,-0.6296,-0.6296,-0.6609,-0.7095,-0.7095,-0.7095,-0.7095,-0.7095,-0.7095,-0.7095,0.0,0.0,0.0,0.0,0.0,0.0,0.0,0.0,0.0,0.0,0.0,0.0,0.0,0.0,0.0,0.0,0.0,0.0,0.0,0.0,0.0,0.0,0.0,0.0,0.0,0.0,0.0,0.0,0.0,0.0,0.0,0.0,0.0,0.0,0.0,0.0,0.0,0.0,0.0,0.0,-0.0038,-0.0151,-0.0297,-0.0184,-0.0221,-0.0294,-0.0146,-0.0036,0.0,0.0,0.0,0.0,0.0,0.0,0.0,0.0,0.0,0.0,0.0,0.0,0.0,0.0,0.0,0.0,0.0,0.0,0.0,0.0,0.0,-0.1232,-0.1286,-0.129,-0.1287,-0.1295,-0.1296,-0.1296,-0.1296,-0.1296,-0.1296,-0.1296,-0.1296,-0.1306,-0.1289,-0.1291,-0.1301,-0.1282,-0.129,-0.1295,-0.1295,-0.1302,-0.1305,-0.1305,-0.1305,-0.1305,-0.1305,-0.1283,-0.1307,-0.1336,-0.1247,-0.1294,-0.1391,-0.1345,-0.215,-0.3576,-0.3844,-0.4467,-0.5361,-0.5361,-0.5761,-0.6381,-0.6381,-0.6517,-0.6741,-0.6741,-0.6874,-0.7095,0.0,0.0,0.0,0.0,0.0,0.0,0.0,0.0,0.0,0.0,0.0,0.0,0.0,0.0,0.0,0.0,0.0,0.0,0.0,0.0,0.0,0.0,0.0,0.0,0.0,0.0,0.0,0.0,0.0,0.0,0.0,0.0,0.0,0.0,0.0,0.0,0.0,0.0,0.0,0.0,-0.0196,-0.0274,-0.0312,-0.0496,-0.0453,-0.0301,-0.0294,-0.0146,0.0,0.0,0.0,0.0,0.0,0.0,0.0,0.0,0.0,0.0,0.0,0.0,0.0,0.0,0.0,0.0,0.0,0.0,0.0,0.0,0.0,-0.1219,-0.1291,-0.1234,-0.1224,-0.1292,-0.1296,-0.1296,-0.1296,-0.1296,-0.1296,-0.1296,-0.1296,-0.1297,-0.1298,-0.1299,-0.13,-0.1301,-0.1288,-0.1305,-0.1305,-0.129,-0.1305,-0.1305,-0.1305,-0.1305,-0.1305,-0.1096,-0.1067,-0.1134,-0.0872,-0.0969,-0.1391,-0.1211,-0.1256,-0.1614,-0.2553,-0.3491,-0.4376,-0.4376,-0.4423,-0.4465,-0.4465,-0.5003,-0.5764,-0.5764,-0.634,-0.7095,0.0,0.0,0.0,0.0,0.0,0.0,0.0,0.0,0.0,0.0,0.0,0.0,0.0,0.0,0.0,0.0,0.0,0.0,0.0,0.0,0.0,0.0,0.0,0.0,0.0,0.0,0.0,0.0,0.0,0.0,0.0,0.0,0.0,0.0,0.0,0.0,0.0,0.0,0.0,0.0,0.0,0.0,0.0,0.0,0.0,0.0,0.0,0.0,0.0,0.0,0.0,0.0,0.0,0.0,0.0,0.0,0.0,0.0,0.0,0.0,0.0,0.0,0.0,0.0,0.0,0.0,0.0,0.0,0.0,-0.1192,-0.1222,-0.1235,-0.1284,-0.1295,-0.1296,-0.1296,-0.1296,-0.1296,-0.1296,-0.1296,-0.1296,-0.1296,-0.1296,-0.1296,-0.1296,-0.1296,-0.1307,-0.1313,-0.1313,-0.1284,-0.129,-0.129,-0.129,-0.1299,-0.1318,-0.1237,-0.1126,-0.1023,-0.0938,-0.0992,-0.1188,-0.0968,-0.1063,-0.1436,-0.1658,-0.2373,-0.3401,-0.3401,-0.3757,-0.4289,-0.4289,-0.4512,-0.4779,-0.4779,-0.5406,-0.6207,0.0,0.0,0.0,0.0,0.0,0.0,0.0,0.0,0.0,0.0,0.0,0.0,0.0,0.0,0.0,0.0,0.0,0.0,0.0,0.0,0.0,0.0,0.0,0.0,0.0,0.0,0.0,0.0,0.0,0.0,0.0,0.0,0.0,0.0,0.0,0.0,0.0,0.0,0.0,0.0,0.0,0.0,-0.051,0.0,0.0,0.0,0.0,0.0,0.0,0.0,0.0,0.0,0.0,0.0,0.0,0.0,0.0,0.0,0.0,0.0,0.0,0.0,0.0,0.0,0.0,0.0,0.0,0.0,0.0,-0.1241,-0.1224,-0.1282,-0.1296,-0.1296,-0.1296,-0.1296,-0.1296,-0.1296,-0.1296,-0.1296,-0.1296,-0.1296,-0.1296,-0.1218,-0.1178,-0.1178,-0.11,-0.1061,-0.1061,-0.1061,-0.1061,-0.1061,-0.1061,-0.1069,-0.1046,-0.1046,-0.1017,-0.0916,-0.0791,-0.0843,-0.0947,-0.0694,-0.0789,-0.1155,-0.1118,-0.1613,-0.2374,-0.2374,-0.2776,-0.3309,-0.3309,-0.3532,-0.3846,-0.3846,-0.4425,-0.5225,0.0,0.0,0.0,0.0,0.0,0.0,0.0,0.0,0.0,0.0,0.0,0.0,0.0,0.0,0.0,0.0,0.0,0.0,0.0,0.0,0.0,0.0,0.0,0.0,0.0,0.0,0.0,0.0,0.0,0.0,0.0,0.0,0.0,0.0,0.0,0.0,0.0,0.0,0.0,0.0,0.0,-0.0314,-0.0314,0.0,0.0,0.0,-0.0314,-0.0157,0.0,0.0,0.0,0.0,0.0,0.0,0.0,0.0,0.0,0.0,0.0,0.0,0.0,0.0,0.0,0.0,0.0,0.0,0.0,0.0,0.0,-0.1296,-0.1296,-0.1296,-0.1296,-0.1296,-0.1296,-0.1296,-0.1296,-0.1296,-0.1296,-0.1296,-0.1296,-0.1296,-0.1296,-0.1061,-0.0904,-0.0904,-0.0707,-0.0589,-0.0589,-0.0589,-0.0589,-0.0589,-0.0589,-0.0589,-0.0589,-0.0589,-0.0636,-0.0691,-0.0406,-0.0453,-0.0674,-0.0473,-0.0522,-0.0697,-0.0978,-0.121,-0.1391,-0.1391,-0.1391,-0.1391,-0.1391,-0.2017,-0.2867,-0.2867,-0.3446,-0.4245,0.0,0.0,0.0,0.0,0.0,0.0,0.159,0.066,0.0,0.0,0.0,0.0,0.0,0.0,0.0,0.0,0.0,0.0,0.0,0.0,0.0,0.0,0.0,0.0,0.0,0.0,0.0,0.0,0.0,0.0,0.0,0.0,0.0,0.0,0.0,0.0,0.0,0.0,0.0,0.0,-0.0079,-0.0157,0.0,0.0,0.0,0.0,0.0,-0.0157,0.0,0.0,0.0,0.0,0.0,0.0,0.0,0.0,0.0,0.0,0.0,0.0,0.0,0.0,0.0,0.0,0.0,0.0,0.0,0.0,-0.1021,-0.1061,-0.1257,-0.1296,-0.1296,-0.1296,-0.1296,-0.1296,-0.1296,-0.1139,-0.1021,-0.1021,-0.0864,-0.0786,-0.0786,-0.0707,-0.0668,0.0,-0.0628,-0.0589,-0.0589,-0.0589,-0.0589,-0.0589,-0.0589,-0.0589,-0.0589,-0.0589,-0.0552,-0.0397,-0.0317,-0.0361,-0.0493,-0.0207,-0.0338,-0.0697,-0.0613,-0.0708,-0.0942,-0.1256,-0.1391,-0.1391,-0.1391,-0.1569,-0.1793,-0.1793,-0.2419,-0.3267,0.0,0.0,0.0,0.0,0.0,0.1293,0.1293,0.0549,0.0,0.0,0.0,0.0,0.0,0.0,0.0,0.0,0.0,0.0,0.0,0.0,0.0,0.0,0.0,0.0,0.0,0.0,0.0,0.0,0.0,0.0,0.0,0.0,0.0,0.0,0.0,0.0,0.0,0.0,0.0,0.0,0.0,0.0,0.0,-0.0157,-0.0157,0.0,0.0,0.0,0.0,0.0,0.0,0.0,0.0,0.0,0.0,0.0,0.0,0.0,0.0,0.0,0.0,0.0,0.0,0.0,0.0784,0.0314,-0.0275,0.0,-0.1061,-0.11,-0.1257,-0.1296,-0.1296,-0.1296,-0.1218,-0.1178,-0.1296,-0.1061,-0.0904,-0.0904,-0.0707,-0.0587,-0.0581,-0.0542,-0.0464,-0.0464,-0.0387,-0.035,-0.0353,-0.0353,-0.0353,-0.0353,-0.0353,-0.0393,-0.0471,-0.0471,-0.0432,-0.0314,-0.0314,-0.0277,-0.0241,-0.0081,-0.0165,-0.0424,-0.0389,-0.0526,-0.0709,-0.1117,-0.1256,-0.1256,-0.1256,-0.1345,-0.1391,-0.1391,-0.1749,-0.2285,0.0,0.0,0.0,0.2231,0.1644,0.1176,0.1176,0.051,0.0,0.0,0.0,0.0,0.0,0.0,0.0,0.0,0.0,0.0,0.0,0.0,0.0,0.0,0.0,0.0,0.0,0.0,0.0,0.0,0.0,0.0,0.0,0.0,0.0,0.0,0.0,0.0,0.0,0.0,0.0,0.0,0.0,0.0,0.0,0.0,0.0,0.0,0.0,0.0,0.0,0.0,0.0,0.0,0.0,0.0,0.0,0.0,0.0628,0.0,0.0,0.0,0.0,0.0,0.0,0.0,0.1175,0.0861,0.047,-0.0667,-0.0903,-0.0903,-0.0942,-0.0942,-0.0942,-0.0942,-0.0825,-0.0864,-0.1218,-0.1021,-0.0825,-0.0825,-0.0668,-0.0545,-0.0531,-0.0379,-0.0265,-0.0264,-0.0113,0.0,0.0,0.0,0.0,0.0,0.0,-0.0079,-0.0275,-0.0275,-0.0275,-0.0275,-0.0275,-0.0157,0.0,0.0,0.0,0.0,-0.0298,-0.0478,-0.0654,-0.089,-0.1076,-0.1121,-0.1121,-0.1211,-0.1391,-0.139,-0.1391,-0.1391,0.0,0.0,0.0,0.0628,0.0353,0.0235,0.0235,0.0118,0.0,0.0,0.0,0.0,0.0,0.0,0.0,0.0,0.0,0.0,0.0,0.0,0.0,0.0,0.0,0.0,0.0,0.0,0.0,0.0,0.0,0.0,0.0,0.0,0.0,0.0,0.0,0.0,0.0,0.0,0.0,0.0,0.0,0.0,0.0,0.0,0.0,0.0,0.0,0.0,0.0,0.0,0.0,0.0,0.0,0.0,0.0,0.0,0.0,0.0,0.0,0.0,0.0,0.0,0.0,0.0,0.3088,0.262,0.1995,0.0,0.1526,0.1487,0.1291,0.1291,0.1291,0.1291,0.0744,0.0,-0.0864,-0.0668,-0.0432,-0.0432,-0.0236,-0.0117,-0.0114,-0.0076,-0.0075,-0.0074,-0.0037,0.0,0.0,0.0,0.0,0.0,0.0,0.0,-0.0039,-0.0039,-0.0039,-0.0039,-0.0039,-0.0039,0.0,0.0,0.0,0.0,-0.0293,-0.03,-0.0174,-0.0445,-0.0852,-0.1345,-0.1166,-0.1211,-0.1391,-0.1211,-0.1256,-0.1391,0.0,0.0,0.0,0.0285,0.0081,0.0,0.0,0.0,0.0,0.0,0.0,0.0,0.0,0.0,0.0,0.0,0.0,0.0,0.0,0.0,0.0,0.0,0.0,0.0,0.0,0.0,0.0,0.0,0.0,0.0,0.0,0.0,0.0,0.0,0.0,0.0,0.0,0.0,0.0,0.0,0.0,0.0,0.0,0.0,0.0,0.0,0.0,0.0,0.0,0.0,0.0,0.0,0.0,0.0314,0.0667,0.0,0.1567,0.2543,0.0,0.0,0.0,0.4304,0.0,0.0,0.0,0.3244,0.2774,0.2189,0.2033,0.2033,0.1916,0.0,0.1916,0.1916,0.1252,0.0744,0.0666,0.0118,-0.0314,-0.0314,-0.0118,0.0,0.0,0.0,0.0,0.0,0.0,0.0,0.0,0.0,0.0,0.0,0.0,0.0,0.0,0.0,0.0,0.0,0.0,0.0,0.0,0.0,0.0,0.0,-0.0123,-0.021,-0.0214,-0.035,-0.0667,-0.1031,-0.0807,-0.1031,-0.1345,-0.1031,-0.1121,-0.1391,0.0844,0.0,0.0,0.0421,0.021,0.0042,0.0,0.0,0.0,0.0,0.0,0.0,0.0,0.0,0.0,0.0,0.0,0.0,0.0,0.0,0.0,0.0,0.0,0.0,0.0,0.0,0.0,0.0,0.0,0.0,0.0,0.0,0.0,0.0,0.0,0.0,0.0,0.0,0.0,0.0,0.0,0.0,0.0,0.0,0.0,0.0,0.0,0.0,0.0,0.0,0.0119,0.0236,0.0237,0.0826,0.0,0.0,0.0,0.0,0.0,0.0,0.0,0.0,0.0,0.4779,0.0,0.0,0.0,0.2657,0.2501,0.0,0.0,0.0,0.0,0.0,0.0,0.0,0.0,0.1171,0.0,0.0195,0.0078,0.0039,0.0183,0.0073,0.0,0.0,0.0,0.0,0.0,0.0,0.0,0.0,0.0,0.0,0.0,0.0,0.0,0.0,0.0,0.0,0.0,0.0,0.0,0.0,-0.004,-0.0165,-0.0337,-0.0388,-0.0484,-0.0628,-0.0448,-0.0807,-0.13,-0.0807,-0.0942,-0.13,0.1188,0.08,0.0,0.0,0.0379,0.0295,0.0042,0.0,0.0,0.0,0.0,0.0,0.0,0.0,0.0,0.0,0.0,0.0,0.0,0.0,0.0,0.0,0.0,0.0,0.0,0.0,0.0,0.0,0.0,0.0,0.0,0.0,0.0,0.0,0.0,0.0,0.0,0.0,0.0,0.0,0.0,0.0,0.0,0.0,0.0,0.0,0.0,0.0,0.0,0.0,0.0528,0.1141,0.0,0.1713,0.2347,0.0,0.0,0.0,0.0,0.0,0.0,0.0,0.5018,0.0,0.0,0.0,0.4779,0.4662,0.0,0.0,0.0,0.0,0.0,0.0,0.0,0.0,0.3461,0.2703,0.2136,0.2017,0.0813,0.027,0.0915,0.0393,0.0,0.0,0.0,0.0,0.0,0.0,0.0,0.0,0.0,0.0,0.0,0.0,0.0,0.0,0.0,0.0,0.0,0.0,0.0,0.0,-0.0242,-0.0247,-0.0084,-0.0302,-0.0396,-0.0448,-0.0403,-0.0718,-0.1076,-0.0628,-0.0718,-0.1076,0.1403,0.1049,0.0,0.0,0.0699,0.0481,0.0262,0.0087,0.0,0.0,0.0,0.0,0.0,0.0,0.0,0.0,0.0,0.0,0.0,0.0,0.0,0.0,0.0,0.0,0.0,0.0,0.0,0.0,0.0,0.0,0.0,0.0,0.0,0.0,0.0,0.0,0.0,0.0,0.0,0.0,0.0,0.0,0.0,0.0,0.0,0.0,0.0,0.0335,0.0787,0.0,0.1395,0.0,0.0,0.0,0.0,0.0,0.0,0.0,0.0,0.0,0.0,0.0,0.0,0.0,0.5018,0.0,0.5018,0.0,0.0,0.0,0.0,0.0,0.0,0.0,0.4276,0.0,0.0,0.0,0.2495,0.0,0.0,0.0,0.111,0.0811,0.0451,0.0034,0.0409,0.0445,0.0034,0.0,0.0,0.0,0.0,0.0,0.0,0.0,0.0,0.0,0.0,0.0,0.0,0.0,0.0,0.0,-0.0119,-0.0122,0.0,-0.0128,-0.0174,-0.018,-0.018,-0.0449,-0.0807,-0.0359,-0.0449,-0.0852,0.224,0.0,0.0,0.0,0.0,0.0,0.0314,0.0,0.0,0.0,0.0,0.0,0.0,0.0,0.0,0.0,0.0,0.0,0.0,0.0,0.0,0.0,0.0,0.0,0.0,0.0,0.0,0.0,0.0,0.0,0.0,0.0,0.0,0.0,0.0,0.0,0.0,0.0,0.0,0.0,0.0,0.0,0.0,0.0,0.0,0.0044,0.0302,0.081,0.1439,0.1676,0.2375,0.0,0.2938,0.0,0.0,0.0,0.0,0.0,0.5018,0.0,0.0,0.0,0.0,0.0,0.0,0.0,0.0,0.0,0.0,0.0,0.0,0.0,0.0,0.4933,0.0,0.4334,0.0,0.3936,0.0,0.0,0.0,0.0,0.0,0.1365,0.1074,0.0371,0.0807,0.0774,0.0034,0.0,0.0,0.0,0.0,0.0,0.0,0.0,0.0,0.0,0.0,0.0,0.0,0.0,0.0,0.0,0.0,0.0,0.0,0.0,0.0,0.0,0.0,-0.0225,-0.0449,-0.0135,-0.0269,-0.0628,0.4071,0.215,0.0,0.0,0.0,0.0,0.0,0.0,0.0,0.0,0.0,0.0,0.0,0.0,0.0,0.0,0.0,0.0,0.0,0.0,0.0,0.0,0.0,0.0,0.0,0.0,0.0,0.0,0.0,0.0,0.0,0.0,0.0,0.0,0.0,0.0,0.0,0.0,0.0,0.0,0.0,0.0,0.0,0.0,0.0,0.0135,0.103,0.0,0.0,0.2529,0.3298,0.3867,0.3865,0.0,0.0,0.0,0.0,0.0,0.0,0.0,0.0,0.5018,0.0,0.0,0.0,0.0,0.5018,0.0,0.0,0.0,0.0,0.0,0.4938,0.4822,0.4901,0.0,0.0,0.0,0.0,0.0,0.0,0.0,0.0,0.2063,0.1798,0.1111,0.1076,0.0774,0.0034,0.0,0.0,0.0,0.0,0.0,0.0,0.0,0.0,0.0,0.0,0.0,0.0,0.0,0.0,0.0,0.0,0.0,0.0,0.0,0.0,0.0,0.0,0.0,0.0,0.0,-0.018,-0.0359,0.0,0.0,0.0,0.0,0.0,0.0,0.0,0.0135,0.0,0.0,0.0,0.0,0.0,0.0,0.0,0.0,0.0,0.0,0.0,0.0,0.0,0.0,0.0,0.0,0.0,0.0,0.0,0.0,0.0,0.0,0.0,0.0,0.0,0.0,0.0,0.0,0.0,0.0,0.0,0.0,0.0,0.0,0.0,0.0,0.0404,0.0987,0.1301,0.2231,0.3364,0.3603,0.4318,0.5039,0.4814,0.5002,0.5219,0.5064,0.5018,0.5018,0.5018,0.5018,0.5018,0.5018,0.0,0.0,0.0,0.0,0.0,0.0,0.0,0.0,0.0,0.0,0.5004,0.4922,0.4952,0.5002,0.0,0.0,0.0,0.0,0.0,0.0,0.0,0.0,0.1833,0.1145,0.1109,0.0774,0.0034,0.0,0.0,0.0,0.0,0.0,0.0,0.0,0.0,0.0,0.0,0.0,0.0,0.0,0.0,0.0,0.0,0.0,0.0,0.0,0.0,0.0,0.0,0.0,0.0,0.0,-0.0045,-0.0135,0.5897,0.0,0.0,0.0,0.0,0.0,0.0,0.0,0.0,0.0,0.0,0.0,0.0,0.0,0.0,0.0,0.0,0.0,0.0,0.0,0.0,0.0,0.0,0.0,0.0,0.0,0.0,0.0,0.0,0.0,0.0,0.0,0.0,0.0,0.0,0.0,0.0,0.0,0.0,0.0,0.0,0.018,0.0,0.0,0.0853,0.148,0.2196,0.3224,0.4334,0.4583,0.511,0.5583,0.539,0.5341,0.5372,0.5135,0.5078,0.5067,0.5029,0.5018,0.5018,0.5018,0.5018,0.0,0.5018,0.0,0.5018,0.0,0.0,0.0,0.0,0.0,0.5018,0.5018,0.5018,0.5018,0.0,0.5018,0.0,0.0,0.0,0.0,0.0,0.0,0.2517,0.1591,0.1495,0.1047,0.0068,0.0,0.0,0.0,0.0,0.0,0.0,0.0,0.0,0.0,0.0,0.0,0.0,0.0,0.0,0.0,0.0,0.0,0.0,0.0,0.0,0.0,0.0,0.0,0.0,0.0,0.0,-0.0045,0.0,0.0,0.0,0.0,0.0986,0.0,0.0,0.0,0.009,0.0,0.0,0.0,0.0,0.0,0.0,0.0,0.0,0.0,0.0,0.0,0.0,0.0,0.0,0.0,0.0,0.0,0.0,0.0,0.0,0.0,0.0,0.0,0.0,0.0,0.0,0.0,0.0,0.0,0.0,0.0,0.0045,0.0584,0.1391,0.1524,0.1524,0.1793,0.3628,0.4344,0.4523,0.5419,0.5613,0.5516,0.5508,0.5472,0.5396,0.5233,0.5192,0.5162,0.5056,0.5021,0.5018,0.5018,0.5018,0.5018,0.0,0.0,0.5018,0.0,0.0,0.0,0.0,0.0,0.0,0.5018,0.5018,0.5018,0.0,0.0,0.0,0.0,0.0,0.0,0.0,0.4447,0.3719,0.2459,0.2217,0.1498,0.0141,0.0069,0.0034,0.0,0.0,0.0,0.0,0.0,0.0,0.0,0.0,0.0,0.0,0.0,0.0,0.0,0.0,0.0,0.0,0.0,0.0,0.0,0.0,0.0,0.0,0.0,0.0,0.0,0.7054,0.616,0.5134,0.0,0.335,0.237,0.0,0.0,0.0,0.0,0.0,0.0,0.0,0.0,0.0,0.0,0.0,0.0,0.0,0.0,0.0,0.0,0.0,0.0,0.0,0.0,0.0,0.0,0.0,0.0,0.0,0.0,0.0,0.0,0.0,0.0,0.0,0.0,0.0,0.0045,0.0763,0.1166,0.1569,0.0,0.3539,0.3628,0.4119,0.4748,0.5374,0.5599,0.5667,0.5626,0.5534,0.5486,0.5437,0.5358,0.5257,0.5178,0.5151,0.5083,0.5018,0.5018,0.5018,0.5018,0.5018,0.5018,0.5018,0.0,0.0,0.0,0.0,0.0,0.0,0.0,0.0,0.0,0.0,0.0,0.0,0.4936,0.0,0.0,0.0,0.4083,0.3591,0.3143,0.258,0.1856,0.1009,0.088,0.056,0.0,0.0,0.0,0.0,0.0,0.0,0.0,0.0,0.0,0.0,0.0,0.0,0.0,0.0,0.0,0.0,0.0,0.0,0.0,0.0,0.0,0.0,0.0,0.0,0.0,0.7095,0.0,0.0,0.5933,0.0,0.0,0.2058,0.1344,0.0,0.0091,0.0,0.0,0.0,0.0,0.0,0.0,0.0,0.0,0.0,0.0,0.0,0.0,0.0,0.0,0.0,0.0,0.0,0.0,0.0,0.0,0.0,0.0,0.0,0.0,0.0,0.0,0.0,0.0,0.0225,0.0673,0.1166,0.1928,0.0,0.3896,0.4567,0.4926,0.4926,0.524,0.5688,0.5688,0.5688,0.5677,0.5607,0.5586,0.5564,0.5483,0.5398,0.5322,0.5216,0.514,0.508,0.5029,0.5018,0.5018,0.5018,0.5018,0.5018,0.5018,0.5018,0.5018,0.5018,0.5018,0.0,0.0,0.0,0.0,0.0,0.0,0.0,0.0,0.4917,0.0,0.5042,0.446,0.3921,0.3509,0.3046,0.2335,0.1274,0.1138,0.0744,0.0036,0.0,0.0,0.0,0.0,0.0,0.0,0.0,0.0,0.0,0.0,0.0,0.0,0.0,0.0,0.0,0.0,0.0,0.0,0.0,0.0,0.0,0.0,0.0,0.0,0.0,0.0,0.0,0.0,0.0,0.0,0.0,0.099,0.0,0.0,0.0,0.0,0.0,0.0,0.0,0.0,0.0,0.0,0.0,0.0,0.0,0.0,0.0,0.0,0.0,0.0,0.0,0.0,0.0,0.0,0.0,0.0,0.0,0.0,0.0,0.0,0.0,0.0,0.0539,0.1391,0.1524,0.2688,0.43,0.4433,0.4971,0.5688,0.5688,0.5688,0.5688,0.5688,0.5688,0.5688,0.5688,0.5688,0.5667,0.5561,0.5521,0.5462,0.5292,0.5211,0.5162,0.5064,0.5029,0.5018,0.5018,0.5018,0.5018,0.5018,0.5018,0.5018,0.5018,0.5018,0.0,0.0,0.0,0.0,0.0,0.0,0.0,0.0,0.0,0.0,0.5654,0.5129,0.4515,0.392,0.3685,0.2954,0.1542,0.0,0.0892,0.0184,0.0074,0.0,0.0,0.0,0.0,0.0,0.0,0.0,0.0,0.0,0.0,0.0,0.0,0.0,0.0,0.0,0.0,0.0,0.0,0.0,0.0,0.0,0.0,0.0,0.0,0.0,0.0,0.0,0.0,0.3771,0.3336,0.2249,0.1104,0.0139,0.0,0.0,0.0,0.0,0.0,0.0,0.0,0.0,0.0,0.0,0.0,0.0,0.0,0.0,0.0,0.0,0.0,0.0,0.0,0.0,0.0,0.0,0.0,0.0,0.0,0.0,0.0,0.0,0.0,0.148,0.2286,0.3314,0.4389,0.5151,0.5555,0.5688,0.5688,0.5688,0.5688,0.5688,0.5688,0.5688,0.5688,0.5688,0.5686,0.5664,0.5586,0.5497,0.5456,0.5339,0.5181,0.5162,0.5086,0.5018,0.5018,0.5018,0.5018,0.5018,0.5018,0.5018,0.5018,0.5018,0.5018,0.0,0.0,0.0,0.0,0.0,0.0,0.0,0.0,0.5046,0.0,0.0,0.507,0.5395,0.4843,0.4125,0.3352,0.0,0.1662,0.1082,0.0388,0.0,0.0,0.0,0.0,0.0,0.0,0.0,0.0,0.0,0.0,0.0,0.0,0.0,0.0,0.0,0.0,0.0,0.0,0.0,0.0,0.0,0.0,0.0,0.0,0.0,0.0,0.0,0.0,0.0,0.0,0.2068,0.0954,0.0095,0.0,0.0,0.0,0.0,0.0,0.0,0.0,0.0,0.0,0.0,0.0,0.0,0.0,0.0,0.0,0.0,0.0,0.0,0.0,0.0,0.0224,0.0224,0.0,0.0,0.0,0.0,0.0,0.0,0.1301,0.224,0.3226,0.421,0.506,0.551,0.5688,0.5688,0.5688,0.5688,0.5688,0.5688,0.5688,0.5688,0.5688,0.5688,0.5688,0.5688,0.5648,0.5588,0.5524,0.542,0.5306,0.5203,0.5102,0.5018,0.5018,0.5018,0.5018,0.5018,0.5018,0.5018,0.5018,0.5018,0.5018,0.0,0.0,0.0,0.0,0.0,0.0,0.0,0.0,0.0,0.0,0.0,0.0,0.0,0.0,0.0,0.3721,0.3194,0.2602,0.1955,0.1508,0.1308,0.1309,0.0885,0.0693,0.0655,0.0198,0.0,0.0,0.0,0.0,0.0,0.0,0.0,0.0,0.0,0.0,0.0,0.0,0.0,0.0,0.0,0.0,0.0,0.0,0.6665,0.0,0.0,0.409,0.0,0.2578,0.1587,0.0638,0.0147,0.0099,0.005,0.0,0.0,0.0,0.0,0.0,0.0,0.0,0.0,0.0,0.0,0.0,0.0,0.0,0.0,0.0,0.0,0.0,0.0,0.0403,0.0359,0.0,0.0,0.0,0.0,0.0045,0.0987,0.1973,0.3001,0.3941,0.4882,0.5688,0.5688,0.5688,0.5688,0.5688,0.5688,0.5688,0.5688,0.5688,0.5688,0.5688,0.5688,0.5688,0.5688,0.5688,0.5667,0.5572,0.5502,0.5379,0.5254,0.5137,0.5048,0.5023,0.5018,0.5018,0.5018,0.5018,0.5018,0.5018,0.5018,0.5018,0.5018,0.0,0.0,0.0,0.0,0.0,0.0,0.0,0.0,0.567,0.0,0.0,0.0,0.0,0.0,0.392,0.3711,0.336,0.2813,0.2611,0.2488,0.2484,0.1877,0.146,0.1293,0.0603,0.0164,0.0,0.0,0.0,0.0,0.0,0.0,0.0,0.0,0.0,0.0,0.0,0.0,0.0,0.0,0.0,0.0,0.0,0.0,0.0,0.0,0.0,0.2585,0.2623,0.1565,0.0687,0.0393,0.0349,0.0252,0.005,0.0,0.0,0.0,0.0,0.0,0.0,0.0,0.0,0.0,0.0,0.0,0.0,0.0,0.0,0.0,0.0,0.0135,0.0403,0.0135,0.0045,0.0045,0.0,0.0,0.0045,0.0987,0.1973,0.3001,0.3941,0.4882,0.5688,0.5688,0.5688,0.5688,0.5688,0.5688,0.5688,0.5688,0.5688,0.5688,0.5688,0.5688,0.5688,0.5688,0.5688,0.5686,0.5675,0.5583,0.5462,0.5382,0.526,0.5143,0.504,0.5018,0.5018,0.5018,0.5018,0.5018,0.5018,0.5018,0.5018,0.5018,0.0,0.0,0.0,0.0,0.0,0.0,0.0,0.0,0.0,0.5015,0.0,0.0,0.486,0.0,0.0,0.4054,0.3627,0.3671,0.2926,0.251,0.2498,0.2432,0.2031,0.1293,0.1205,0.0748,0.0,0.0,0.0,0.0,0.0,0.0,0.0,0.0,0.0,0.0,0.0,0.0,0.0,0.0,0.0,0.0,0.0,0.0,0.0,0.0,0.0,0.0,0.0,0.1881,0.0949,0.0699,0.0503,0.0303,0.0051,0.0,0.0,0.0,0.0,0.0,0.0,0.0,0.0,0.0,0.0,0.0,0.0,0.0,0.0,0.0,0.0,0.0,0.0,0.0449,0.0359,0.0224,0.009,0.0314,0.0898,0.1883,0.2867,0.3807,0.4748,0.5374,0.5688,0.5688,0.5688,0.5688,0.5688,0.5688,0.5688,0.5688,0.5688,0.5688,0.5688,0.5688,0.5688,0.5688,0.5688,0.5688,0.5688,0.5599,0.5497,0.5448,0.533,0.5175,0.5129,0.5067,0.5018,0.5018,0.5018,0.5018,0.5018,0.5018,0.5018,0.5018,0.0,0.0,0.0,0.0,0.0,0.0,0.0,0.0,0.0,0.0,0.0,0.0,0.0,0.0,0.0,0.466,0.446,0.4501,0.419,0.4014,0.4013,0.3503,0.3151,0.2838,0.2375,0.2063,0.1909,0.1189,0.0535,0.0,0.0,0.0,0.0,0.0,0.0,0.0,0.0,0.0,0.0,0.0,0.0,0.0,0.7879,0.0,0.641,0.0,0.4885,0.3657,0.3658,0.2599,0.1716,0.1413,0.0858,0.0404,0.0051,0.0,0.0,0.0,0.0,0.0,0.0,0.0,0.0,0.0,0.0,0.0,0.0,0.0,0.0,0.0,0.0269,0.0,0.0,0.0628,0.0493,0.0269,0.0359,0.0763,0.148,0.2777,0.3673,0.4389,0.5329,0.5688,0.5688,0.5688,0.5688,0.5688,0.5688,0.5688,0.5688,0.5688,0.5688,0.5688,0.5688,0.5688,0.5688,0.5688,0.5688,0.5688,0.5688,0.5626,0.5551,0.5516,0.5378,0.5273,0.5203,0.5124,0.5059,0.5023,0.5018,0.5018,0.5018,0.5018,0.5018,0.5018,0.5018,0.0,0.0,0.5018,0.0,0.0,0.5018,0.5018,0.5018,0.5018,0.0,0.0,0.0,0.0,0.0,0.5018,0.5018,0.5018,0.5018,0.5018,0.5018,0.4531,0.4199,0.4012,0.3561,0.3297,0.3278,0.2134,0.1256,0.0584,0.0314,0.0225,0.018,0.0135,0.0135,0.009,0.0045,0.0,0.0,0.0,0.018,0.0404,0.7985,0.7135,0.6387,0.6384,0.5477,0.4774,0.4772,0.3874,0.3073,0.282,0.1614,0.0606,0.0051,0.0,0.0,0.0,0.0,0.0,0.0,0.0,0.0,0.0,0.0,0.0,0.0,0.0,0.0,0.0,0.0,0.0,0.0403,0.0403,0.0269,0.0045,0.0987,0.1391,0.1524,0.3449,0.43,0.4389,0.5329,0.5688,0.5688,0.5688,0.5688,0.5688,0.5688,0.5688,0.5688,0.5688,0.5688,0.5688,0.5688,0.5688,0.5688,0.5688,0.5688,0.5688,0.5688,0.5688,0.5659,0.5537,0.5505,0.544,0.5241,0.5184,0.5151,0.504,0.5018,0.5018,0.5018,0.5018,0.5018,0.5018,0.5018,0.0,0.0,0.5018,0.0,0.5018,0.5018,0.5018,0.5018,0.5018,0.0,0.0,0.0,0.0,0.0,0.5018,0.5018,0.5018,0.5018,0.5018,0.5018,0.5331,0.5083,0.4279,0.4628,0.4374,0.3568,0.2549,0.2104,0.2014,0.1076,0.0673,0.0673,0.0493,0.0403,0.0359,0.009,0.0,0.0,0.0,0.0584,0.1391,0.7988,0.7821,0.7687,0.7687,0.6881,0.6207,0.6207,0.506,0.4099,0.4048,0.279,0.1813,0.1662,0.0656,0.0,0.0,0.0,0.0,0.0,0.0152,0.0201,0.0,0.0344,0.0436,0.0289,0.0466,0.055,0.055,0.0768,0.0897,0.0897,0.0897,0.1076,0.1434,0.1747,0.2551,0.3712,0.4293,0.4832,0.5285,0.5599,0.5688,0.5688,0.5688,0.5688,0.5688,0.5688,0.5688,0.5688,0.5688,0.5688,0.5688,0.5688,0.5688,0.5688,0.5688,0.5688,0.5688,0.5688,0.5688,0.568,0.5642,0.557,0.5486,0.541,0.5306,0.5154,0.504,0.5018,0.5018,0.5018,0.5018,0.5018,0.5018,0.5018,0.5018,0.5018,0.0,0.5018,0.5018,0.5018,0.5018,0.5018,0.5018,0.0,0.0,0.0,0.0,0.5018,0.5018,0.5018,0.5018,0.5018,0.5095,0.5334,0.5454,0.5539,0.5661,0.5786,0.5385,0.455,0.4421,0.3887,0.3081,0.2103,0.1657,0.1613,0.0896,0.0583,0.0628,0.1075,0.121,0.1299,0.1792,0.2152,0.2419,0.8204,0.8286,0.835,0.835,0.7897,0.7478,0.7478,0.6357,0.5464,0.5375,0.4143,0.3193,0.3171,0.1813,0.0706,0.0202,0.0253,0.0202,0.0,0.0253,0.0303,0.0152,0.0446,0.0638,0.054,0.0714,0.0792,0.0786,0.0906,0.0987,0.1121,0.1345,0.1702,0.2149,0.2861,0.3798,0.4825,0.5095,0.5458,0.5819,0.5733,0.5688,0.5688,0.5688,0.5688,0.5688,0.5688,0.5688,0.5688,0.5688,0.5688,0.5688,0.5688,0.5688,0.5688,0.5688,0.5688,0.5688,0.5688,0.5688,0.5688,0.5688,0.5632,0.5564,0.5518,0.536,0.5167,0.5094,0.5048,0.5018,0.5018,0.5018,0.5018,0.5018,0.5018,0.5018,0.5018,0.0,0.5018,0.0,0.0,0.5018,0.5018,0.5018,0.5018,0.0,0.0,0.0,0.509,0.5054,0.5015,0.509,0.5129,0.5266,0.5632,0.576,0.6019,0.6411,0.6551,0.6265,0.5669,0.5583,0.509,0.433,0.3352,0.2906,0.2862,0.1791,0.1389,0.1434,0.1791,0.1879,0.1879,0.273,0.3178,0.3403,0.8482,0.8489,0.8499,0.8499,0.8506,0.8513,0.8513,0.7657,0.6973,0.6855,0.5637,0.472,0.4587,0.3371,0.2065,0.0808,0.0757,0.0606,0.0101,0.0303,0.0404,0.0404,0.0447,0.059,0.0836,0.0869,0.0851,0.0833,0.0771,0.0898,0.1256,0.1881,0.2238,0.2416,0.4241,0.5087,0.5176,0.5855,0.6127,0.6083,0.5822,0.5733,0.5688,0.5688,0.5688,0.5688,0.5688,0.5688,0.5688,0.5688,0.5688,0.5688,0.5688,0.5688,0.5688,0.5688,0.5688,0.5688,0.5688,0.5688,0.5688,0.5688,0.5688,0.5656,0.5534,0.5374,0.5208,0.5189,0.5102,0.5026,0.5018,0.5018,0.5018,0.5018,0.5018,0.5018,0.5018,0.5018,0.5018,0.5018,0.5018,0.5018,0.5018,0.5018,0.5018,0.5018,0.0,0.0,0.5282,0.5098,0.5104,0.5335,0.5332,0.5556,0.5938,0.6271,0.6492,0.6635,0.6943,0.701,0.6795,0.6121,0.5808,0.5764,0.4823,0.4378,0.4289,0.3132,0.2642,0.2597,0.2417,0.2237,0.2148,0.3084,0.3848,0.4433,0.8482,0.8577,0.8655,0.8655,0.8754,0.8828,0.8828,0.8514,0.8267,0.8232,0.7035,0.6185,0.6157,0.5017,0.4021,0.3518,0.1814,0.0758,0.0606,0.0657,0.0707,0.0707,0.0905,0.1054,0.1104,0.133,0.1391,0.1342,0.1335,0.173,0.2464,0.2643,0.3491,0.487,0.5317,0.5852,0.6387,0.6571,0.6438,0.6083,0.6041,0.5863,0.5688,0.5688,0.5688,0.5688,0.5688,0.5688,0.5688,0.5688,0.5688,0.5688,0.5688,0.5688,0.5688,0.5688,0.5688,0.5688,0.5688,0.5688,0.5688,0.5688,0.5688,0.5656,0.5534,0.5462,0.537,0.5224,0.5165,0.5121,0.5031,0.5018,0.5018,0.5018,0.5018,0.5018,0.5018,0.5018,0.5018,0.5018,0.5018,0.5018,0.5018,0.5018,0.5018,0.5018,0.0,0.5015,0.5054,0.5136,0.5345,0.5744,0.5744,0.5978,0.6431,0.6508,0.6681,0.7001,0.7078,0.7098,0.701,0.683,0.6786,0.6694,0.5761,0.5361,0.5272,0.4289,0.3888,0.3933,0.4423,0.4601,0.4601,0.5184,0.5544,0.5636,0.8693,0.8757,0.8815,0.8815,0.8828,0.8885,0.8885,0.8814,0.8791,0.872,0.8026,0.7501,0.7443,0.63,0.5477,0.5325,0.3222,0.1816,0.1563,0.1212,0.096,0.096,0.1111,0.1263,0.1364,0.15,0.1569,0.1522,0.1494,0.1977,0.2907,0.3326,0.4291,0.5719,0.6163,0.6564,0.6925,0.684,0.6659,0.6393,0.6171,0.5994,0.5863,0.5733,0.5688,0.5688,0.5688,0.5688,0.5688,0.5688,0.5688,0.5688,0.5688,0.5952,0.6213,0.6213,0.5952,0.5777,0.6127,0.5952,0.5688,0.5688,0.5688,0.5672,0.5605,0.5548,0.547,0.5379,0.5262,0.5167,0.5105,0.5053,0.5018,0.5018,0.5018,0.5018,0.5018,0.5018,0.5018,0.5018,0.5018,0.5018,0.5018,0.5018,0.5018,0.5018,0.5064,0.5136,0.5215,0.537,0.5572,0.5873,0.5931,0.6191,0.6751,0.6814,0.6886,0.6969,0.7051,0.7054,0.6966,0.7051,0.7095,0.7051,0.6564,0.634,0.6251,0.5314,0.4959,0.4959,0.5359,0.5406,0.5319,0.6124,0.6216,0.5908,0.8885,0.8885,0.8885,0.8885,0.8885,0.8885,0.8885,0.8885,0.8838,0.876,0.8591,0.8435,0.8368,0.7333,0.6637,0.6637,0.4828,0.3423,0.2818,0.2067,0.1615,0.1515,0.1464,0.1515,0.1617,0.1617,0.1602,0.162,0.1515,0.1995,0.291,0.3882,0.4779,0.5719,0.6697,0.7095,0.7095,0.6925,0.6836,0.6748,0.6349,0.6171,0.6083,0.5863,0.5733,0.5688,0.5688,0.5688,0.5688,0.5688,0.5777,0.5863,0.5863,0.6343,0.6953,0.6953,0.652,0.6171,0.6779,0.6476,0.5997,0.5997,0.5997,0.5997,0.5997,0.5868,0.5699,0.5683,0.5427,0.523,0.5195,0.5108,0.5037,0.5021,0.5018,0.5018,0.5018,0.5018,0.5018,0.5018,0.5018,0.5023,0.504,0.5042,0.505,0.5069,0.5159,0.5297,0.5462,0.5584,0.5767,0.5937,0.6004,0.6301,0.6873,0.7034,0.701,0.6836,0.701,0.701,0.6836,0.701,0.7095,0.7095,0.7095,0.7095,0.7051,0.6251,0.5897,0.5897,0.5897,0.5675,0.5453,0.6438,0.6396,0.5819,0.8885,0.8885,0.8885,0.8885,0.8885,0.8885,0.8885,0.8885,0.8875,0.8851,0.8659,0.8472,0.8452,0.8052,0.7739,0.7739,0.6634,0.5479,0.4474,0.4121,0.3621,0.2923,0.267,0.2268,0.1617,0.1617,0.1602,0.162,0.1536,0.1976,0.291,0.3882,0.4779,0.5719,0.6697,0.7095,0.7095,0.7051,0.6966,0.6795,0.6707,0.6438,0.6083,0.6038,0.5908,0.5688,0.5688,0.5688,0.5688,0.5688,0.6127,0.665,0.665,0.7088,0.7658,0.7658,0.757,0.7482,0.7614,0.757,0.7485,0.7485,0.7485,0.7485,0.7485,0.7024,0.6583,0.6473,0.5903,0.5389,0.5224,0.5173,0.5129,0.5031,0.5018,0.5018,0.5018,0.5018,0.5018,0.5018,0.5018,0.5056,0.5151,0.5159,0.5203,0.5347,0.5372,0.5383,0.5424,0.5498,0.5729,0.622,0.6196,0.6359,0.6804,0.7,0.7098,0.7054,0.7095,0.7098,0.7054,0.7095,0.7095,0.7095,0.7095,0.7095,0.7095,0.6962,0.6874,0.6874,0.6874,0.683,0.6786,0.6792,0.6567,0.6254,0.8885,0.8885,0.8885,0.8885,0.8885,0.8885,0.8885,0.8885,0.8854,0.8825,0.8621,0.8452,0.8377,0.817,0.7988,0.7988,0.754,0.7036,0.6581,0.5325,0.4173,0.3224,0.3073,0.2571,0.1617,0.1617,0.161,0.1596,0.1549,0.2275,0.3703,0.4129,0.509,0.6473,0.6918,0.7095,0.7095,0.7095,0.7054,0.6966,0.684,0.6662,0.6438,0.6302,0.6127,0.5908,0.5908,0.5822,0.5688,0.5688,0.6169,0.6779,0.6779,0.7526,0.8404,0.8404,0.8404,0.8317,0.7921,0.8097,0.8317,0.7921,0.779,0.779,0.779,0.757,0.7332,0.7262,0.6628,0.6068,0.5987,0.556,0.517,0.5118,0.5056,0.5018,0.5018,0.5018,0.504,0.5099,0.5108,0.5156,0.5314,0.5325,0.535,0.5407,0.5428,0.5466,0.5466,0.571,0.5952,0.6171,0.6518,0.6768,0.6966,0.7054,0.7095,0.7095,0.7095,0.7095,0.7095,0.7095,0.7095,0.7095,0.7095,0.7095,0.7095,0.7095,0.7095,0.7095,0.7095,0.7054,0.6925,0.6836,0.6571,0.6213,0.8885,0.8885,0.8885,0.8885,0.8885,0.8885,0.8885,0.8885,0.8828,0.873,0.8577,0.8428,0.8337,0.8133,0.7988,0.7988,0.7988,0.7988,0.7988,0.6478,0.5077,0.3976,0.3725,0.3173,0.2371,0.2321,0.222,0.1969,0.2146,0.2922,0.4111,0.4495,0.5439,0.6831,0.7023,0.7095,0.7095,0.7095,0.7095,0.7095,0.6925,0.684,0.6792,0.6567,0.6346,0.6171,0.6127,0.5952,0.5822,0.5908,0.6432,0.7041,0.7217,0.8141,0.9152,0.9152,0.9152,0.9026,0.8448,0.8715,0.9021,0.8448,0.8317,0.8317,0.8317,0.8185,0.8053,0.8053,0.7302,0.6658,0.6625,0.5856,0.5262,0.5235,0.5156,0.5099,0.5099,0.5099,0.5132,0.5219,0.5227,0.5276,0.5401,0.5412,0.5423,0.5453,0.5497,0.5548,0.5548,0.5899,0.6171,0.626,0.6745,0.701,0.701,0.7098,0.7095,0.7095,0.7095,0.7095,0.7095,0.7095,0.7095,0.7095,0.7095,0.7095,0.7095,0.7095,0.7095,0.7095,0.7095,0.701,0.6881,0.6881,0.6615,0.626,0.8885,0.8885,0.8885,0.8885,0.8885,0.8885,0.8885,0.8885,0.8828,0.873,0.8577,0.8428,0.8337,0.8133,0.7988,0.7988,0.7988,0.7988,0.7988,0.7839,0.7285,0.6234,0.5227,0.4624,0.4574,0.4574,0.4074,0.3073,0.409,0.4147,0.3318,0.5008,0.5877,0.6008,0.6751,0.7095,0.7095,0.7095,0.7095,0.7095,0.7098,0.6966,0.6795,0.6792,0.6612,0.6343,0.6171,0.6083,0.6127,0.6561,0.7173,0.7834,0.854,0.9288,0.9907,0.9907,0.9907,0.9907,0.9864,0.9864,0.9907,0.9864,0.982,0.982,0.982,0.9288,0.8803,0.8803,0.7738,0.6768,0.6645,0.6003,0.5443,0.5374,0.5391,0.5385,0.5385,0.5385,0.5388,0.5396,0.5396,0.5404,0.5483,0.5494,0.554,0.5653,0.5672,0.5675,0.5675,0.5947,0.6305,0.6751,0.6795,0.6836,0.6836,0.701,0.7095,0.7095,0.7095,0.7095,0.7095,0.7095,0.7095,0.7095,0.7095,0.7095,0.7095,0.7095,0.7095,0.7095,0.7095,0.7095,0.7098,0.7098,0.6922,0.6704,0.8885,0.8885,0.8885,0.8885,0.8885,0.8851,0.8811,0.8798,0.871,0.8469,0.8387,0.8292,0.8143,0.8025,0.7988,0.7988,0.7988,0.7988,0.7988,0.7988,0.7537,0.6437,0.5377,0.4824,0.4824,0.4824,0.4624,0.4175,0.4587,0.4884,0.5081,0.575,0.638,0.6991,0.7263,0.7373,0.7285,0.7285,0.7227,0.7095,0.7095,0.7054,0.6966,0.6966,0.6833,0.6612,0.639,0.6213,0.6083,0.6127,0.6605,0.7305,0.8009,0.8715,0.9419,0.9859,0.9994,0.9994,0.9994,0.9994,0.9994,0.9994,0.9994,0.9994,0.9994,0.9772,0.9598,0.9598,0.8803,0.8078,0.8016,0.7408,0.6856,0.6844,0.6376,0.6031,0.6031,0.566,0.5398,0.5472,0.5483,0.5486,0.5607,0.5621,0.564,0.5686,0.5863,0.5952,0.5952,0.6305,0.6659,0.6966,0.6966,0.6966,0.6966,0.7051,0.7095,0.7095,0.7095,0.7095,0.7095,0.7095,0.7095,0.7095,0.7095,0.7095,0.7095,0.7095,0.7095,0.7095,0.7095,0.7095,0.7098,0.6969,0.6881,0.6748,0.8885,0.8885,0.8885,0.8885,0.8844,0.8832,0.8726,0.8669,0.855,0.8354,0.8323,0.8211,0.8008,0.7988,0.7988,0.7988,0.7988,0.7988,0.7988,0.7988,0.769,0.6936,0.6179,0.5827,0.5827,0.5827,0.5627,0.5277,0.5654,0.5963,0.626,0.6571,0.7038,0.7665,0.7617,0.7543,0.7444,0.7444,0.738,0.7233,0.7231,0.7214,0.7207,0.7112,0.701,0.6881,0.6612,0.6435,0.6349,0.6612,0.6962,0.7397,0.8356,0.8934,0.9331,0.9864,0.9994,0.9994,0.9994,0.9994,0.9994,0.9994,0.9994,0.9994,0.9994,0.9994,0.9994,0.9994,0.9419,0.889,0.889,0.8269,0.772,0.772,0.7236,0.6788,0.6577,0.6111,0.5766,0.5597,0.5564,0.5597,0.568,0.5688,0.5688,0.5688,0.5952,0.6171,0.6305,0.6615,0.6881,0.7095,0.7095,0.7095,0.7095,0.7095,0.7095,0.7095,0.7095,0.7095,0.7095,0.7095,0.7095,0.7095,0.7095,0.7095,0.7095,0.7095,0.7095,0.7095,0.7095,0.7095,0.7098,0.6922,0.6881,0.6881,0.8885,0.8885,0.8885,0.8881,0.8811,0.871,0.8706,0.8577,0.8428,0.834,0.832,0.8211,0.8005,0.7988,0.7988,0.7988,0.7988,0.7988,0.7988,0.7988,0.7988,0.7988,0.7988,0.7988,0.7988,0.7988,0.7487,0.6437,0.7487,0.7437,0.6434,0.7345,0.7814,0.7807,0.7665,0.7604,0.76,0.76,0.76,0.7587,0.7434,0.7419,0.7402,0.7204,0.7098,0.7058,0.6884,0.6799,0.7017,0.8412,0.8592,0.8464,1.0077,1.0342,0.9999,0.9999,0.9999,0.9999,0.9994,0.9994,0.9994,0.9994,0.9994,0.9994,0.9994,0.9994,0.9994,0.9994,0.9423,0.889,0.889,0.8317,0.7834,0.7834,0.7834,0.757,0.6912,0.6823,0.6517,0.5819,0.5733,0.5688,0.5688,0.5688,0.5688,0.5688,0.5952,0.6305,0.6792,0.6795,0.6881,0.7095,0.7095,0.7095,0.7095,0.7095,0.7095,0.7095,0.7095,0.7095,0.7095,0.7095,0.7095,0.7095,0.7095,0.7095,0.7095,0.7095,0.7095,0.7095,0.7095,0.7095,0.7095,0.7095,0.7095,0.7051,0.8885,0.8885,0.8851,0.8798,0.874,0.8638,0.8435,0.8364,0.8279,0.813,0.8109,0.8092,0.7995,0.7988,0.7988,0.7988,0.7988,0.7988,0.7988,0.7988,0.7988,0.7988,0.7988,0.7988,0.7988,0.7988,0.7839,0.7537,0.7839,0.7839,0.7537,0.7793,0.7921,0.7921,0.7877,0.7848,0.7746,0.7746,0.7692,0.7597,0.755,0.7533,0.7526,0.7478,0.7461,0.7415,0.7181,0.7085,0.7224,0.8276,0.8547,0.8639,0.9963,1.0376,1.0403,1.0265,1.0222,1.0189,1.0037,0.9994,0.9994,0.9994,0.9994,0.9994,0.9994,0.9994,0.9994,0.9994,0.9816,0.9685,0.9685,0.9506,0.9331,0.9331,0.889,0.8492,0.8317,0.7834,0.7438,0.7221,0.6738,0.6473,0.6473,0.5994,0.5688,0.5688,0.608,0.652,0.6966,0.701,0.7054,0.7095,0.7095,0.7095,0.7095,0.7095,0.7095,0.7095,0.7095,0.7095,0.7095,0.7095,0.7095,0.7095,0.7095,0.7095,0.7095,0.7095,0.7095,0.7095,0.7095,0.7095,0.7095,0.7095,0.7095,0.7095,0.8757,0.8757,0.873,0.8635,0.8574,0.8476,0.8347,0.8218,0.8147,0.8002,0.7988,0.7988,0.7988,0.7988,0.7988,0.7988,0.7988,0.7988,0.7988,0.7988,0.7988,0.7988,0.7988,0.7988,0.7988,0.7988,0.7988,0.7988,0.7988,0.7988,0.7988,0.7988,0.7988,0.7988,0.7988,0.7938,0.7899,0.7899,0.7851,0.777,0.7706,0.7682,0.7678,0.7621,0.76,0.76,0.7406,0.7637,0.8146,0.9025,0.9579,0.9996,1.056,1.0662,1.0592,1.0428,1.0436,1.0407,1.0279,1.0241,1.0222,1.0142,1.0061,0.9994,0.9994,0.9994,0.9994,0.9994,0.9994,0.9994,0.9994,0.9994,0.9994,0.9994,0.9641,0.9244,0.8934,0.8536,0.8141,0.783,0.7265,0.6915,0.6915,0.6343,0.6041,0.613,0.6393,0.6697,0.7095,0.7095,0.7095,0.7095,0.7095,0.7095,0.7095,0.7095,0.7095,0.7095,0.7095,0.7095,0.7095,0.7095,0.7095,0.7095,0.7095,0.7095,0.7095,0.7095,0.7095,0.7095,0.7095,0.7095,0.7095,0.7095,0.7095,0.7095,0.8591,0.8535,0.8531,0.8465,0.8357,0.8316,0.8252,0.813,0.7988,0.7988,0.7988,0.7988,0.7988,0.7988,0.7988,0.7988,0.7988,0.7988,0.7988,0.7988,0.7988,0.7988,0.7988,0.7988,0.7988,0.7988,0.7988,0.7988,0.7988,0.7988,0.7988,0.7988,0.7988,0.7988,0.7988,0.7988,0.7988,0.7988,0.7988,0.7978,0.7889,0.7831,0.7818,0.7689,0.7638,0.7638,0.7732,0.8385,0.9409,1.0422,1.14,1.2061,1.1698,1.1189,1.072,1.07,1.0649,1.0598,1.0579,1.0621,1.0573,1.0393,1.0198,1.0042,1.0004,0.9994,0.9994,0.9994,0.9994,0.9994,0.9994,0.9994,0.9994,0.9994,0.9994,0.9772,0.9109,0.8978,0.8759,0.8137,0.7577,0.7312,0.7356,0.6871,0.6609,0.6795,0.6795,0.6881,0.7095,0.7095,0.7095,0.7095,0.7095,0.7095,0.7095,0.7095,0.7095,0.7095,0.7095,0.7095,0.7095,0.7095,0.7095,0.7095,0.7095,0.7095,0.7095,0.7095,0.7095,0.7095,0.7095,0.7095,0.7095,0.7095,0.7095,0.7095,0.886,0.8808,0.8717,0.8388,0.8344,0.8231,0.8109,0.8012,0.7988,0.7988,0.7988,0.7988,0.7988,0.7988,0.7988,0.7988,0.7988,0.7988,0.7988,0.7988,0.7988,0.7988,0.7988,0.7988,0.7988,0.7988,0.7988,0.7988,0.7988,0.7988,0.7988,0.7988,0.7988,0.7988,0.7988,0.7988,0.7988,0.7988,0.7988,0.7985,0.7955,0.7941,0.7938,0.7904,0.7894,0.8041,0.8864,0.9299,0.9782,1.1616,1.2635,1.3183,1.3087,1.2411,1.1659,1.149,1.1156,1.0787,1.0622,1.0621,1.0611,1.0564,1.0521,1.0398,1.007,0.9994,0.9994,0.9994,0.9994,0.9994,0.9994,0.9994,0.9994,0.9994,0.9994,0.9951,0.9772,0.9772,0.9816,0.998,0.9104,0.8798,0.9531,0.8309,0.7312,0.6836,0.6795,0.6881,0.7095,0.7095,0.7095,0.7095,0.7095,0.7095,0.7095,0.7095,0.7095,0.7095,0.7095,0.7095,0.7095,0.7095,0.7095,0.7095,0.7095,0.7095,0.7095,0.7095,0.7095,0.7095,0.7095,0.7095,0.7095,0.7095,0.7095,0.7095,0.8889,0.8834,0.8809,0.8574,0.8409,0.8331,0.8197,0.8088,0.7988,0.7988,0.7988,0.7988,0.7988,0.7988,0.7988,0.7988,0.7988,0.7988,0.7988,0.7988,0.7988,0.7988,0.7988,0.7988,0.7988,0.7988,0.7988,0.7988,0.7988,0.7988,0.7988,0.7988,0.7988,0.7988,0.7988,0.7988,0.7988,0.7988,0.7988,0.7988,0.7988,0.7988,0.7988,0.7988,0.8333,0.8825,0.941,1.0243,1.1317,1.2926,1.3474,1.3491,1.3491,1.3007,1.2349,1.2283,1.2054,1.1735,1.1377,1.1252,1.1181,1.0843,1.0726,1.0641,1.0369,1.0217,1.0151,1.0151,1.0066,0.9994,0.9994,0.9994,0.9994,0.9994,0.9994,0.9994,0.9994,0.9994,1.0164,1.0549,0.9898,0.9589,1.0053,0.8925,0.7973,0.7625,0.7187,0.701,0.7095,0.7095,0.7095,0.7095,0.7095,0.7095,0.7095,0.7095,0.7095,0.7095,0.7095,0.7095,0.7095,0.7095,0.7095,0.7095,0.7095,0.7095,0.7095,0.7095,0.7095,0.7095,0.7095,0.7095,0.7095,0.7095,0.7095,0.7095,0.8928,0.8874,0.8874,0.8825,0.8627,0.8482,0.8482,0.8237,0.8088,0.8088,0.8038,0.7988,0.7988,0.7988,0.7988,0.7988,0.7988,0.7988,0.7988,0.7988,0.7988,0.7988,0.7988,0.7988,0.7988,0.7988,0.7988,0.7988,0.7988,0.7988,0.7988,0.7988,0.7988,0.7988,0.7988,0.7988,0.7988,0.7988,0.7988,0.7988,0.7988,0.7988,0.8038,0.8187,0.8821,0.9657,0.9998,1.1365,1.3119,1.4004,1.401,1.3636,1.3636,1.3298,1.291,1.291,1.2861,1.271,1.2273,1.2127,1.1984,1.1375,1.1235,1.1139,1.0909,1.0586,1.0369,1.0369,1.0198,1.0051,1.0051,1.0018,0.9994,0.9994,0.9994,0.9994,0.9994,1.0081,1.025,1.0679,1.0506,1.0284,1.0058,0.9231,0.8671,0.85,0.7625,0.7095,0.7095,0.7095,0.7095,0.7095,0.7095,0.7095,0.7095,0.7095,0.7095,0.7095,0.7095,0.7095,0.7095,0.7095,0.7095,0.7095,0.7095,0.7095,0.7095,0.7095,0.7095,0.7095,0.7095,0.7095,0.7095,0.7095,0.7095,0.7095,0.9183,0.9133,0.908,0.8825,0.8775,0.8726,0.8726,0.8531,0.8333,0.8333,0.8137,0.7988,0.7988,0.7988,0.7988,0.7988,0.7988,0.7988,0.7988,0.7988,0.7988,0.7988,0.7988,0.7988,0.7988,0.7988,0.7988,0.7988,0.7988,0.7988,0.7988,0.7988,0.7988,0.7988,0.7988,0.7988,0.7988,0.7988,0.7988,0.7988,0.7988,0.7988,0.8088,0.9019,0.946,0.985,1.1653,1.3071,1.41,1.4244,1.425,1.4202,1.4202,1.3823,1.3394,1.3394,1.3104,1.2759,1.271,1.2716,1.2657,1.2576,1.2522,1.2415,1.1895,1.1142,1.0578,1.0578,1.0417,1.0274,1.0274,1.0123,0.9994,0.9994,0.9994,0.9994,0.9994,1.0294,1.0679,1.1149,1.1886,1.1837,1.0631,1.0014,0.9362,0.854,0.7625,0.7095,0.7095,0.7095,0.7095,0.7095,0.7095,0.7095,0.7095,0.7095,0.7095,0.7095,0.7095,0.7095,0.7095,0.7095,0.7095,0.7095,0.7095,0.7095,0.7095,0.7095,0.7095,0.7095,0.7095,0.7095,0.7095,0.7095,0.7095,0.7095,1.1179,1.1179,1.0935,1.0243,0.9998,0.9706,0.9126,0.8779,0.8581,0.8432,0.8287,0.8187,0.8041,0.7988,0.7988,0.7988,0.7988,0.7988,0.7988,0.7988,0.7988,0.7988,0.7988,0.7988,0.7988,0.7988,0.7988,0.7988,0.7988,0.7988,0.7988,0.7988,0.7988,0.7988,0.7988,0.7988,0.7988,0.7988,0.7988,0.7988,0.7988,0.7988,0.8038,0.8531,0.9069,0.985,1.195,1.3366,1.4298,1.4298,1.4298,1.4298,1.4298,1.4154,1.3968,1.3968,1.3817,1.3582,1.3249,1.3201,1.3152,1.2861,1.2813,1.2764,1.2516,1.2117,1.1652,1.0919,1.0589,1.0488,1.0488,1.0407,1.0393,1.0544,1.0568,1.0617,1.0699,1.0895,1.1154,1.1623,1.2272,1.2448,1.1843,1.1101,1.0274,0.9362,0.8408,0.7665,0.7139,0.7095,0.7095,0.7095,0.7095,0.7095,0.7095,0.7095,0.7095,0.7095,0.7095,0.7095,0.7095,0.7095,0.7095,0.7095,0.7095,0.7095,0.7095,0.7095,0.7095,0.7095,0.7095,0.7095,0.7095,0.7095,0.7095,0.7095]}]]